[[{"header":{"parameterUnit":"m.s-1","parameterCategory":1,"la1":30.6,"la2":29.2853,"lo1":-89.7004,"lo2":-87.6739,"dy":0.0162,"dx":0.0183,"nx":112,"ny":82,"refTime":"2023-03-11T06:00:00:Z","depth":0,"parameterNumber":2,"parameterNumberName":"U-component_of_WINDS"},"data":[0.0,0.0,0.0,0.0,0.0,0.0,0.0,0.0,0.0,0.0,0.0,0.0,0.0,0.0,0.0,0.0,0.0,0.0,0.0,0.0,0.0,0.0,0.0,0.0,0.0,0.0,0.0,0.0,0.0,0.0,0.0,0.0,0.0,0.0,0.0,0.0,0.0,0.0,0.0,0.0,0.0,0.0,0.0,0.0,0.0,0.0,0.0,0.0,0.0,0.0,0.0,0.0,0.0,0.0,0.0,0.0,0.0,0.0,0.0,0.0,0.0,0.0,0.0,0.0,0.0,0.0,0.0,0.0,0.0,0.0,0.0,0.0,0.0,0.0,0.0,0.0,0.0,0.0,0.0,0.0,0.0,0.0,0.0,0.0,0.0,0.0,0.0,0.0,0.0,0.0,0.0,8.651,9.6074,10.1696,10.0603,9.8651,9.2834,8.1903,0.0,0.0,0.0,0.0,0.0,0.0,0.0,0.0,0.0,0.0,0.0,0.0,0.0,0.0,0.0,0.0,0.0,0.0,0.0,0.0,0.0,0.0,0.0,0.0,0.0,0.0,0.0,0.0,0.0,0.0,0.0,0.0,0.0,0.0,0.0,0.0,0.0,0.0,0.0,0.0,0.0,0.0,0.0,0.0,0.0,0.0,0.0,0.0,0.0,0.0,0.0,0.0,0.0,0.0,0.0,0.0,0.0,0.0,0.0,0.0,0.0,0.0,0.0,0.0,0.0,0.0,0.0,0.0,0.0,0.0,0.0,0.0,0.0,0.0,0.0,0.0,0.0,0.0,0.0,0.0,0.0,0.0,0.0,0.0,0.0,0.0,0.0,0.0,0.0,0.0,0.0,0.0,0.0,0.0,0.0,0.0,0.0,0.0,0.0,0.0,0.0,0.0,0.0,0.0,8.2606,9.5488,10.1618,10.3882,10.15,9.8416,9.2443,8.2723,0.0,0.0,0.0,0.0,0.0,0.0,0.0,0.0,0.0,0.0,0.0,0.0,0.0,0.0,0.0,0.0,0.0,0.0,0.0,0.0,0.0,0.0,0.0,0.0,0.0,0.0,0.0,0.0,0.0,0.0,0.0,0.0,0.0,0.0,0.0,0.0,0.0,0.0,0.0,0.0,0.0,0.0,0.0,0.0,0.0,0.0,0.0,0.0,0.0,0.0,0.0,0.0,0.0,0.0,0.0,0.0,0.0,0.0,0.0,0.0,0.0,0.0,0.0,0.0,0.0,0.0,0.0,0.0,0.0,0.0,0.0,0.0,0.0,0.0,0.0,0.0,0.0,0.0,0.0,0.0,0.0,0.0,0.0,0.0,0.0,0.0,0.0,0.0,0.0,0.0,0.0,0.0,0.0,0.0,0.0,0.0,0.0,0.0,0.0,0.0,0.0,0.0,0.0,8.0485,8.7325,9.9959,10.3893,10.4594,10.2,9.9102,9.321,8.341,8.03,0.0,0.0,0.0,0.0,0.0,0.0,0.0,0.0,0.0,0.0,0.0,0.0,0.0,0.0,0.0,0.0,0.0,0.0,0.0,0.0,0.0,0.0,0.0,0.0,0.0,0.0,0.0,0.0,0.0,0.0,0.0,0.0,0.0,0.0,0.0,0.0,0.0,0.0,0.0,0.0,0.0,0.0,0.0,0.0,0.0,0.0,0.0,0.0,0.0,0.0,0.0,0.0,0.0,0.0,0.0,0.0,0.0,0.0,0.0,0.0,0.0,0.0,0.0,0.0,0.0,0.0,0.0,0.0,0.0,0.0,0.0,0.0,0.0,0.0,0.0,0.0,0.0,0.0,0.0,0.0,0.0,0.0,0.0,0.0,0.0,0.0,0.0,0.0,0.0,0.0,0.0,0.0,0.0,0.0,0.0,0.0,0.0,0.0,0.0,0.0,0.0,0.0,8.7517,9.306,10.2599,10.521,10.5194,10.2599,9.9297,9.3376,8.409,7.9546,0.0,0.0,0.0,0.0,0.0,0.0,0.0,0.0,0.0,0.0,0.0,0.0,0.0,0.0,0.0,0.0,0.0,0.0,0.0,0.0,0.0,0.0,0.0,0.0,0.0,0.0,0.0,0.0,0.0,0.0,0.0,0.0,0.0,0.0,0.0,0.0,0.0,0.0,0.0,0.0,0.0,0.0,0.0,0.0,0.0,0.0,0.0,0.0,0.0,0.0,0.0,0.0,0.0,0.0,0.0,0.0,0.0,0.0,0.0,0.0,0.0,0.0,0.0,0.0,0.0,0.0,0.0,0.0,0.0,0.0,0.0,0.0,0.0,0.0,0.0,0.0,0.0,0.0,0.0,0.0,0.0,0.0,0.0,0.0,0.0,0.0,0.0,0.0,0.0,0.0,0.0,0.0,0.0,0.0,0.0,0.0,0.0,0.0,0.0,0.0,0.0,0.0,9.0585,9.8601,10.3904,10.6294,10.6293,10.3492,9.8037,9.1802,8.4855,7.8234,0.0,0.0,0.0,0.0,0.0,0.0,0.0,0.0,0.0,0.0,0.0,0.0,0.0,0.0,0.0,0.0,0.0,0.0,0.0,0.0,0.0,0.0,0.0,0.0,0.0,0.0,0.0,0.0,0.0,0.0,0.0,0.0,0.0,0.0,0.0,0.0,0.0,0.0,0.0,0.0,0.0,0.0,0.0,0.0,0.0,0.0,0.0,0.0,0.0,0.0,0.0,0.0,0.0,0.0,0.0,0.0,0.0,0.0,0.0,0.0,0.0,0.0,0.0,0.0,0.0,0.0,0.0,0.0,0.0,0.0,0.0,0.0,0.0,0.0,0.0,0.0,0.0,0.0,0.0,0.0,0.0,0.0,0.0,0.0,0.0,0.0,0.0,0.0,0.0,0.0,0.0,0.0,0.0,0.0,0.0,0.0,0.0,0.0,0.0,0.0,0.0,0.0,8.9391,9.7108,0.0,10.6105,10.5796,10.3112,9.9365,9.3688,8.5374,0.0,0.0,0.0,0.0,0.0,0.0,0.0,0.0,0.0,0.0,0.0,0.0,0.0,0.0,0.0,0.0,0.0,0.0,0.0,0.0,0.0,0.0,0.0,0.0,0.0,0.0,0.0,0.0,0.0,0.0,0.0,0.0,0.0,0.0,0.0,0.0,0.0,0.0,0.0,0.0,0.0,0.0,0.0,0.0,0.0,0.0,0.0,0.0,0.0,0.0,0.0,0.0,0.0,0.0,0.0,0.0,0.0,0.0,0.0,0.0,0.0,0.0,0.0,0.0,0.0,0.0,0.0,0.0,0.0,0.0,0.0,0.0,0.0,0.0,0.0,0.0,0.0,0.0,0.0,0.0,0.0,0.0,0.0,0.0,0.0,0.0,0.0,0.0,0.0,0.0,0.0,0.0,0.0,0.0,0.0,0.0,0.0,0.0,0.0,0.0,0.0,0.0,8.2006,9.0083,9.7716,0.0,10.5986,10.5525,10.2789,9.9058,9.3431,8.5601,0.0,0.0,0.0,0.0,0.0,0.0,0.0,0.0,0.0,0.0,0.0,0.0,0.0,0.0,0.0,0.0,0.0,0.0,0.0,0.0,0.0,0.0,0.0,0.0,0.0,0.0,0.0,0.0,0.0,0.0,0.0,0.0,0.0,0.0,0.0,0.0,0.0,0.0,0.0,0.0,0.0,0.0,0.0,0.0,0.0,0.0,0.0,0.0,0.0,0.0,0.0,0.0,0.0,0.0,0.0,0.0,0.0,0.0,0.0,0.0,0.0,0.0,0.0,0.0,0.0,0.0,0.0,0.0,0.0,0.0,0.0,0.0,0.0,0.0,0.0,0.0,0.0,0.0,0.0,0.0,0.0,0.0,0.0,0.0,0.0,0.0,0.0,0.0,0.0,0.0,0.0,0.0,0.0,0.0,0.0,0.0,0.0,0.0,0.0,0.0,0.0,0.0,8.3293,9.3582,10.1683,10.4791,10.6133,10.5701,10.279,9.6403,9.0422,0.0,0.0,0.0,0.0,0.0,0.0,0.0,0.0,0.0,0.0,0.0,0.0,0.0,0.0,0.0,0.0,0.0,0.0,0.0,0.0,0.0,0.0,0.0,0.0,0.0,0.0,0.0,0.0,0.0,0.0,0.0,0.0,0.0,0.0,0.0,0.0,0.0,0.0,0.0,0.0,0.0,0.0,0.0,0.0,0.0,0.0,0.0,0.0,0.0,0.0,0.0,0.0,0.0,0.0,0.0,0.0,0.0,0.0,0.0,0.0,0.0,0.0,0.0,0.0,0.0,0.0,0.0,0.0,0.0,0.0,0.0,0.0,0.0,0.0,0.0,0.0,0.0,0.0,0.0,0.0,0.0,0.0,0.0,0.0,0.0,0.0,0.0,0.0,0.0,0.0,0.0,0.0,0.0,0.0,0.0,0.0,0.0,0.0,0.0,0.0,0.0,0.0,0.0,8.3988,9.3697,10.171,10.5597,10.6295,10.5486,10.2789,9.8057,9.2245,8.5414,0.0,0.0,0.0,0.0,0.0,0.0,0.0,0.0,0.0,0.0,0.0,0.0,0.0,0.0,0.0,0.0,0.0,0.0,0.0,0.0,0.0,0.0,0.0,0.0,0.0,0.0,0.0,0.0,0.0,0.0,0.0,0.0,0.0,0.0,0.0,0.0,0.0,0.0,0.0,0.0,0.0,0.0,0.0,0.0,0.0,0.0,0.0,0.0,0.0,0.0,0.0,0.0,0.0,0.0,0.0,0.0,0.0,0.0,0.0,0.0,0.0,0.0,0.0,0.0,0.0,0.0,0.0,0.0,0.0,0.0,0.0,0.0,0.0,0.0,0.0,0.0,0.0,0.0,0.0,0.0,0.0,0.0,0.0,0.0,0.0,0.0,0.0,0.0,0.0,0.0,0.0,0.0,0.0,0.0,0.0,0.0,0.0,0.0,0.0,0.0,0.0,0.0,8.4709,9.4287,10.2097,10.602,10.6405,10.5405,10.2789,9.9019,9.3364,8.5401,0.0,0.0,0.0,0.0,0.0,0.0,0.0,0.0,0.0,0.0,0.0,0.0,0.0,0.0,0.0,0.0,0.0,0.0,0.0,0.0,0.0,0.0,0.0,0.0,0.0,0.0,0.0,0.0,0.0,0.0,0.0,0.0,0.0,0.0,0.0,0.0,0.0,0.0,0.0,0.0,0.0,0.0,0.0,0.0,0.0,0.0,0.0,0.0,0.0,0.0,0.0,0.0,0.0,0.0,0.0,0.0,0.0,0.0,0.0,0.0,0.0,0.0,0.0,0.0,0.0,0.0,0.0,0.0,0.0,0.0,0.0,0.0,0.0,0.0,0.0,0.0,0.0,0.0,0.0,0.0,0.0,0.0,0.0,0.0,0.0,0.0,0.0,0.0,0.0,0.0,0.0,0.0,0.0,0.0,0.0,0.0,0.0,0.0,0.0,0.0,0.0,0.0,8.5555,9.5057,10.2597,10.602,10.6405,10.5405,10.2789,9.9404,9.3864,8.567,0.0,0.0,0.0,0.0,0.0,0.0,0.0,0.0,0.0,0.0,0.0,0.0,0.0,0.0,0.0,0.0,0.0,0.0,0.0,0.0,0.0,0.0,0.0,0.0,0.0,0.0,0.0,0.0,0.0,0.0,0.0,0.0,0.0,0.0,0.0,0.0,0.0,0.0,0.0,0.0,0.0,0.0,0.0,0.0,0.0,0.0,0.0,0.0,0.0,0.0,0.0,0.0,0.0,0.0,0.0,0.0,0.0,0.0,0.0,0.0,7.336,0.0,0.0,0.0,0.0,0.0,0.0,0.0,0.0,0.0,0.0,0.0,0.0,0.0,0.0,0.0,0.0,0.0,0.0,0.0,0.0,0.0,0.0,0.0,0.0,0.0,0.0,0.0,0.0,0.0,0.0,0.0,0.0,0.0,0.0,0.0,0.0,0.0,0.0,0.0,0.0,0.0,8.6478,9.5441,10.2597,10.602,10.6405,10.5405,10.2789,9.8904,9.3787,8.7286,8.1016,0.0,0.0,0.0,0.0,0.0,0.0,0.0,0.0,0.0,0.0,0.0,0.0,0.0,0.0,0.0,0.0,0.0,0.0,0.0,0.0,0.0,0.0,0.0,0.0,0.0,0.0,0.0,0.0,0.0,0.0,0.0,0.0,0.0,0.0,0.0,0.0,0.0,0.0,0.0,0.0,0.0,0.0,0.0,0.0,0.0,0.0,0.0,0.0,0.0,0.0,0.0,0.0,0.0,0.0,0.0,0.0,0.0,0.0,0.0,0.0,7.6284,0.0,0.0,0.0,0.0,0.0,0.0,0.0,0.0,0.0,0.0,0.0,0.0,0.0,0.0,0.0,0.0,0.0,0.0,0.0,0.0,0.0,0.0,0.0,0.0,0.0,0.0,0.0,0.0,0.0,0.0,0.0,0.0,0.0,0.0,0.0,0.0,0.0,0.0,0.0,0.0,8.7325,9.5788,10.2597,10.602,10.6405,10.552,10.3405,10.0096,9.5595,8.9594,8.3632,0.0,0.0,0.0,0.0,0.0,0.0,0.0,0.0,0.0,0.0,0.0,0.0,0.0,0.0,0.0,0.0,0.0,0.0,0.0,0.0,0.0,0.0,0.0,0.0,0.0,0.0,0.0,0.0,0.0,0.0,0.0,0.0,0.0,0.0,0.0,0.0,0.0,0.0,0.0,0.0,0.0,0.0,0.0,0.0,0.0,0.0,0.0,0.0,0.0,0.0,0.0,0.0,0.0,8.2638,8.383,8.4939,8.6099,8.706,8.7709,8.4291,8.1676,7.9708,7.8323,0.0,0.0,0.0,0.0,0.0,0.0,0.0,0.0,0.0,0.0,0.0,0.0,0.0,0.0,0.0,0.0,0.0,0.0,0.0,0.0,0.0,0.0,0.0,0.0,7.6053,7.5207,0.0,0.0,0.0,0.0,0.0,0.0,0.0,0.0,0.0,0.0,0.0,0.0,8.7979,9.6057,10.2597,10.602,10.629,10.5597,10.3982,10.1404,9.7519,9.1979,8.6863,8.1516,0.0,0.0,0.0,0.0,0.0,0.0,0.0,0.0,0.0,0.0,0.0,0.0,0.0,0.0,0.0,0.0,0.0,0.0,0.0,0.0,0.0,0.0,0.0,0.0,0.0,0.0,0.0,0.0,0.0,0.0,0.0,0.0,6.5944,6.5465,0.0,0.0,0.0,0.0,0.0,0.0,0.0,0.0,0.0,0.0,0.0,0.0,0.0,7.9838,8.2326,8.5319,8.7003,8.7379,9.0413,9.1256,9.0287,9.2486,9.4023,9.498,9.4983,0.0,8.4824,8.1016,0.0,0.0,0.0,0.0,0.0,0.0,0.0,0.0,0.0,0.0,0.0,0.0,0.0,0.0,0.0,0.0,0.0,0.0,0.0,0.0,0.0,0.0,7.9823,8.0169,8.1362,8.1862,0.0,7.4938,7.0783,7.0475,6.9398,0.0,0.0,0.0,0.0,0.0,0.0,0.0,8.8132,9.6057,10.2597,10.602,10.5713,10.4905,10.3982,10.0904,9.7365,9.3595,8.8594,8.3785,7.9323,7.5168,0.0,0.0,0.0,0.0,0.0,0.0,0.0,0.0,0.0,0.0,0.0,0.0,0.0,0.0,0.0,0.0,0.0,0.0,0.0,0.0,0.0,0.0,0.0,0.0,0.0,0.0,0.0,0.0,0.0,6.617,6.8342,6.7034,6.959,7.0394,0.0,0.0,0.0,0.0,0.0,0.0,0.0,0.0,0.0,8.1913,8.3982,8.6279,8.8845,9.1296,9.3251,9.4828,9.6746,9.7823,9.817,9.9283,10.0284,10.121,10.1517,9.9288,9.4864,8.8209,8.3632,8.0439,0.0,0.0,0.0,0.0,7.5976,7.7246,7.8669,7.94,0.0,7.8477,0.0,0.0,0.0,0.0,0.0,0.0,0.0,0.0,0.0,0.0,8.2362,8.4786,8.5555,8.567,8.5401,8.1516,7.7169,0.0,7.3168,7.1937,6.9629,0.0,0.0,0.0,0.0,8.5632,9.0825,9.7673,10.3212,10.6097,10.6097,10.529,10.3982,10.1597,9.875,9.5365,9.0787,8.6555,8.2824,7.813,7.4207,0.0,0.0,0.0,0.0,0.0,0.0,0.0,0.0,0.0,0.0,0.0,0.0,0.0,0.0,0.0,0.0,0.0,0.0,0.0,0.0,0.0,0.0,0.0,0.0,0.0,0.0,0.0,0.0,6.8547,7.0839,6.8508,7.2243,7.3423,0.0,0.0,0.0,0.0,0.0,0.0,8.1726,8.3486,8.5972,8.9338,9.1055,9.3158,9.5724,9.7681,9.9753,10.1909,10.2982,10.4215,10.548,10.5723,10.6189,10.6808,10.6583,10.5823,10.3788,9.5365,8.9479,8.5517,8.2093,7.9862,7.8746,7.9977,8.1131,8.2362,8.4247,8.4901,8.4632,8.2939,8.0362,7.7323,7.386,0.0,0.0,0.0,0.0,7.6899,8.1785,8.3978,8.5824,8.944,9.0287,9.0248,9.0017,8.7979,8.4555,0.0,7.7592,7.6207,7.2783,0.0,0.0,0.0,0.0,8.7786,9.3018,9.8711,10.3212,10.552,10.5597,10.4905,10.3712,10.1789,9.9404,9.648,9.271,8.894,8.5363,8.0746,7.6669,7.3245,0.0,0.0,0.0,0.0,0.0,0.0,0.0,0.0,0.0,0.0,0.0,0.0,0.0,0.0,0.0,0.0,0.0,0.0,0.0,0.0,0.0,0.0,0.0,0.0,0.0,0.0,0.0,0.0,0.0,6.9616,7.5615,0.0,0.0,0.0,0.0,7.8894,8.1919,8.5206,8.8606,9.0402,9.2847,9.6286,9.8006,10.0107,10.2667,10.5074,10.693,10.7983,10.9591,11.0481,11.0692,11.1401,11.1783,11.189,11.0979,11.0194,10.9003,10.0596,9.5134,9.171,8.8286,8.6401,8.5593,8.5709,8.6786,8.8248,8.8402,8.844,8.8556,8.921,8.6594,8.2554,7.9131,7.8092,0.0,0.0,8.0554,8.2862,8.7171,9.0133,9.2441,9.4249,9.648,9.7326,9.4134,9.3287,9.121,0.0,8.1939,7.9746,7.6322,0.0,7.9131,7.84,8.4132,8.9748,9.3249,9.8211,10.202,10.3789,10.3289,10.2789,10.2712,10.0404,9.8173,9.6403,9.3826,9.0479,8.6209,8.2747,7.9285,7.5861,7.1745,0.0,0.0,0.0,0.0,0.0,0.0,0.0,0.0,0.0,0.0,0.0,0.0,0.0,0.0,0.0,0.0,0.0,0.0,0.0,0.0,0.0,0.0,0.0,0.0,0.0,0.0,0.0,0.0,7.8137,8.383,0.0,8.1843,8.3028,8.4747,8.6468,8.9179,9.2274,9.5598,9.7394,9.961,10.2514,10.4195,10.5991,10.7978,10.9506,11.0576,11.1506,11.208,11.2399,11.2526,11.2794,11.2997,11.2971,11.2215,11.1391,11.0616,10.701,10.2286,9.7096,9.4249,9.2249,9.1133,9.2249,9.3056,9.3672,9.4172,9.4018,9.3095,9.0094,8.6632,8.3362,8.2131,8.1785,8.2054,8.3478,8.5478,8.794,9.1095,9.3018,9.4518,9.6211,9.6903,9.7019,9.6288,9.5288,9.3826,9.1402,8.7825,8.4593,8.2824,8.3247,8.3939,8.417,8.8632,9.2941,9.5788,10.0096,10.3405,10.4597,10.4405,10.3789,10.2712,10.0289,9.7827,9.5595,9.3056,9.0479,8.7863,8.4516,8.1093,7.7669,7.4514,7.1437,0.0,0.0,0.0,0.0,0.0,0.0,0.0,0.0,0.0,0.0,0.0,0.0,0.0,0.0,0.0,0.0,0.0,0.0,0.0,0.0,0.0,0.0,0.0,0.0,0.0,0.0,8.4327,8.5435,9.1013,9.3459,9.0096,9.1319,9.3038,9.472,9.7203,9.9954,10.3011,10.4501,10.6297,10.8589,10.9697,11.0997,11.241,11.3289,11.4015,11.4512,11.4512,11.4588,11.4894,11.4426,11.4324,11.4516,11.3189,11.2379,11.1984,11.0487,10.7394,10.3289,10.0981,9.9096,9.7673,9.8827,9.9096,9.8865,9.8788,9.825,9.6865,9.2633,8.9325,8.694,8.6671,8.6594,8.694,8.8632,9.0517,9.2595,9.4826,9.6057,9.6942,9.775,9.798,9.798,9.7942,9.7057,9.6211,9.5903,9.2402,8.9056,8.7632,8.7863,8.8479,8.9017,9.221,9.5403,9.7634,10.0712,10.2904,10.3712,10.3597,10.2981,10.1904,9.9942,9.748,9.4326,9.2018,8.9479,8.6671,8.3824,8.0977,7.813,7.5014,7.1475,6.7552,0.0,0.0,0.0,0.0,0.0,0.0,0.0,0.0,0.0,0.0,0.0,0.0,0.0,0.0,0.0,0.0,0.0,0.0,0.0,0.0,0.0,0.0,0.0,7.6953,8.4976,9.0861,9.1013,9.6898,9.9649,9.6401,9.9075,10.1712,10.3393,10.58,10.8284,11.0691,11.1684,11.2907,11.4474,11.4588,11.5008,11.5696,11.6613,11.6995,11.6995,11.6995,11.7492,11.818,11.6613,11.6193,11.6919,11.4397,11.3406,11.3424,11.0931,10.9995,11.0098,10.8406,10.6713,10.5213,10.5213,10.4713,10.3712,10.202,10.0904,9.975,9.7288,9.5288,9.371,9.2941,9.2672,9.2979,9.4634,9.5749,9.6788,9.8404,9.9481,9.9904,9.9058,10.0096,10.0904,9.9211,9.8865,9.8596,9.775,9.5557,9.3018,9.0517,9.1518,9.2672,9.2672,9.4788,0.0,9.8673,9.9635,10.0481,10.1289,10.0712,10.0096,10.0096,9.9173,9.6865,9.2633,9.0671,8.7478,8.2554,8.0669,7.8977,7.7246,7.3014,6.9244,6.5999,0.0,0.0,0.0,0.0,0.0,0.0,0.0,0.0,0.0,0.0,0.0,0.0,0.0,0.0,0.0,0.0,0.0,0.0,0.0,0.0,0.0,0.0,8.4709,8.4938,9.0861,9.6515,10.0183,10.4883,10.7596,10.6603,10.8513,10.9927,11.0423,11.2219,11.3595,11.4283,11.4588,11.4894,11.5391,11.6002,11.6422,11.6613,11.7492,11.7912,11.7912,11.7912,11.8103,11.8294,11.7798,11.7416,11.6919,11.562,11.4808,11.4196,11.2281,11.1698,11.1583,10.9402,10.829,10.779,10.7213,10.5982,10.4597,10.3597,10.2597,10.1712,10.0404,9.8788,9.7365,9.7134,9.6634,9.6365,9.7442,9.8365,9.9173,9.9596,10.0404,10.0904,10.0712,10.1019,10.1212,10.0712,10.0212,9.9673,9.9442,9.7788,9.6057,9.4749,9.5441,9.6134,9.6134,9.7788,0.0,10.0519,10.1404,10.2212,10.3097,10.2404,10.1212,9.9288,9.6673,9.3557,8.9979,8.6363,8.4055,8.3247,8.04,7.7784,7.5476,7.1245,6.8693,0.0,0.0,0.0,0.0,0.0,0.0,0.0,0.0,0.0,0.0,0.0,0.0,0.0,0.0,0.0,0.0,0.0,0.0,0.0,0.0,0.0,0.0,8.811,9.3153,9.5637,9.8923,10.3011,10.8016,11.1111,11.3098,11.3786,11.4779,11.5505,11.5811,11.669,11.7492,11.7798,11.7798,11.7989,11.8294,11.8791,11.9288,11.9594,12.009,12.0396,12.0396,11.9708,11.9479,11.9785,11.8791,11.7989,11.7492,11.6193,11.5291,11.4605,11.3304,11.2609,0.0,0.0,0.0,0.0,0.0,10.679,10.5482,10.4713,10.4097,10.3405,10.2212,10.0904,9.9865,9.9865,9.9481,9.9288,10.0096,10.0981,10.1673,10.1673,10.1789,10.1789,10.1789,10.1597,10.1289,10.1289,10.0712,10.0096,10.0096,9.8981,0.0,9.7442,9.7442,9.7634,9.798,9.9481,10.0789,10.1212,10.1712,10.2404,10.3289,10.2289,10.0712,9.8442,9.6442,0.0,0.0,0.0,8.2862,8.0516,7.7476,0.0,0.0,0.0,6.9477,6.9548,0.0,0.0,0.0,6.7645,6.7587,0.0,0.0,0.0,0.0,0.0,0.0,0.0,0.0,0.0,0.0,0.0,0.0,0.0,0.0,0.0,0.0,9.5102,10.1024,10.6908,10.7787,10.9583,11.4091,11.5582,11.6881,11.8409,11.8791,11.9173,11.9899,11.9899,12.0281,12.1007,0.0,0.0,0.0,0.0,12.2497,12.33,12.33,12.33,12.33,12.181,12.1504,12.2077,11.9785,11.8677,11.8485,11.6804,11.5673,11.4975,11.4095,11.3173,11.2414,11.1615,11.0897,10.9983,10.8482,10.7405,10.6405,10.5713,0.0,0.0,10.3405,10.2404,10.1712,10.1597,10.1597,10.1789,10.252,10.3289,10.3905,10.3905,10.3289,10.2597,10.2597,10.1904,10.1289,10.1289,10.0712,10.0212,10.0212,9.9519,9.8981,9.9058,9.8365,9.8096,9.8942,10.0404,10.152,10.1712,10.1597,10.1904,10.2712,0.0,0.0,9.7788,9.7288,9.4403,8.8094,8.6517,8.3054,7.6823,7.4207,7.2822,7.2629,7.1668,7.1129,7.1052,7.1168,7.1424,7.1801,7.0011,6.9706,0.0,0.0,0.0,0.0,0.0,0.0,0.0,0.0,0.0,0.0,0.0,0.0,0.0,0.0,0.0,9.4414,10.0413,10.6297,11.2181,11.3595,11.4397,11.5391,11.7989,11.9899,12.032,12.1504,12.2383,12.2612,12.2612,12.2612,12.2803,12.2803,12.2918,12.2994,12.2994,12.3109,12.33,12.33,12.33,12.33,0.0,0.0,12.2994,12.181,12.0893,12.0281,11.9211,11.8294,11.7508,11.5903,11.4133,11.2177,11.1698,11.0863,11.0175,10.979,10.879,10.7405,10.729,10.6713,10.602,10.4982,10.4482,10.4212,10.3597,10.3405,0.0,10.3597,10.3789,10.3905,10.3905,10.3289,10.2597,10.2597,10.1904,10.1289,10.1289,10.1212,10.1096,10.1096,10.0404,10.0096,10.0712,10.0096,9.9865,10.0712,10.1712,10.2789,10.4212,10.3789,10.3482,10.3597,10.2712,10.1096,9.875,9.6019,9.3018,8.9633,8.6055,8.2901,8.0208,7.8284,7.663,7.5284,7.3783,7.2668,7.1937,7.2668,7.3378,7.4025,7.194,7.1239,0.0,0.0,0.0,0.0,0.0,0.0,0.0,0.0,0.0,0.0,0.0,8.2149,0.0,0.0,9.6286,10.2209,10.7099,11.1417,11.52,11.7186,11.8294,11.8294,11.9785,12.1122,12.2001,12.3185,12.3911,12.3911,12.4293,12.4599,12.4599,12.4599,12.4599,12.4599,12.4599,12.4599,12.4599,12.4599,12.479,12.521,12.479,12.4599,12.4484,12.3185,12.2001,12.0816,11.9899,11.8982,11.818,11.6476,11.463,11.2691,11.2099,11.1198,11.0089,11.0089,10.9094,10.7713,10.7713,10.7098,10.629,10.5405,10.5097,10.4982,10.4597,10.4482,10.4597,10.4982,10.5213,10.5213,10.5213,10.4212,10.3289,10.3289,10.2289,10.1404,10.1904,10.202,10.2097,10.252,10.1904,10.1597,10.2481,10.1904,10.1481,10.1904,10.2712,10.3712,10.4905,10.4713,10.4482,10.4482,10.3405,10.1712,9.9635,9.5134,9.171,9.0017,8.6363,8.367,8.2401,8.0285,7.8977,7.8554,7.6476,7.5592,7.6015,7.6015,7.6255,7.6739,7.5631,7.5055,0.0,0.0,0.0,0.0,0.0,0.0,0.0,0.0,7.871,8.1423,8.5282,8.9485,9.3764,9.8808,10.4004,10.9124,11.2907,11.5811,11.7492,11.9594,12.1198,12.1695,12.1619,12.2001,12.3414,12.4293,12.479,12.479,12.5401,12.5783,12.5783,12.5783,12.5783,12.5783,12.5783,12.5783,12.5783,12.5783,12.6204,12.6815,12.628,12.6089,12.5974,12.4714,12.3109,12.1504,12.0281,11.9211,11.818,11.6873,11.5204,11.3291,11.2664,11.1506,11.018,11.0187,10.9272,10.809,10.7898,10.7325,10.6479,10.5595,10.5328,10.5405,10.5405,10.5405,10.5482,10.6213,10.6405,10.6405,10.6405,10.529,10.4097,10.4097,10.2904,10.202,10.2712,10.2904,10.3097,10.3789,10.3289,10.3097,10.3789,10.3289,10.2904,10.3097,10.3712,10.4405,10.5213,10.5405,10.529,10.5097,10.3789,10.1981,9.9788,9.5172,9.1864,9.0479,8.7709,8.5747,8.4863,8.2554,8.1439,8.1823,7.9823,7.9285,8.0285,7.9592,7.9326,7.9469,7.9365,7.8878,7.3571,7.2261,7.2303,7.4361,7.558,7.7678,0.0,0.0,8.7613,9.0899,9.4911,9.8235,9.9534,10.4501,10.9124,11.1417,11.52,11.8485,12.009,12.1198,12.2688,12.4981,12.4599,12.4217,12.4293,12.5096,12.5707,12.5707,12.5707,12.5783,12.5783,12.5783,12.5783,12.5783,12.5783,12.5783,12.5783,12.5783,12.5783,12.5974,12.6586,12.7006,12.6891,12.6777,12.5707,12.3988,12.1695,11.9785,11.8294,11.8065,11.6078,11.3174,11.3112,11.2169,11.0788,11.0884,11.0403,10.952,10.8715,10.7993,10.7198,10.6391,10.6207,10.629,10.629,10.629,10.629,10.6405,10.6405,10.6405,10.6405,10.5713,10.4982,10.4982,10.4289,10.3597,10.3712,10.3789,10.3789,10.3905,10.3789,10.3789,10.3905,10.3789,10.3982,10.4713,10.4905,10.529,10.6097,10.629,10.602,10.5213,10.4289,10.2097,9.8134,9.7173,9.548,9.2402,9.1133,9.0094,8.9248,8.7478,8.5901,8.4516,8.4209,8.3401,8.2016,8.19,8.1893,8.1886,8.1362,8.0436,7.4935,7.479,0.0,0.0,8.0697,8.4365,8.8262,9.1281,9.4032,9.6898,10.1597,10.5609,10.6985,11.1302,11.5085,0.0,11.8982,12.1007,12.2688,12.3223,12.3682,12.4293,12.4905,12.5592,12.6624,12.7503,12.7808,12.7312,12.7694,12.7808,12.7312,12.7312,12.7006,12.6586,12.6586,12.628,12.5783,12.5783,12.628,12.7312,12.7617,12.8114,12.8496,12.7999,12.6318,12.372,12.1122,11.9403,11.818,11.7186,11.5391,11.3213,11.2716,11.1812,11.0793,11.0903,11.0539,10.9781,10.9528,10.8613,10.7505,10.7206,10.6787,10.6405,10.6405,10.6405,10.6405,10.6405,10.6405,10.6405,10.6405,10.579,10.5097,10.5097,10.4482,10.3982,10.4482,10.4212,10.3982,10.4482,10.3789,10.3482,10.4405,10.4212,10.4289,10.5713,10.5405,10.5405,10.629,10.6405,10.5905,10.4482,10.4097,10.2404,9.8596,9.7788,9.6288,9.3364,9.2402,9.1556,9.071,8.9517,8.8325,8.7132,8.6132,8.5016,8.3824,8.3285,8.2785,8.2285,8.2053,8.144,7.5934,0.0,0.0,8.1279,8.5918,9.0644,9.3618,9.7265,10.0718,10.3202,10.7902,11.1914,11.3098,11.6499,11.9479,12.0893,12.2192,12.3491,12.4714,12.4714,12.4102,12.3109,12.3605,12.4714,12.6395,12.7999,12.8687,12.8305,12.8916,12.8993,12.8305,12.8305,12.7923,12.7082,12.7082,12.67,12.5783,12.5783,12.6395,12.7617,12.7885,12.8305,12.8878,12.7808,12.5898,12.3491,12.1007,11.9288,11.818,11.6881,11.5314,11.3518,11.2716,11.1799,11.0997,11.0907,11.0509,10.9993,10.9589,10.8907,10.7993,10.7394,10.6976,10.671,10.6521,10.6405,10.6405,10.6405,10.6405,10.6405,10.6405,10.5905,10.5482,10.5482,10.4982,10.4713,10.4982,10.4789,10.4597,10.4713,10.4212,10.3982,10.4905,10.4789,10.4982,10.6213,10.5905,10.5713,10.629,10.6405,10.579,10.4097,10.3905,10.2597,9.9442,9.8365,9.6749,9.421,9.3287,9.2326,9.1248,9.0594,8.9863,8.9056,8.7555,8.6401,8.5593,8.4478,8.3632,8.3016,8.2785,8.2409,0.0,0.0,8.009,8.5694,9.0788,9.5461,9.959,10.4288,10.8589,11.1111,11.4397,11.6804,11.6804,11.902,12.1007,12.181,12.4102,12.5707,12.5783,12.5019,12.3911,12.2192,12.0587,12.0281,0.0,12.521,12.7503,12.8191,12.8305,12.8305,12.8305,12.8305,12.7923,12.7082,12.7082,12.67,12.5783,12.5783,12.5783,12.5898,12.67,12.7197,12.7082,12.5401,12.4599,12.4293,12.181,11.9785,11.8294,11.818,11.669,11.4397,11.3518,11.2716,11.1914,11.0997,11.0691,11.0385,10.878,10.8804,10.9218,10.6783,10.6688,10.7274,10.6595,10.6405,10.6405,10.6405,10.6405,10.6405,10.6405,10.6405,10.6405,10.6405,10.629,10.6097,10.529,10.5713,10.5905,10.4212,10.5213,10.602,10.5213,10.579,10.629,10.6405,10.6405,10.6405,10.6405,10.6405,10.579,10.4097,10.3905,10.2904,10.0289,9.925,9.7673,9.5095,9.4134,9.2903,9.1287,9.1171,9.0748,8.9902,8.9056,8.8171,8.7325,8.567,8.4863,8.4786,8.3939,8.3555,0.0,0.0,8.8279,9.4084,9.8815,10.3075,10.728,11.0796,11.3595,11.5008,11.4894,11.4512,11.4512,11.6117,11.7912,11.9288,12.3109,12.6204,12.7312,12.7197,12.5592,12.1695,12.2192,0.0,0.0,0.0,0.0,12.8114,12.8802,12.9413,12.991,12.949,12.8802,12.7885,12.7388,12.67,12.5783,12.5783,12.6089,12.67,12.7503,12.7885,12.7808,12.5516,12.4522,12.4293,12.1313,11.9288,11.818,11.711,11.5811,11.4397,11.2983,11.2219,11.1914,11.0997,11.0691,11.0576,11.0181,10.9771,10.9361,10.8086,10.7602,10.718,10.6381,10.6199,10.628,10.628,10.6284,10.6405,10.6405,10.6405,10.6405,10.6405,10.6405,10.629,10.602,10.5713,10.5405,10.4789,10.4713,10.4789,10.5097,10.529,10.5713,10.629,10.6405,10.6405,10.6405,10.6405,10.579,10.4097,10.3905,10.2904,10.0289,9.9288,9.7942,9.598,9.448,9.321,9.2095,9.1518,9.0787,8.994,8.9633,8.8786,8.7401,8.6824,8.5978,8.4901,8.4593,8.4132,0.0,8.9075,9.4466,10.0634,10.4893,10.8604,11.2192,11.4714,11.6193,11.6117,11.4321,11.2487,11.1608,11.199,11.3404,11.6078,11.9479,12.2994,12.6509,12.5707,12.3605,12.0702,12.0702,12.0014,0.0,0.0,0.0,12.7082,12.8496,12.949,13.0292,13.0177,12.9604,12.8802,12.7999,12.7082,12.628,12.5974,12.6089,12.6586,12.7197,12.7388,12.7312,12.5096,12.4102,12.3911,12.1198,11.9479,11.86,11.7186,11.6117,11.52,11.3213,11.241,11.2296,11.1111,11.0691,11.0691,11.041,11.0372,11.0192,10.8921,10.8576,10.8431,10.7212,10.6995,10.7006,10.6698,10.7014,10.7213,10.6597,10.6597,10.679,10.6521,10.6405,10.629,10.602,10.5713,10.5405,10.4789,10.4713,10.4905,10.5097,10.5405,10.579,10.629,10.6405,10.6405,10.6405,10.6097,10.5482,10.4405,10.3789,10.2597,10.0712,9.9481,9.8096,9.6403,9.4941,9.3672,9.2556,9.1979,9.1248,9.0402,9.0056,8.9363,8.8286,8.8017,8.7132,8.5786,8.5786,8.5324,9.072,9.5036,9.8778,10.5201,10.9,11.1822,11.4225,11.5766,11.633,11.4573,11.2702,11.0487,0.0,0.0,10.8016,11.2296,11.4091,11.7186,12.3797,12.1389,11.9097,0.0,0.0,0.0,0.0,0.0,0.0,12.5401,0.0,12.8611,12.9604,13.0292,13.0407,12.9604,12.8802,12.7885,12.7082,12.6204,12.5783,12.5783,12.5783,12.5783,12.5707,12.4102,12.33,12.3185,12.1504,12.032,11.9403,11.86,11.7798,11.669,11.4206,11.3213,11.3022,11.1302,11.0691,11.0576,10.9812,11.0614,11.157,10.9197,10.9629,11.0586,10.9006,10.86,10.8575,10.7883,10.8321,10.8521,10.6905,10.7098,10.7521,10.6597,10.6405,10.6213,10.5405,10.579,10.5905,10.4289,10.529,10.6097,10.529,10.5905,10.6405,10.6405,10.6405,10.6405,10.6405,10.5597,10.5097,10.5097,10.3597,10.2289,10.1404,9.9827,9.8173,9.6519,9.5557,9.4326,9.271,9.2556,9.2095,9.1287,9.0402,8.994,8.9902,8.9133,8.8325,8.7478,8.7478,8.7017,9.5736,10.0986,10.5899,11.0597,11.23,11.3403,11.5191,11.4491,11.2974,11.1173,10.6087,10.123,0.0,0.0,0.0,10.9621,11.6384,0.0,12.7579,12.7885,0.0,0.0,0.0,12.2994,12.0587,12.1198,0.0,0.0,12.6204,12.7579,13.0292,13.0101,12.9795,12.9604,12.8802,12.7885,12.7082,12.6204,12.5783,12.5783,12.5783,12.5783,12.5707,12.4102,12.33,12.3185,12.1504,12.0014,11.86,11.8409,11.7377,11.5811,11.39,11.3213,11.3022,11.1302,11.0691,11.0691,11.0385,11.1111,11.1684,10.9825,10.9901,11.0589,10.953,10.9323,10.9495,10.9973,10.9496,10.8701,10.8287,10.7982,10.7521,10.6597,10.6905,10.7098,10.629,10.6213,10.629,10.579,10.6097,10.629,10.6097,10.629,10.6405,10.6405,10.6405,10.6405,10.6405,10.5597,10.5097,10.5097,10.3597,10.252,10.2289,10.0712,9.9288,9.8211,9.6788,9.548,9.4403,9.3172,9.2402,9.2172,9.1325,9.0556,8.9902,8.971,8.9171,8.8363,8.8363,8.7902,10.2191,10.7,11.1074,11.4782,11.5087,11.4393,11.3816,11.2127,10.9095,10.3998,9.9239,0.0,0.0,0.0,0.0,0.0,0.0,0.0,12.7006,12.7388,12.6586,0.0,12.5822,0.0,12.33,12.3491,12.4714,0.0,12.6586,12.7503,13.0101,13.0177,13.0101,13.0101,12.9299,12.8305,12.7082,12.6586,12.6204,12.5783,12.5783,12.5783,12.5707,12.4102,12.33,12.3185,0.0,12.0014,11.8791,11.8409,11.7492,11.6117,11.4397,11.3786,11.3595,11.2296,11.1608,11.1302,11.1302,11.1608,11.1799,11.0385,11.0614,11.1111,11.0194,11.0295,11.0777,11.1028,11.0893,11.0609,10.9585,10.9282,10.909,10.8329,10.8098,10.8213,10.8098,10.7521,10.7021,10.7021,10.7021,10.7021,10.7021,10.6713,10.6405,10.6405,10.6405,10.6405,10.6405,10.5597,10.5213,10.5597,10.3789,10.2597,10.2597,10.1096,9.9712,9.8865,9.7557,9.6442,9.5595,9.3941,9.2864,9.2518,9.1633,9.0979,9.0479,9.0479,9.0056,8.9248,8.9248,8.8786,10.8982,11.2286,11.4782,11.7792,11.7104,11.4795,11.117,10.8606,10.4306,9.54,0.0,9.0508,8.6849,9.0402,9.6057,10.2591,0.0,11.5887,12.521,12.4599,12.4293,12.7197,12.6318,12.5325,12.5325,12.521,12.6089,12.8496,12.7885,12.8076,12.9681,13.0407,13.0789,13.0789,12.9986,12.8802,12.7312,12.7312,12.6777,12.5783,12.5898,12.5898,12.5707,12.4102,12.33,12.3185,12.1504,12.0205,11.9288,11.86,11.7683,11.669,11.5085,11.4474,11.4397,11.3404,11.2601,11.199,11.1914,11.1799,11.1684,11.0882,11.1302,11.1914,11.1111,11.1596,11.2232,11.1619,11.2522,11.3117,11.1032,11.0993,11.1192,11.0397,10.9709,10.9286,10.9863,10.8906,10.779,10.7713,10.7713,10.7713,10.7521,10.6905,10.6405,10.6405,10.6405,10.6405,10.6405,10.5597,10.5405,10.629,10.4097,10.2597,10.2789,10.1212,9.9865,9.9019,9.8134,9.7326,9.648,9.4788,9.348,9.2672,9.1825,9.1325,9.121,9.121,9.0825,9.0094,9.0094,8.9633,11.291,11.5222,11.7021,11.8893,11.6728,11.3093,10.9618,10.3946,0.0,0.0,0.0,8.3633,8.2835,8.7384,9.4567,10.4616,0.0,0.0,0.0,0.0,12.949,0.0,0.0,0.0,0.0,0.0,0.0,0.0,0.0,12.9604,13.0483,13.0712,13.0789,13.0789,12.9986,12.9108,12.8114,12.8114,12.7312,12.5783,12.6509,12.6509,12.5707,12.4102,12.33,12.3185,12.1504,0.0,11.8485,11.8371,11.7377,11.5811,11.4894,11.4474,11.4283,11.2792,11.2105,11.1914,11.1188,11.0882,11.0882,11.0691,11.1302,11.199,11.1799,11.2372,11.3188,11.3789,11.3686,11.3392,11.3117,11.2628,11.1707,11.0211,11.0288,11.041,10.9195,10.8782,10.8482,10.779,10.7713,10.7482,10.6713,10.6521,10.6405,10.6405,10.6405,10.6405,10.6405,10.5597,10.5405,10.629,10.4097,10.2904,10.3597,10.2097,10.0712,9.9904,9.9058,9.8173,9.7326,9.5672,9.4364,9.3518,9.2672,9.1902,9.121,9.121,9.1133,9.0979,9.0979,9.0517,11.581,11.7498,11.8819,12.0508,11.658,11.1079,10.6101,0.0,0.0,0.0,0.0,8.0918,8.001,0.0,0.0,0.0,0.0,0.0,0.0,0.0,0.0,0.0,0.0,0.0,0.0,0.0,0.0,0.0,0.0,13.0407,13.0789,13.0789,13.0789,13.0789,12.9986,12.9184,12.8305,12.7885,12.7006,12.5783,12.6204,12.6204,12.5707,12.4102,12.33,12.3185,12.1007,11.9403,11.8294,11.7798,11.6881,11.5696,11.5314,11.5085,11.5008,11.3786,11.2983,11.2487,11.1684,11.1111,11.0691,11.0691,11.0997,11.1379,11.1914,11.2601,11.3404,11.4311,11.4311,11.3942,11.3583,11.2905,11.21,11.1315,11.1477,11.1416,10.9777,10.9479,10.929,10.8482,10.7982,10.7598,10.7098,10.6713,10.6405,10.6405,10.6405,10.6405,10.6405,10.602,10.5905,10.6405,10.452,10.3405,10.3905,10.2289,10.1096,10.0712,9.9519,9.8596,9.8173,9.6134,9.4595,9.371,9.2903,9.2056,9.121,9.121,9.121,9.121,9.121,9.0979,11.7682,11.9113,12.0104,12.1279,11.6103,10.9029,10.2382,9.5245,0.0,0.0,0.0,7.9169,7.8404,0.0,0.0,0.0,0.0,0.0,0.0,0.0,0.0,0.0,0.0,0.0,0.0,0.0,0.0,0.0,0.0,0.0,13.0789,13.0789,13.0789,13.0789,13.0177,12.9413,12.8305,12.7999,12.7312,12.6089,12.628,12.6204,12.5974,12.4102,12.33,12.3185,12.0587,11.8982,11.818,11.7416,11.6499,11.5696,11.5696,11.5696,11.562,11.4779,11.4091,11.3289,11.2296,11.1608,11.0882,11.0806,11.0691,11.0882,11.1684,11.241,11.3213,11.4206,11.4397,11.4144,11.3712,11.2985,11.2423,11.2302,11.2291,11.1928,11.0517,11.0214,10.9906,10.879,10.829,10.7905,10.7713,10.7098,10.6713,10.6713,10.6521,10.6405,10.6405,10.6405,10.6405,10.6405,10.5097,10.4097,10.3905,10.252,10.152,10.1289,9.9712,9.8788,9.8788,9.6519,9.4788,9.371,9.3095,9.2249,9.121,9.121,9.121,9.121,9.121,9.121,11.8122,11.959,12.0581,11.9994,11.4378,10.7059,9.9611,0.0,0.0,0.0,0.0,0.0,0.0,0.0,0.0,0.0,0.0,0.0,0.0,0.0,0.0,0.0,0.0,0.0,0.0,0.0,0.0,0.0,0.0,0.0,13.0789,13.0789,13.0789,13.0789,13.0712,12.991,12.8305,12.9719,12.9299,12.7006,12.7694,12.7694,12.6891,12.4408,12.33,12.3185,12.0587,11.8982,0.0,11.7416,11.6499,11.5696,11.5696,11.5696,11.562,11.4779,11.4397,11.4206,11.2601,11.1914,11.1799,11.0997,11.0691,11.0882,11.1684,11.2105,11.241,11.3977,11.39,11.3518,11.4168,11.3786,11.2997,11.2423,11.1775,11.1192,11.0193,11.0089,10.9713,10.8098,10.829,10.8598,10.779,10.7598,10.7598,10.7598,10.6905,10.6405,10.6405,10.6405,10.6405,10.6405,10.5597,10.4713,10.3982,10.302,10.2097,10.1404,9.9712,9.8788,9.8788,9.7096,9.5403,9.371,9.3633,9.2787,9.121,9.121,9.121,9.121,9.121,9.121,11.7388,11.959,12.0691,11.9774,11.302,10.5082,9.9262,0.0,0.0,0.0,0.0,7.6532,7.7564,0.0,0.0,0.0,0.0,0.0,0.0,0.0,0.0,0.0,0.0,0.0,0.0,0.0,0.0,0.0,0.0,0.0,13.0789,13.0789,13.0789,13.0789,13.0292,12.949,12.8305,12.8496,12.7808,12.628,12.6586,12.6395,12.5516,12.3988,12.2688,12.1695,11.9708,11.8294,0.0,11.6613,11.6002,11.5696,11.5696,11.5696,11.562,11.4779,11.4474,11.4283,11.3098,11.2716,11.2601,11.1799,11.1493,11.1493,11.1914,11.199,11.2181,11.3404,11.3098,11.2601,11.2907,11.2296,11.1621,11.1493,11.0836,11.0203,10.9995,10.92,10.8513,10.8406,10.829,10.8213,10.8406,10.8406,10.829,10.779,10.7405,10.7021,10.6521,10.6405,10.6405,10.6405,10.5597,10.4789,10.3982,10.3097,10.2212,10.1404,9.9712,9.8788,9.8788,9.7173,9.548,9.371,9.371,9.2864,9.121,9.121,9.121,9.121,9.121,9.121,11.535,11.8489,12.0288,11.948,11.2286,10.3978,0.0,0.0,0.0,7.7035,7.6231,7.6418,7.6647,7.722,7.9016,0.0,0.0,8.6046,9.7738,0.0,0.0,0.0,0.0,0.0,0.0,0.0,0.0,0.0,0.0,0.0,13.0789,13.0789,13.0789,13.0789,13.0292,12.9413,12.8305,12.7999,12.7312,12.6204,12.6204,12.5707,12.479,12.3797,12.2383,12.0702,11.8982,11.7798,0.0,11.6117,11.5696,11.5696,11.5696,11.5696,11.562,11.5085,11.4894,11.4703,11.39,11.3404,11.3098,11.2296,11.1799,11.1608,11.1608,11.1608,11.1799,11.2907,11.2601,11.1914,11.1684,11.1201,11.0831,11.0881,11.0328,10.9572,10.9604,10.8498,10.762,10.8283,10.821,10.8287,10.9098,10.929,10.8983,10.8213,10.8098,10.7713,10.6521,10.679,10.6905,10.6521,10.6097,10.529,10.3982,10.3289,10.252,10.1404,9.9712,9.8788,9.8788,9.7173,9.5595,9.4095,9.3826,9.2979,9.1595,9.1325,9.121,9.121,9.121,9.121,11.1507,11.5993,11.9407,11.8599,11.2396,10.4375,0.0,0.0,0.0,7.5944,7.5132,7.5768,7.6532,7.6723,7.8099,0.0,0.0,0.0,9.8082,10.2209,0.0,0.0,0.0,0.0,0.0,0.0,0.0,0.0,0.0,0.0,13.0789,13.0789,13.0789,13.0789,13.0789,12.9986,12.8305,12.9108,12.8687,12.7082,12.7082,12.6586,12.5707,12.4102,12.2383,12.0702,11.8982,11.7798,0.0,11.6117,11.5696,11.5696,11.5696,11.5696,11.5696,11.5696,11.5696,11.5582,11.4779,11.39,11.3098,11.2296,11.1417,11.0691,11.0691,11.0691,11.1111,11.2716,11.2601,11.1799,11.0882,11.0793,11.0892,11.0892,11.03,10.9589,10.8784,10.7902,10.7295,10.7505,10.8196,10.9008,11.0021,11.0214,10.9906,10.8983,10.8906,10.829,10.6597,10.779,10.8213,10.6597,10.7213,10.6597,10.4097,10.3905,10.3097,10.1404,9.9712,9.8788,9.8788,9.7173,9.5903,9.498,9.4134,9.3287,9.2479,9.1633,9.121,9.121,9.121,9.121,10.2611,10.6912,10.9747,10.6992,10.2273,9.7003,9.1542,0.0,8.0461,7.5687,7.5132,7.5468,7.5361,7.5626,7.7449,0.0,0.0,0.0,0.0,0.0,0.0,0.0,0.0,0.0,0.0,0.0,0.0,0.0,0.0,0.0,13.0789,13.0789,13.0789,13.0789,13.0789,12.9986,12.8305,12.8611,12.7885,12.6204,12.5592,12.4905,12.4102,12.288,12.1198,11.9097,11.8485,11.7492,11.6117,11.5811,11.5696,11.5696,11.5696,11.5696,11.5696,11.5696,11.5696,11.5582,11.4779,11.4283,11.39,11.2487,11.1799,11.1493,11.0882,11.0691,11.0806,11.1302,11.1302,11.0997,11.0806,11.0704,11.078,11.078,10.9683,10.87,10.8528,10.7801,10.7388,10.8101,10.8997,10.9886,11.0776,11.1017,11.0791,10.9906,10.979,10.9406,10.829,10.8598,10.8482,10.7405,10.7521,10.6905,10.4905,10.4212,10.3405,10.2289,10.0096,9.8788,9.8788,9.7173,9.5903,9.5018,9.4711,9.4172,9.3326,9.2479,9.1787,9.121,9.121,9.121,0.0,10.0369,10.3498,10.1369,9.7722,0.0,0.0,0.0,0.0,7.5535,7.4942,7.5095,7.4745,7.5399,7.7067,0.0,0.0,0.0,0.0,0.0,0.0,0.0,0.0,0.0,0.0,0.0,0.0,0.0,0.0,0.0,13.0789,13.0789,13.0789,13.0789,13.0483,12.9681,12.8305,12.7999,12.7006,12.5287,12.479,12.3911,12.2803,12.2192,12.0587,11.8294,11.8294,11.7301,0.0,11.5696,11.5696,11.5696,11.5696,11.5696,11.5696,11.5696,11.5696,11.562,11.5085,11.4512,11.3786,11.2792,11.199,11.1379,11.0882,11.0691,11.0691,11.0691,11.0691,11.0691,11.0691,11.0691,11.0691,11.0691,10.9697,10.8666,10.8804,10.8077,10.7782,10.8806,10.9397,11.0218,11.1115,11.139,11.1094,11.0291,11.0483,11.0291,10.9098,10.9483,10.9406,10.829,10.8213,10.7598,10.6213,10.4982,10.3905,10.2712,10.0789,9.9442,9.8827,9.748,9.6365,9.5518,9.5172,9.4711,9.4172,9.3056,9.2056,9.121,9.121,9.1241,0.0,0.0,0.0,0.0,0.0,0.0,0.0,0.0,0.0,0.0,0.0,7.4745,7.474,7.5742,7.6991,0.0,0.0,0.0,0.0,0.0,0.0,0.0,0.0,0.0,0.0,0.0,0.0,0.0,0.0,0.0,13.0789,13.0789,13.0789,13.0712,12.991,12.9108,12.8305,12.7388,12.6204,12.4522,12.4408,12.3491,12.1886,12.1886,12.0511,0.0,11.818,11.7301,11.5696,11.5696,11.5696,11.5696,11.5696,11.5696,11.5696,11.5696,11.5696,11.5696,11.5582,11.4512,11.3213,11.3098,11.199,11.0691,11.0691,11.0691,11.0691,11.0691,11.0691,11.0691,11.0691,11.0691,11.0691,11.0691,11.0003,10.9392,10.9392,10.8819,10.8525,10.9389,10.9591,11.0032,11.1108,11.1307,11.1083,11.0406,11.0983,11.0906,10.929,11.0521,11.0906,10.9213,10.8983,10.8598,10.779,10.6097,10.4405,10.2789,10.1789,10.0596,9.8942,9.8057,9.7211,9.6403,9.5518,9.5018,9.4903,9.3326,9.2095,9.1206,9.1206,9.1329,7.857,0.0,8.5504,8.4142,8.3548,0.0,0.0,0.0,0.0,0.0,0.0,7.5247,7.5192,7.5471,0.0,0.0,0.0,0.0,0.0,0.0,0.0,0.0,0.0,0.0,0.0,0.0,0.0,0.0,0.0,13.1515,13.0789,13.0789,13.0483,12.991,12.9108,12.8496,12.8305,12.6815,12.5592,12.4522,12.3185,12.2115,12.1084,12.0396,11.9097,11.7301,11.7301,11.669,11.5696,11.5696,11.5696,11.5696,11.5696,11.5696,11.5696,11.5696,11.5696,11.5505,11.4206,11.3518,11.3022,11.1684,11.0997,11.0691,11.0691,11.0691,11.0691,11.0691,11.0691,11.0691,11.0691,11.0691,11.0691,11.0691,11.0003,10.9392,10.9392,10.9315,10.9201,10.9404,11.0066,11.0711,11.1085,11.1224,11.1314,11.1214,11.1406,11.1406,11.0906,11.1214,11.1098,10.9983,10.9906,10.929,10.779,10.6097,10.4713,10.3712,10.2212,10.0789,9.9827,9.8942,9.8096,9.725,9.6403,9.5326,9.398,9.3595,9.2734,9.1445,9.1445,9.1577,7.3106,7.6656,7.9859,7.9395,7.9538,7.9491,0.0,0.0,0.0,0.0,0.0,0.0,7.487,0.0,0.0,0.0,0.0,0.0,0.0,0.0,0.0,0.0,0.0,0.0,0.0,0.0,0.0,0.0,0.0,13.1285,13.0789,13.0789,13.0407,12.9604,12.8382,12.7617,12.7197,12.5898,12.4599,12.33,12.2383,12.158,12.0816,11.9899,11.8791,11.7607,11.7186,11.6499,11.5696,11.5696,11.5696,11.5696,11.5696,11.5696,11.5696,11.5314,11.5085,11.5008,11.3709,11.3022,11.241,11.1111,11.0691,11.0691,11.0691,11.0691,11.0691,11.0691,11.0691,11.0691,11.0691,11.0691,11.0691,11.0691,11.0309,11.0003,11.0003,11.0003,11.0003,11.0003,11.0398,11.0881,11.1028,11.1085,11.13,11.1396,11.1478,11.1522,11.1522,11.1522,11.1291,11.0791,11.0406,10.9713,10.8406,10.6982,10.5597,10.3982,10.2981,10.1789,10.0173,9.925,9.8211,9.698,9.6519,9.5441,9.371,9.371,9.2922,9.1522,9.1522,9.1694,7.143,7.4833,7.8414,7.9064,7.9152,7.8912,0.0,0.0,0.0,0.0,0.0,0.0,0.0,0.0,0.0,0.0,0.0,0.0,0.0,0.0,0.0,0.0,0.0,0.0,0.0,0.0,0.0,0.0,0.0,13.0903,13.0789,13.0712,13.0216,12.9413,12.7808,12.6395,12.5401,12.4599,12.33,12.181,12.181,12.1313,12.0205,11.9594,11.8791,11.7874,0.0,0.0,11.5696,11.5696,11.5696,11.5696,11.5696,11.562,11.5391,11.4779,11.4397,11.4206,11.3289,11.2487,11.1684,11.0882,11.0691,11.0691,11.0691,11.0691,11.0691,11.0691,11.0691,11.0691,11.0691,11.0691,11.0691,11.0691,11.0691,11.0691,11.0691,11.0691,11.0691,11.0691,11.0691,11.0704,11.0892,11.0989,11.1208,11.1307,11.1396,11.1522,11.1522,11.1522,11.1522,11.1522,11.0791,10.9983,10.8983,10.829,10.679,10.4212,10.3982,10.2789,10.0404,9.9327,9.8134,9.6711,9.6442,9.5518,9.3903,9.382,9.3059,9.1732,9.1631,9.1838,7.4069,7.618,7.6722,7.5304,7.5492,7.5764,0.0,0.0,0.0,0.0,0.0,0.0,0.0,0.0,0.0,0.0,0.0,0.0,0.0,0.0,0.0,0.0,0.0,0.0,0.0,0.0,0.0,0.0,0.0,13.1591,13.0789,13.0177,12.9413,12.8496,12.6891,12.5287,12.3682,12.2803,12.1886,12.1007,12.1007,11.9785,11.7607,11.818,11.7607,11.6117,0.0,11.5811,11.5696,11.5696,11.5696,11.5696,11.5696,11.5314,11.4703,11.4512,11.4015,11.3289,11.2487,11.1608,11.0882,11.0691,11.0691,11.0691,11.0691,11.0691,11.0691,11.0691,11.0691,11.0691,11.0691,11.0691,11.0691,11.0691,11.0691,11.0691,11.0691,11.0691,11.0691,11.0691,11.0691,11.0831,11.0989,11.1123,11.1216,11.1396,11.1522,11.1522,11.1522,11.1522,11.1522,11.1522,11.1406,11.0598,10.8983,10.879,10.7598,10.5097,10.4289,10.3097,10.1212,9.9635,9.8673,9.8404,9.7019,9.5826,9.4788,9.4287,9.3656,9.2821,9.2325,9.2224,7.1692,7.3892,7.5652,7.557,7.6864,7.7737,0.0,0.0,0.0,0.0,0.0,0.0,0.0,0.0,0.0,0.0,0.0,0.0,0.0,0.0,0.0,0.0,0.0,0.0,0.0,0.0,0.0,0.0,0.0,0.0,13.0789,12.9986,12.9184,12.8305,12.6204,12.4484,12.33,12.2001,12.0893,12.009,12.009,11.9288,11.7683,11.7607,11.7186,11.6422,0.0,11.5696,11.5696,11.5696,11.5391,11.5085,11.5085,11.4512,11.3709,11.3289,11.2601,11.1799,11.1417,11.0997,11.0691,11.0691,11.0691,11.0691,11.0691,11.0691,11.0691,11.0691,11.0691,11.0691,11.0691,11.0691,11.0691,11.0691,11.0691,11.0691,11.0691,11.0691,11.0691,11.0691,11.0691,11.0704,11.0881,11.0989,11.1093,11.13,11.1396,11.1522,11.1522,11.1522,11.1522,11.1522,11.1522,11.1021,10.9713,10.9213,10.7598,10.4597,10.3712,10.2404,10.0712,9.9904,9.9058,9.8134,9.7326,9.6358,9.5175,9.4906,9.4486,9.3994,9.3258,9.3014,7.0692,7.282,7.5238,7.6642,0.0,0.0,0.0,0.0,0.0,0.0,0.0,0.0,0.0,0.0,0.0,0.0,0.0,0.0,0.0,0.0,0.0,0.0,0.0,0.0,0.0,0.0,0.0,0.0,0.0,13.0712,13.0483,12.9681,12.8802,12.7694,12.5401,12.3797,12.2994,12.1313,12.009,11.9211,11.9403,11.8906,11.7683,11.7186,11.6919,11.669,11.6002,11.5582,11.5391,11.562,11.5085,11.4206,11.4397,11.39,11.2792,11.199,11.1302,11.0691,11.05,11.0385,11.0385,11.0385,11.0385,11.0385,11.0614,11.0691,11.0691,11.0691,11.0691,11.0691,11.0691,11.0691,11.0691,11.0691,11.0691,11.0691,11.0691,11.0691,11.0691,11.0691,11.0691,11.0691,11.0704,11.0903,11.1085,11.1093,11.1314,11.1522,11.1522,11.1522,11.1522,11.1522,11.1522,11.1098,10.9983,10.9098,10.729,10.4405,10.2981,10.1712,10.0404,10.0212,9.9365,9.7827,9.7596,9.6856,9.554,9.5419,9.5243,9.4996,9.4251,9.3805,7.5288,7.5973,7.5827,7.6972,0.0,0.0,0.0,0.0,0.0,0.0,0.0,0.0,0.0,0.0,0.0,0.0,0.0,0.0,0.0,0.0,0.0,0.0,0.0,0.0,0.0,0.0,0.0,0.0,13.0789,13.0483,12.9681,12.8916,12.7694,12.6013,12.4293,12.2994,12.2077,12.0396,11.9211,11.8409,11.9097,11.8218,11.5887,11.669,11.6613,11.5811,11.5696,11.5314,11.4588,11.5391,11.4703,11.3404,11.4206,11.348,11.199,11.1111,11.0806,11.0576,10.9812,10.9506,10.9506,10.9506,10.9506,10.9621,11.05,11.0691,11.0691,11.0691,11.0691,11.0691,11.0691,11.0691,11.0691,11.0691,11.0691,11.0691,11.0691,11.0691,11.0691,11.0691,11.0691,11.0704,11.0881,11.0989,11.1093,11.1262,11.1396,11.1522,11.1522,11.1522,11.1522,11.1522,11.1522,11.0791,10.9098,10.829,10.6982,10.5097,10.2712,10.1289,10.1212,10.0481,9.9635,9.8711,9.7904,9.7057,9.6209,9.5841,9.5661,9.5628,9.5198,9.4461,7.2317,7.409,7.5866,0.0,0.0,0.0,0.0,0.0,0.0,0.0,0.0,0.0,0.0,0.0,0.0,0.0,0.0,0.0,0.0,0.0,0.0,0.0,0.0,0.0,0.0,0.0,0.0,13.0101,13.0101,12.949,12.8076,12.7197,12.6204,12.5019,12.3414,12.2115,12.1313,12.009,11.8791,11.7492,11.7798,11.7186,11.5696,11.6002,11.6002,11.5696,11.5696,11.52,11.4512,11.4779,11.4015,11.241,11.2181,11.1684,11.1188,11.0806,11.0385,10.9812,10.9506,10.9392,10.9392,10.9392,10.9812,11.0309,11.0576,11.0691,11.0691,11.0691,11.0691,11.0691,11.0691,11.0691,11.0691,11.0691,11.0691,11.0691,11.0691,11.0691,11.0691,11.0691,11.0691,11.0691,11.078,11.0979,11.1123,11.1076,11.1307,11.1478,11.1396,11.1401,11.1522,11.1522,11.1021,11.0214,10.8983,10.7713,10.6405,10.5213,10.4212,10.3212,10.2212,10.1789,10.0981,9.9635,9.875,9.7976,9.7292,9.6799,9.6564,9.6659,9.6168,9.5707,7.0934,7.2573,0.0,0.0,0.0,0.0,0.0,0.0,0.0,0.0,0.0,0.0,0.0,0.0,0.0,0.0,0.0,0.0,0.0,0.0,0.0,0.0,0.0,0.0,0.0,0.0,0.0,12.9604,12.9108,12.8191,12.6777,12.5898,12.479,12.3414,12.2192,12.1084,12.0014,11.9097,11.8103,11.6995,11.669,11.6308,11.5696,11.5391,11.5314,11.5314,11.5008,11.4512,11.3709,11.3977,11.3289,11.1914,11.0997,11.0691,11.0691,11.0691,11.0309,10.9697,10.9201,10.9201,10.9392,10.9124,10.9621,11.0309,11.0309,11.05,11.0614,11.0385,11.05,11.0691,11.0691,11.0691,11.0691,11.0691,11.0691,11.0691,11.0691,11.0691,11.0691,11.0691,11.0691,11.0691,11.0691,11.0892,11.1114,11.0892,11.1224,11.1517,11.1269,11.1396,11.1522,11.1522,11.0983,11.0098,10.8983,10.779,10.6713,10.5597,10.529,10.4289,10.2712,10.2289,10.1481,10.0096,9.925,9.8474,9.7787,9.7264,9.709,9.7182,9.6909,9.6587,7.2532,0.0,0.0,0.0,0.0,0.0,0.0,0.0,0.0,0.0,0.0,0.0,0.0,0.0,0.0,0.0,0.0,0.0,0.0,0.0,0.0,0.0,0.0,0.0,0.0,0.0,12.9604,12.9604,12.7999,12.67,12.5783,12.4905,12.33,12.0893,12.0816,12.0014,11.8294,11.7416,11.6995,11.6995,11.6117,11.5696,11.5696,11.4894,11.4474,11.4474,11.3595,11.2716,11.2105,11.2907,11.2716,11.1914,11.0997,11.0691,11.0691,11.0691,11.0691,11.0385,10.878,10.8704,10.9315,10.8513,10.8704,10.9392,10.9392,11.0003,11.05,10.9621,11.0003,11.0691,11.0691,11.0691,11.0691,11.0691,11.0691,11.0691,11.0691,11.0691,11.0691,11.0691,11.0691,11.0691,11.0691,11.0892,11.1114,11.0892,11.1224,11.1517,11.1269,11.1396,11.1522,11.1522,11.1522,11.0791,10.8983,10.8906,10.8213,10.6521,10.5597,10.4289,10.2712,10.1789,10.0904,10.0096,9.925,9.8404,9.7519,9.7197,9.7005,9.7027,9.7499,9.698,7.1268,0.0,0.0,0.0,0.0,0.0,0.0,0.0,0.0,0.0,0.0,0.0,0.0,0.0,0.0,0.0,0.0,0.0,0.0,0.0,0.0,0.0,0.0,0.0,12.991,12.8687,12.7579,12.7006,12.5898,12.4408,12.2383,12.2001,12.1007,11.9097,11.8982,11.8485,11.7416,11.711,11.6422,11.52,11.5008,11.52,11.5696,11.4894,11.4474,11.4474,11.3595,11.2716,11.199,11.1608,11.1302,11.1111,11.0806,11.0691,11.0614,11.0003,10.9812,10.9621,10.8589,10.8704,10.9315,10.8513,10.9201,11.0118,10.8895,10.9124,10.9621,10.8819,10.8704,10.9086,10.9621,10.9812,10.9889,11.0576,11.0691,11.0691,11.0691,11.0691,11.0691,11.0691,11.0691,11.0691,11.0691,11.0804,11.0892,11.0831,11.1085,11.1435,11.1401,11.1478,11.1522,11.1522,11.0406,10.9483,10.8906,10.779,10.6905,10.6405,10.5097,10.3982,10.3482,10.2712,10.1789,10.0981,10.0096,9.9596,9.9327,9.8772,9.8246,9.7859,9.7985,9.7593,0.0,0.0,0.0,0.0,0.0,0.0,0.0,0.0,0.0,0.0,0.0,0.0,0.0,0.0,0.0,0.0,0.0,0.0,0.0,0.0,12.9299,12.9719,12.8611,12.7999,12.8573,12.7388,12.6204,12.5287,12.4217,12.2688,12.0893,12.0205,11.9211,11.7798,11.7798,11.7186,11.6002,11.6002,11.5314,11.4015,11.4015,11.4091,11.4206,11.3709,11.348,11.3404,11.2219,11.1417,11.092,11.008,10.9889,11.0194,11.0194,11.0194,11.0118,10.9621,10.9201,10.8819,10.8016,10.8207,10.8819,10.8398,10.8895,10.9506,10.8513,10.8513,10.8819,10.7902,10.8207,10.8819,10.9315,10.9697,11.0003,11.0576,11.0691,11.0691,11.0691,11.0691,11.0691,11.0691,11.0691,11.0691,11.0691,11.0793,11.0881,11.0691,11.0989,11.1307,11.1478,11.1522,11.1522,11.1522,11.0598,10.979,10.9406,10.8213,10.729,10.6905,10.529,10.4212,10.3905,10.2712,10.1789,10.1289,10.0481,10.0096,10.0096,9.9448,9.8785,9.8209,9.8558,9.8158,0.0,0.0,0.0,0.0,0.0,0.0,0.0,0.0,0.0,0.0,0.0,0.0,0.0,0.0,0.0,0.0,0.0,0.0,0.0,0.0,12.8114,12.8114,12.7388,12.6815,12.6777,12.5898,12.4981,12.4102,12.2612,12.1313,12.0511,11.8982,11.7683,11.6804,11.6804,11.6002,11.4397,11.4397,11.39,11.3022,11.2907,11.241,11.1493,11.1799,11.1799,11.1493,10.9927,10.9201,10.9124,10.8513,10.8589,10.9315,10.9315,10.9315,10.9315,10.9201,10.8819,10.8093,10.7214,10.7481,10.8207,10.8093,10.8093,10.8207,10.8016,10.8093,10.8016,10.7099,10.8093,10.9315,10.9392,11.0003,11.0576,11.0691,11.0691,11.0691,11.0691,11.0691,11.0691,11.0691,11.0691,11.0691,11.0691,11.0793,11.0804,11.078,11.0979,11.1178,11.1478,11.1522,11.1522,11.1522,11.1406,11.1098,11.0291,10.9406,10.8598,10.779,10.6097,10.4905,10.3982,10.2404,10.152,10.1289,10.0712,10.0289,10.0173,9.9608,9.8951,9.8279,9.9071,9.8527,0.0,0.0,0.0,0.0,0.0,0.0,0.0,0.0,0.0,0.0,0.0,0.0,0.0,0.0,0.0,0.0,0.0,0.0,0.0,0.0,0.0,12.628,12.5592,12.479,12.4217,12.2803,12.1504,12.0587,11.9708,11.8677,11.7912,11.7492,11.6613,11.5085,11.5008,11.4512,11.3518,11.3518,11.2716,11.1188,11.05,10.9392,10.8093,11.008,10.9889,10.7978,10.8284,10.8093,10.7481,10.8016,10.8284,10.8513,10.8513,10.8513,10.8398,10.7711,10.7787,10.8093,10.7214,10.7481,10.8093,10.7405,10.7596,10.8016,10.6603,10.7214,10.8016,10.7099,10.7711,10.8589,10.9201,10.9506,10.9889,11.05,11.0691,11.0691,11.0691,11.0691,11.0691,11.0691,11.0691,11.0691,11.0691,11.0704,11.0793,11.1028,11.1208,11.1269,11.1478,11.1522,11.1522,11.1522,11.0906,11.0406,11.0214,10.9406,10.8598,10.779,10.6713,10.5713,10.4905,10.3905,10.2712,10.1289,10.1789,10.1712,10.1019,10.0904,10.0231,9.8922,9.8946,9.8135,0.0,0.0,0.0,0.0,0.0,0.0,0.0,0.0,0.0,0.0,0.0,0.0,0.0,0.0,0.0,0.0,0.0,0.0,0.0,0.0,0.0,12.4637,12.3797,12.2994,12.2192,12.1313,12.032,11.8982,11.8485,11.7912,11.6995,11.6613,11.5811,11.4512,11.4474,11.39,11.2601,11.2219,11.1188,10.9506,10.8589,10.729,10.58,10.7481,10.7596,10.6297,10.6412,10.6106,10.5686,10.6182,10.6412,10.6488,10.729,10.729,10.6985,10.6908,10.6908,10.6908,10.6488,10.6603,10.6985,10.6908,10.6908,10.6908,10.6412,10.6603,10.6908,10.6488,10.7214,10.8284,10.8704,10.9392,11.0118,11.0576,11.0691,11.0691,11.0691,11.0691,11.0691,11.0691,11.0691,11.0691,11.0691,11.078,11.0881,11.1076,11.1178,11.1314,11.1522,11.1522,11.1522,11.1522,11.1098,11.0791,11.0791,10.9598,10.8713,10.829,10.7098,10.579,10.4597,10.4905,10.4097,10.202,10.2404,10.2212,10.1289,10.1289,10.0784,9.9731,9.9936,9.9008,0.0,0.0,0.0,0.0,0.0,0.0,0.0,0.0,0.0,0.0,0.0,0.0,0.0,0.0,0.0,0.0,0.0,0.0,0.0,0.0,12.209,12.2593,12.2001,12.1198,12.0205,12.009,11.9594,11.818,11.7912,11.7607,11.6995,11.6002,11.5085,11.4283,11.3977,11.3098,11.1608,11.05,10.9277,10.7787,10.6603,10.5189,10.3584,10.431,10.4807,10.4998,10.4386,10.4119,10.4004,10.4119,10.4195,10.431,10.5915,10.5991,10.5418,10.6297,10.6182,10.5495,10.5609,10.5724,10.58,10.6488,10.622,10.58,10.6488,10.6297,10.5915,10.5915,10.7099,10.8398,10.8398,10.9506,11.0691,11.0691,11.0691,11.0691,11.0691,11.0576,11.05,11.0691,11.0691,11.0691,11.05,11.0728,11.0979,11.1123,11.1224,11.1435,11.1522,11.1522,11.1522,11.1522,11.1522,11.1522,11.1522,11.0021,10.9098,10.8906,10.7521,10.5905,10.4405,10.5713,10.529,10.2904,10.2789,10.2404,10.152,10.1404,10.0978,10.0369,10.0901,10.0013,0.0,0.0,0.0,0.0,0.0,0.0,0.0,0.0,0.0,0.0,0.0,0.0,0.0,0.0,0.0,0.0,11.8631,11.9406,11.8806,11.9987,12.0665,12.009,11.9899,11.9211,11.7721,11.7492,11.7416,11.7186,11.6499,11.6308,11.6995,11.5505,11.4283,11.3404,11.199,11.0691,10.9812,10.8207,10.6908,10.5991,10.3699,10.1712,10.0107,10.0183,10.0986,10.24,10.3087,10.2896,10.2323,10.3011,10.3393,10.3508,10.4386,10.4195,10.3699,10.5303,10.5303,10.4692,10.5418,10.5724,10.5724,10.58,10.58,10.5724,10.58,10.6297,10.6679,10.6679,10.7902,10.9201,10.9201,11.0003,11.0691,11.0691,11.0691,11.0691,11.0691,11.0118,10.9812,11.0576,11.0691,11.05,10.9697,11.0394,11.1123,11.1085,11.1307,11.1478,11.1522,11.1522,11.1522,11.1522,11.1522,11.1522,11.1522,11.0598,10.9713,10.8906,10.8021,10.7098,10.6097,10.629,10.5597,10.3789,10.3712,10.3289,10.2404,10.1712,10.0904,10.0095,10.0211,9.9711,0.0,0.0,0.0,0.0,0.0,0.0,0.0,0.0,0.0,0.0,0.0,0.0,0.0,11.592,11.6213,11.5296,11.6513,11.7412,11.6967,11.7983,11.8773,11.8774,11.9211,11.8982,11.7798,11.7683,11.7492,11.6995,11.6193,11.5887,11.6308,11.5085,11.39,11.2601,11.092,10.9315,10.8016,10.5915,10.389,10.2209,10.0489,9.9381,9.8655,9.8655,9.9343,10.0489,10.0909,10.11,10.1215,10.2094,10.2209,10.1903,10.3202,10.3202,10.2591,10.3813,10.431,10.4501,10.4807,10.5303,10.5724,10.5724,10.5724,10.5724,10.5724,10.5915,10.622,10.622,10.7405,10.8704,10.8704,10.9697,11.0576,11.0118,11.0003,10.9812,10.9392,10.9392,10.9506,10.9889,11.0385,11.0576,11.0194,11.0662,11.1085,11.1085,11.1269,11.1522,11.1522,11.1522,11.1522,11.1522,11.1522,11.1522,11.1522,11.0291,10.929,10.8906,10.7713,10.6597,10.5713,10.6097,10.5597,10.3905,10.3905,10.3212,10.1904,10.152,10.1096,10.0789,10.0789,10.0289,0.0,0.0,0.0,0.0,0.0,0.0,0.0,0.0,0.0,0.0,0.0,11.28,11.2983,11.4305,11.5002,11.3791,11.4693,11.575,11.5917,11.6394,11.7216,11.8201,11.86,11.8485,11.7683,11.7798,11.7492,11.6422,11.5811,11.5391,11.5391,11.4206,11.2907,11.1417,10.9506,10.7787,10.6297,10.3813,10.1406,9.9075,9.8426,9.8006,9.7815,9.7815,9.8158,9.877,9.8961,9.9534,10.0298,10.0986,10.0986,10.0795,10.2285,10.2285,10.1712,10.2782,10.3393,10.3813,10.4004,10.4501,10.5112,10.5112,10.5112,10.5112,10.5112,10.5189,10.5418,10.5418,10.6603,10.7902,10.8093,10.9086,11.0003,10.9506,10.9201,10.8895,10.8016,10.8704,10.9315,10.8819,10.9812,11.0614,11.0385,11.0777,11.1085,11.1085,11.1269,11.1522,11.1522,11.1522,11.1522,11.1522,11.1522,11.1522,11.1522,10.9906,10.8906,10.8906,10.729,10.6097,10.5482,10.6097,10.5713,10.4212,10.4212,10.3405,10.1597,10.1597,10.152,10.1289,10.1404,10.1094,0.0,0.0,0.0,0.0,0.0,0.0,0.0,0.0,0.0,0.0,11.2506,11.3093,11.1588,11.2616,11.3681,11.357,11.4286,11.5116,11.5842,11.5865,11.6494,11.8087,11.7607,11.6804,11.5887,11.6613,11.6384,11.4779,11.4588,11.4588,11.4588,11.2181,11.05,10.9621,10.7214,10.5495,10.4501,10.2018,9.9878,9.8197,9.812,9.77,9.6974,9.6974,9.6974,9.7089,9.7853,9.8655,9.9458,9.9496,9.9954,10.0718,10.1597,10.1406,10.0909,10.2591,10.2705,10.2094,10.3011,10.3278,10.3278,10.3278,10.3278,10.3278,10.3278,10.389,10.4501,10.4501,10.5686,10.7176,10.8016,10.8284,10.8513,10.9201,10.8819,10.8016,10.7176,10.8207,10.8895,10.729,10.901,11.0385,10.9621,11.0394,11.1085,11.1085,11.1269,11.1522,11.1522,11.1522,11.1522,11.1522,11.1522,11.1522,11.1522,10.9906,10.8906,10.8906,10.729,10.6405,10.629,10.6405,10.602,10.5097,10.4982,10.4212,10.252,10.252,10.2097,10.1289,10.1577,10.1703,0.0,0.0,0.0,0.0,0.0,0.0,0.0,0.0,10.8505,10.8799,11.0193,11.1405,11.1882,11.3681,11.4488,11.2396,11.3584,11.4467,11.3667,11.4876,11.6105,11.6729,11.7384,11.7492,11.6613,11.6308,11.5696,11.4588,11.348,11.2907,11.2907,11.05,10.8704,10.7787,10.538,10.2896,10.0413,9.8961,9.7623,9.6515,9.6515,9.6324,9.6057,9.6057,9.6057,9.6095,9.6363,9.728,9.8579,9.8579,9.8732,9.9037,9.9343,9.961,9.9916,10.0489,10.1215,10.1903,10.2285,10.2705,10.3202,10.3202,10.3202,10.3278,10.3813,10.4195,10.4501,10.5112,10.5991,10.6985,10.729,10.7787,10.8093,10.7902,10.7214,10.6717,10.6908,10.8207,10.9124,10.8016,10.9315,11.0627,11.041,11.0836,11.1132,11.1178,11.1435,11.1522,11.1522,11.1522,11.1522,11.1522,11.1522,11.1291,11.0714,10.9598,10.8713,10.8213,10.7021,10.6405,10.6405,10.6405,10.602,10.5097,10.5597,10.4789,10.2597,10.2597,10.2174,10.1577,10.171,10.1817,7.1101,0.0,0.0,0.0,0.0,0.0,9.8668,0.0,10.4577,10.6706,10.8505,11.001,11.1295,11.3313,11.4084,11.1992,11.27,11.3132,11.2078,11.3477,11.4778,11.4995,11.6203,11.669,11.5811,11.52,11.4283,11.2907,11.1799,0.0,11.0691,10.8589,10.6603,10.4807,10.2896,10.0604,9.7738,9.7165,9.6477,9.5598,9.5598,9.5598,9.5598,9.5598,9.5598,9.5598,9.5598,9.6401,9.77,9.77,9.7853,9.812,9.812,9.8617,9.9381,9.9381,10.0298,10.1521,10.1521,10.1788,10.2285,10.2285,10.2285,10.2514,10.3317,10.3813,10.4195,10.4998,10.5915,10.6603,10.6794,10.729,10.7596,10.6985,10.6488,10.6297,10.7214,10.8207,10.8895,10.8704,10.9825,11.0793,11.093,11.0999,11.1216,11.1307,11.1396,11.1522,11.1522,11.1522,11.1522,11.1522,11.1522,11.1098,11.0291,10.9406,10.8598,10.779,10.6905,10.6405,10.6405,10.6405,10.6097,10.5482,10.6097,10.5331,10.3096,10.3096,10.2585,10.1696,10.1902,10.2094,0.0,0.0,0.0,0.0,0.0,0.0,9.6428,0.0,9.8264,10.4798,10.7404,10.8799,10.979,11.1295,11.2286,11.2286,11.1698,11.1042,11.0996,11.173,11.248,11.3165,11.3974,11.413,11.3198,11.3136,11.2028,10.9506,10.9315,10.8895,10.8093,10.6488,10.4004,10.0604,9.9763,9.8541,9.6898,9.6859,9.6401,9.556,9.5522,9.5522,9.556,9.556,9.556,9.5522,9.556,9.6057,9.6821,9.6859,9.7318,9.8044,9.8044,9.8579,9.9343,9.9343,9.984,10.0489,10.0489,10.0489,10.0604,10.0604,10.0604,10.0795,10.1597,10.2514,10.3278,10.4195,10.4998,10.58,10.6679,10.6908,10.6908,10.6908,10.6908,10.7099,10.8016,10.8207,10.8398,10.9201,11.0181,11.0892,11.0892,11.1132,11.1307,11.1307,11.1396,11.1522,11.1522,11.1522,11.1522,11.1522,11.1522,11.1098,11.0214,10.9406,10.8482,10.7713,10.6905,10.6405,10.6405,10.6405,10.6405,10.6405,10.6405,10.5717,10.421,10.421,10.3398,10.1688,10.2323,10.2608,6.7687,0.0,0.0,0.0,0.0,0.0,0.0,0.0,9.1877,9.9548,10.1494,10.3513,10.8982,10.99,11.001,11.0597,11.0487,11.0097,10.9508,11.0588,11.158,11.1767,11.2419,11.2413,11.1615,11.0885,10.9697,0.0,10.7099,10.6412,10.5495,10.3317,10.1024,9.8884,9.8006,9.705,9.5981,9.5331,9.4911,9.472,9.4108,9.4108,9.472,9.472,9.4376,9.3841,9.5064,9.5407,9.514,9.5713,9.6095,9.6286,9.6286,9.6821,9.7585,9.7585,9.812,9.8808,9.8808,9.919,9.9725,9.9725,10.0107,10.0795,10.1597,10.2094,10.2591,10.4004,10.4616,10.4998,10.58,10.5991,10.6182,10.6794,10.6908,10.729,10.8819,10.8678,10.8623,10.9427,10.9792,11.0271,11.1093,11.0686,11.0622,11.1325,11.1478,11.1522,11.1522,11.1522,11.1522,11.1522,11.0906,11.0214,10.929,10.8482,10.7713,10.679,10.6521,10.6405,10.6405,10.6405,10.6405,10.6405,10.6405,10.5717,10.421,10.479,10.4217,10.2285,10.2595,10.2685,6.7871,6.8788,7.0367,0.0,0.0,0.0,8.1929,8.3618,8.6481,9.529,9.7383,9.9328,10.4908,10.5789,10.5899,10.6376,10.6706,10.7294,10.8175,10.9285,10.9939,10.9603,11.0115,11.0132,10.9333,10.8689,10.7711,10.5991,10.5418,10.4616,10.3393,10.1292,9.9649,9.8655,9.7509,9.6477,9.5598,9.4758,9.4185,9.3841,9.3344,9.3382,9.3879,9.3879,9.3573,9.3153,9.4146,9.4299,9.3917,9.4758,9.5293,9.5598,9.5598,9.6133,9.6898,9.6898,9.7432,9.812,9.812,9.8655,9.9381,9.9381,9.9954,10.0795,10.1597,10.1903,10.2209,10.3508,10.4119,10.4616,10.5495,10.5724,10.5915,10.6679,10.6919,10.7427,10.8727,10.8672,10.8691,10.9476,10.9504,10.9489,11.0117,11.0122,11.0281,11.0906,11.1291,11.1522,11.1522,11.1522,11.1406,11.0983,11.0483,10.9713,10.8482,10.7982,10.729,10.6521,10.6405,10.6405,10.6405,10.6405,10.6405,10.6405,10.6488,10.6117,10.5088,10.5098,10.4293,10.262,10.2685,10.2789,6.8458,6.9816,7.2055,0.0,0.0,0.0,8.1562,8.1379,8.2223,9.1326,9.3859,9.5511,9.8998,10.0393,10.087,10.0576,10.1604,10.3513,10.6706,10.7699,10.7717,10.7006,10.7394,10.7392,10.6591,10.6515,10.58,10.4195,10.4004,10.3317,10.1712,10.0107,9.919,9.9114,9.7509,9.621,9.5331,9.4529,9.3726,9.2962,9.2886,9.2886,9.2962,9.2962,9.2924,9.2847,9.3038,9.3038,9.3038,9.3917,9.472,9.5484,9.556,9.6057,9.6745,9.6745,9.7203,9.7815,9.7815,9.8388,9.9114,9.9114,9.9725,10.0604,10.1406,10.1712,10.1903,10.2782,10.3699,10.4616,10.5418,10.5609,10.5915,10.6679,10.6968,10.7294,10.8174,10.8477,10.8683,10.9304,10.8907,10.858,10.8696,10.9397,10.9983,11.0214,11.0906,11.1406,11.1406,11.1406,11.1021,11.0098,10.9983,10.929,10.779,10.7598,10.7213,10.6405,10.6405,10.6405,10.6405,10.6405,10.6367,10.6409,10.6469,10.6408,10.5991,10.4891,10.3915,10.2906,10.2789,10.2789,0.0,0.0,0.0,0.0,0.0,0.0,7.5212,7.69,8.0277,8.5416,8.7142,8.9271,9.452,9.6649,9.7016,9.5034,9.8117,10.1677,10.4284,10.4721,10.4698,10.4587,10.4516,10.443,10.4204,10.403,10.3508,10.2514,10.1712,10.0909,9.9954,9.8923,9.8082,9.7394,9.5751,9.449,9.3612,9.2733,9.2236,9.2045,9.1395,9.1434,9.2045,9.2045,9.1701,9.1166,9.2504,9.2695,9.2121,9.3,9.3879,9.472,9.5331,9.5713,9.5866,9.5866,9.5942,9.6095,9.6095,9.6668,9.7394,9.7394,9.8426,9.9649,9.984,10.0298,10.1024,10.1903,10.3202,10.4386,10.4616,10.5189,10.5877,10.6825,10.7102,10.7418,10.8316,10.8108,10.7768,10.7877,10.7894,10.8094,10.871,10.8521,10.8598,10.9983,11.0291,11.0483,11.0483,11.0483,11.0098,10.9213,10.8598,10.8098,10.7713,10.7098,10.6597,10.6405,10.6405,10.6405,10.6405,10.6405,10.6488,10.6701,10.5823,10.5008,10.4182,10.3505,10.3417,10.3804,10.3101,10.2789,0.0,0.0,0.0,7.3707,0.0,0.0,0.0,7.5542,7.7047,8.2333,8.2774,8.3691,8.8573,8.9784,9.0335,9.1143,9.3639,9.6465,9.9328,10.1449,10.2603,10.2603,10.2819,10.2743,10.2192,10.2775,10.2782,10.2018,10.0718,9.984,9.9419,9.8197,9.7318,9.6898,9.5293,9.3994,9.3115,9.2656,9.2045,9.1204,9.1204,9.1204,9.1204,9.1204,9.0975,9.0669,9.151,9.1625,9.1281,9.2121,9.2695,9.3229,9.449,9.5255,9.5598,9.5598,9.5598,9.5598,9.5598,9.6172,9.6898,9.6898,9.7738,9.877,9.877,9.9343,10.0298,10.1521,10.2514,10.3317,10.3699,10.4511,10.5285,10.5724,10.6315,10.679,10.7302,10.7121,10.7014,10.7014,10.7018,10.7213,10.7598,10.7713,10.7982,10.879,10.929,10.9598,10.9598,10.9598,10.9213,10.8406,10.7905,10.7521,10.7098,10.6713,10.6405,10.6405,10.6405,10.6405,10.6405,10.6488,10.6575,10.6575,10.5106,10.419,10.392,10.3192,10.2984,10.3413,10.2984,10.2789,0.0,0.0,0.0,0.0,0.0,7.5395,0.0,0.0,0.0,7.936,7.914,0.0,0.0,0.0,0.0,8.6371,0.0,0.0,0.0,9.632,0.0,10.0009,10.0394,10.0482,10.0213,10.1001,10.1292,10.0986,9.9228,9.8311,9.8655,9.7394,9.6592,9.6439,9.4949,9.3726,9.2847,9.2847,9.216,9.0861,9.1472,9.1472,9.0822,9.0669,9.0593,9.0593,9.0593,9.0593,9.0669,9.1319,9.1663,9.1969,9.3726,9.4796,9.5369,9.5522,9.5598,9.5598,9.5598,9.6057,9.663,9.663,9.7203,9.7891,9.8044,9.8693,9.9687,10.0986,10.1712,10.2094,10.2829,10.3679,10.4385,10.4584,10.5301,10.6007,10.6203,10.6284,10.6405,10.6405,10.6405,10.6405,10.6405,10.7021,10.7521,10.7713,10.8406,10.8906,10.8906,10.8906,10.8598,10.779,10.7521,10.7213,10.6521,10.6405,10.6405,10.6405,10.6405,10.6407,10.6487,10.6575,10.6395,10.578,10.4502,10.379,10.3804,10.3101,10.2789,10.2789,10.2789,10.2789,0.0,0.0,0.0,0.0,8.0755,0.0,0.0,0.0,7.6166,7.4037,0.0,0.0,0.0,0.0,0.0,0.0,0.0,0.0,8.4386,8.7253,9.0991,9.5372,9.5196,9.5404,9.7339,9.6191,9.5904,9.7356,9.5216,9.4452,9.5942,9.5828,9.5407,9.472,9.3764,9.2847,9.1969,9.193,9.1854,9.1663,9.1739,9.1739,9.1625,9.0937,9.0593,9.0593,9.0593,9.0593,9.0631,9.0708,9.1166,9.1969,9.3726,9.4452,9.4643,9.5331,9.5598,9.5598,9.5598,9.5637,9.5751,9.5751,9.6324,9.7165,9.7891,9.8693,9.9419,9.961,10.0795,10.1979,10.2195,10.2815,10.3703,10.4615,10.4966,10.5277,10.621,10.6405,10.6405,10.6405,10.6405,10.6405,10.6405,10.6521,10.679,10.7598,10.8406,10.8906,10.8906,10.8906,10.8598,10.779,10.7021,10.6521,10.6405,10.6405,10.6405,10.6405,10.6405,10.6488,10.6697,10.6508,10.559,10.3987,10.4009,10.3717,10.2906,10.2789,10.2789,10.2789,10.2789,10.2789,0.0,0.0,0.0,0.0,0.0,0.0,0.0,0.0,7.2459,0.0,0.0,0.0,0.0,0.0,0.0,0.0,7.7931,0.0,0.0,0.0,8.5243,9.0689,0.0,0.0,9.3127,9.306,9.3344,9.4605,9.3688,9.3421,9.4108,9.4605,9.4261,9.2924,9.2542,9.216,9.1816,9.1816,9.2045,9.2542,9.2542,9.2542,9.2542,9.1663,9.1319,9.1281,9.0822,9.0593,9.0593,9.0593,9.0822,9.1281,9.3,9.3955,9.4452,9.5293,9.5598,9.5598,9.5598,9.5598,9.5598,9.5598,9.5866,9.6286,9.7165,9.7662,9.8158,9.9114,9.9962,10.0696,10.1117,10.198,10.2999,10.3881,10.4586,10.5326,10.6213,10.6405,10.6405,10.6405,10.6405,10.6405,10.6405,10.679,10.7098,10.7021,10.7713,10.8021,10.7521,10.7405,10.729,10.7021,10.6597,10.6405,10.6405,10.6405,10.6405,10.6405,10.6064,10.6067,10.6492,10.5398,10.4517,10.3892,10.3514,10.3218,10.2789,10.2789,10.2789,10.2789,10.2789,10.2789,8.3434,0.0,0.0,0.0,0.0,0.0,0.0,0.0,0.0,0.0,0.0,0.0,0.0,0.0,7.2463,7.47,0.0,7.6624,0.0,7.805,0.0,0.0,0.0,0.0,0.0,9.002,9.0517,9.1663,9.0669,9.0517,9.1663,9.2274,9.2236,9.151,9.1701,9.1816,9.1816,9.2045,9.258,9.3421,9.3459,9.3459,9.3421,9.2312,9.1816,9.1739,9.0937,9.0593,9.0593,9.0593,9.0593,9.0784,9.2465,9.3459,9.4108,9.5216,9.5598,9.5598,9.5598,9.5598,9.5598,9.5598,9.5598,9.5713,9.6363,9.6706,9.7203,9.8655,9.9319,9.9747,10.0497,10.1296,10.2317,10.3268,10.4205,10.5097,10.6213,10.6405,10.6405,10.6405,10.6405,10.6405,10.6405,10.6905,10.7098,10.6521,10.7098,10.7482,10.679,10.679,10.679,10.679,10.6521,10.6405,10.6405,10.6405,10.6292,10.6218,10.5906,10.5682,10.5585,10.4385,10.3803,10.3687,10.3101,10.2789,10.2789,10.2789,10.2789,10.2789,10.2789,10.2789,0.0,0.0,0.0,8.1746,0.0,0.0,0.0,0.0,7.4294,0.0,0.0,0.0,0.0,0.0,7.5432,7.3964,7.3802,0.0,0.0,0.0,0.0,0.0,0.0,0.0,0.0,8.6696,8.6428,8.811,8.448,8.3945,8.8033,8.8262,8.9027,9.0593,9.1395,9.1816,9.1816,9.2656,9.3459,9.4261,9.4338,9.4376,9.4299,9.258,9.1816,9.1739,9.0937,9.0593,9.0593,9.0593,9.0593,9.0784,9.2465,9.3115,9.3344,9.4987,9.5598,9.5598,9.5598,9.5598,9.5598,9.5598,9.5598,9.5598,9.5637,9.6248,9.7089,9.7929,9.8732,9.9618,10.0589,10.0913,10.1503,10.3276,10.3785,10.4405,10.602,10.6405,10.6405,10.6405,10.6405,10.6405,10.6405,10.6405,10.6405,10.6405,10.7098,10.7713,10.7713,10.7713,10.7713,10.7713,10.6905,10.6405,10.6405,10.6405,10.618,10.5614,10.601,10.5507,10.391,10.402,10.3687,10.2906,10.2789,10.2789,10.2789,10.2789,10.2789,10.2789,10.2789,10.2789,0.0,0.0,9.1767,8.4719,0.0,0.0,0.0,0.0,0.0,0.0,0.0,0.0,0.0,0.0,7.4889,7.3591,7.3831,7.3639,0.0,0.0,0.0,0.0,0.0,0.0,0.0,0.0,8.1843,8.299,8.1232,8.1958,8.6161,8.746,8.8606,8.9714,9.0555,9.1281,9.1778,9.1548,9.216,9.3497,9.2924,9.2962,9.3497,9.2312,9.1816,9.1739,9.0937,9.0593,9.0593,9.0593,9.0593,9.0708,9.1816,9.258,9.3306,9.4987,9.5598,9.5598,9.5598,9.5598,9.5598,9.5598,9.5598,9.5598,9.5598,9.5789,9.621,9.7089,9.7974,9.8867,9.9753,10.0617,10.1395,10.2589,10.2901,10.3482,10.5213,10.5482,10.5482,10.5482,10.602,10.6213,10.5597,10.602,10.6405,10.6405,10.7098,10.7521,10.6905,10.679,10.679,10.679,10.6597,10.6405,10.6405,10.5986,10.5802,10.5796,10.5008,10.44,10.3981,10.3514,10.3101,10.2789,10.2789,10.2789,10.2789,10.2789,10.2789,10.2789,10.2789,10.2789,9.2831,9.3455,0.0,8.7288,8.4903,0.0,7.6423,0.0,0.0,0.0,0.0,0.0,0.0,0.0,7.6654,7.5309,7.4608,7.2934,0.0,6.9444,0.0,0.0,0.0,0.0,0.0,7.8404,7.8481,7.871,7.7678,7.8748,8.2646,8.4441,8.6314,8.8339,8.9523,9.0669,9.1778,9.1281,9.1739,9.3077,9.2542,9.2542,9.3077,9.2198,9.1816,9.1739,9.0937,9.0593,9.0593,9.0593,9.0593,9.0669,9.1472,9.2121,9.2847,9.4567,9.5331,9.5598,9.5598,9.5598,9.5598,9.5598,9.5598,9.5598,9.5598,9.5598,9.6019,9.812,9.8287,9.8375,10.0787,10.1077,10.0975,10.2089,10.2517,10.3097,10.4713,10.4905,10.4789,10.4982,10.529,10.5405,10.5097,10.5597,10.602,10.6405,10.6905,10.7021,10.6521,10.6405,10.6405,10.6405,10.6405,10.6369,10.6488,10.6305,10.6018,10.5588,10.4806,10.4087,10.3687,10.3101,10.3218,10.4194,10.3296,10.3296,10.4194,10.3296,10.2789,10.2789,10.2789,10.2593]},{"header":{"parameterUnit":"m.s-1","parameterCategory":1,"la1":30.6,"la2":29.2853,"lo1":-89.7004,"lo2":-87.6739,"dy":0.0162,"dx":0.0183,"nx":112,"ny":82,"refTime":"2023-03-11T06:00:00:Z","depth":0,"parameterNumber":3,"parameterNumberName":"V-component_of_WINDS"},"data":[0.0,0.0,0.0,0.0,0.0,0.0,0.0,0.0,0.0,0.0,0.0,0.0,0.0,0.0,0.0,0.0,0.0,0.0,0.0,0.0,0.0,0.0,0.0,0.0,0.0,0.0,0.0,0.0,0.0,0.0,0.0,0.0,0.0,0.0,0.0,0.0,0.0,0.0,0.0,0.0,0.0,0.0,0.0,0.0,0.0,0.0,0.0,0.0,0.0,0.0,0.0,0.0,0.0,0.0,0.0,0.0,0.0,0.0,0.0,0.0,0.0,0.0,0.0,0.0,0.0,0.0,0.0,0.0,0.0,0.0,0.0,0.0,0.0,0.0,0.0,0.0,0.0,0.0,0.0,0.0,0.0,0.0,0.0,0.0,0.0,0.0,0.0,0.0,0.0,0.0,0.0,0.3021,0.3355,0.3551,0.3513,0.3445,0.3242,0.286,0.0,0.0,0.0,0.0,0.0,0.0,0.0,0.0,0.0,0.0,0.0,0.0,0.0,0.0,0.0,0.0,0.0,0.0,0.0,0.0,0.0,0.0,0.0,0.0,0.0,0.0,0.0,0.0,0.0,0.0,0.0,0.0,0.0,0.0,0.0,0.0,0.0,0.0,0.0,0.0,0.0,0.0,0.0,0.0,0.0,0.0,0.0,0.0,0.0,0.0,0.0,0.0,0.0,0.0,0.0,0.0,0.0,0.0,0.0,0.0,0.0,0.0,0.0,0.0,0.0,0.0,0.0,0.0,0.0,0.0,0.0,0.0,0.0,0.0,0.0,0.0,0.0,0.0,0.0,0.0,0.0,0.0,0.0,0.0,0.0,0.0,0.0,0.0,0.0,0.0,0.0,0.0,0.0,0.0,0.0,0.0,0.0,0.0,0.0,0.0,0.0,0.0,0.0,0.0,0.2885,0.3335,0.3549,0.3628,0.3544,0.3437,0.3228,0.2889,0.0,0.0,0.0,0.0,0.0,0.0,0.0,0.0,0.0,0.0,0.0,0.0,0.0,0.0,0.0,0.0,0.0,0.0,0.0,0.0,0.0,0.0,0.0,0.0,0.0,0.0,0.0,0.0,0.0,0.0,0.0,0.0,0.0,0.0,0.0,0.0,0.0,0.0,0.0,0.0,0.0,0.0,0.0,0.0,0.0,0.0,0.0,0.0,0.0,0.0,0.0,0.0,0.0,0.0,0.0,0.0,0.0,0.0,0.0,0.0,0.0,0.0,0.0,0.0,0.0,0.0,0.0,0.0,0.0,0.0,0.0,0.0,0.0,0.0,0.0,0.0,0.0,0.0,0.0,0.0,0.0,0.0,0.0,0.0,0.0,0.0,0.0,0.0,0.0,0.0,0.0,0.0,0.0,0.0,0.0,0.0,0.0,0.0,0.0,0.0,0.0,0.0,0.0,0.4746,0.5532,0.7428,0.7721,0.7773,0.7356,0.7365,0.6518,0.4919,0.456,0.0,0.0,0.0,0.0,0.0,0.0,0.0,0.0,0.0,0.0,0.0,0.0,0.0,0.0,0.0,0.0,0.0,0.0,0.0,0.0,0.0,0.0,0.0,0.0,0.0,0.0,0.0,0.0,0.0,0.0,0.0,0.0,0.0,0.0,0.0,0.0,0.0,0.0,0.0,0.0,0.0,0.0,0.0,0.0,0.0,0.0,0.0,0.0,0.0,0.0,0.0,0.0,0.0,0.0,0.0,0.0,0.0,0.0,0.0,0.0,0.0,0.0,0.0,0.0,0.0,0.0,0.0,0.0,0.0,0.0,0.0,0.0,0.0,0.0,0.0,0.0,0.0,0.0,0.0,0.0,0.0,0.0,0.0,0.0,0.0,0.0,0.0,0.0,0.0,0.0,0.0,0.0,0.0,0.0,0.0,0.0,0.0,0.0,0.0,0.0,0.0,0.0,0.6696,0.7937,1.0784,1.0594,1.0361,1.0784,1.0436,0.9197,0.6433,0.5911,0.0,0.0,0.0,0.0,0.0,0.0,0.0,0.0,0.0,0.0,0.0,0.0,0.0,0.0,0.0,0.0,0.0,0.0,0.0,0.0,0.0,0.0,0.0,0.0,0.0,0.0,0.0,0.0,0.0,0.0,0.0,0.0,0.0,0.0,0.0,0.0,0.0,0.0,0.0,0.0,0.0,0.0,0.0,0.0,0.0,0.0,0.0,0.0,0.0,0.0,0.0,0.0,0.0,0.0,0.0,0.0,0.0,0.0,0.0,0.0,0.0,0.0,0.0,0.0,0.0,0.0,0.0,0.0,0.0,0.0,0.0,0.0,0.0,0.0,0.0,0.0,0.0,0.0,0.0,0.0,0.0,0.0,0.0,0.0,0.0,0.0,0.0,0.0,0.0,0.0,0.0,0.0,0.0,0.0,0.0,0.0,0.0,0.0,0.0,0.0,0.0,0.0,0.6533,0.776,1.0692,0.9066,0.8599,1.0877,1.0088,0.884,0.6678,0.5642,0.0,0.0,0.0,0.0,0.0,0.0,0.0,0.0,0.0,0.0,0.0,0.0,0.0,0.0,0.0,0.0,0.0,0.0,0.0,0.0,0.0,0.0,0.0,0.0,0.0,0.0,0.0,0.0,0.0,0.0,0.0,0.0,0.0,0.0,0.0,0.0,0.0,0.0,0.0,0.0,0.0,0.0,0.0,0.0,0.0,0.0,0.0,0.0,0.0,0.0,0.0,0.0,0.0,0.0,0.0,0.0,0.0,0.0,0.0,0.0,0.0,0.0,0.0,0.0,0.0,0.0,0.0,0.0,0.0,0.0,0.0,0.0,0.0,0.0,0.0,0.0,0.0,0.0,0.0,0.0,0.0,0.0,0.0,0.0,0.0,0.0,0.0,0.0,0.0,0.0,0.0,0.0,0.0,0.0,0.0,0.0,0.0,0.0,0.0,0.0,0.0,0.0,1.0778,1.2354,0.0,1.4912,1.4869,1.541,1.485,1.3167,1.0483,0.0,0.0,0.0,0.0,0.0,0.0,0.0,0.0,0.0,0.0,0.0,0.0,0.0,0.0,0.0,0.0,0.0,0.0,0.0,0.0,0.0,0.0,0.0,0.0,0.0,0.0,0.0,0.0,0.0,0.0,0.0,0.0,0.0,0.0,0.0,0.0,0.0,0.0,0.0,0.0,0.0,0.0,0.0,0.0,0.0,0.0,0.0,0.0,0.0,0.0,0.0,0.0,0.0,0.0,0.0,0.0,0.0,0.0,0.0,0.0,0.0,0.0,0.0,0.0,0.0,0.0,0.0,0.0,0.0,0.0,0.0,0.0,0.0,0.0,0.0,0.0,0.0,0.0,0.0,0.0,0.0,0.0,0.0,0.0,0.0,0.0,0.0,0.0,0.0,0.0,0.0,0.0,0.0,0.0,0.0,0.0,0.0,0.0,0.0,0.0,0.0,0.0,1.2073,1.3262,1.504,0.0,1.7974,1.7659,1.8124,1.7467,1.5845,1.2602,0.0,0.0,0.0,0.0,0.0,0.0,0.0,0.0,0.0,0.0,0.0,0.0,0.0,0.0,0.0,0.0,0.0,0.0,0.0,0.0,0.0,0.0,0.0,0.0,0.0,0.0,0.0,0.0,0.0,0.0,0.0,0.0,0.0,0.0,0.0,0.0,0.0,0.0,0.0,0.0,0.0,0.0,0.0,0.0,0.0,0.0,0.0,0.0,0.0,0.0,0.0,0.0,0.0,0.0,0.0,0.0,0.0,0.0,0.0,0.0,0.0,0.0,0.0,0.0,0.0,0.0,0.0,0.0,0.0,0.0,0.0,0.0,0.0,0.0,0.0,0.0,0.0,0.0,0.0,0.0,0.0,0.0,0.0,0.0,0.0,0.0,0.0,0.0,0.0,0.0,0.0,0.0,0.0,0.0,0.0,0.0,0.0,0.0,0.0,0.0,0.0,0.0,1.2448,1.336,1.5197,1.8242,1.6335,1.5797,1.7893,1.6998,1.5131,0.0,0.0,0.0,0.0,0.0,0.0,0.0,0.0,0.0,0.0,0.0,0.0,0.0,0.0,0.0,0.0,0.0,0.0,0.0,0.0,0.0,0.0,0.0,0.0,0.0,0.0,0.0,0.0,0.0,0.0,0.0,0.0,0.0,0.0,0.0,0.0,0.0,0.0,0.0,0.0,0.0,0.0,0.0,0.0,0.0,0.0,0.0,0.0,0.0,0.0,0.0,0.0,0.0,0.0,0.0,0.0,0.0,0.0,0.0,0.0,0.0,0.0,0.0,0.0,0.0,0.0,0.0,0.0,0.0,0.0,0.0,0.0,0.0,0.0,0.0,0.0,0.0,0.0,0.0,0.0,0.0,0.0,0.0,0.0,0.0,0.0,0.0,0.0,0.0,0.0,0.0,0.0,0.0,0.0,0.0,0.0,0.0,0.0,0.0,0.0,0.0,0.0,0.0,1.4055,1.5679,1.702,1.862,1.8026,1.7889,1.8124,1.729,1.6058,1.4293,0.0,0.0,0.0,0.0,0.0,0.0,0.0,0.0,0.0,0.0,0.0,0.0,0.0,0.0,0.0,0.0,0.0,0.0,0.0,0.0,0.0,0.0,0.0,0.0,0.0,0.0,0.0,0.0,0.0,0.0,0.0,0.0,0.0,0.0,0.0,0.0,0.0,0.0,0.0,0.0,0.0,0.0,0.0,0.0,0.0,0.0,0.0,0.0,0.0,0.0,0.0,0.0,0.0,0.0,0.0,0.0,0.0,0.0,0.0,0.0,0.0,0.0,0.0,0.0,0.0,0.0,0.0,0.0,0.0,0.0,0.0,0.0,0.0,0.0,0.0,0.0,0.0,0.0,0.0,0.0,0.0,0.0,0.0,0.0,0.0,0.0,0.0,0.0,0.0,0.0,0.0,0.0,0.0,0.0,0.0,0.0,0.0,0.0,0.0,0.0,0.0,0.0,1.4936,1.6625,1.8002,1.8694,1.8762,1.8586,1.8124,1.746,1.6463,1.5059,0.0,0.0,0.0,0.0,0.0,0.0,0.0,0.0,0.0,0.0,0.0,0.0,0.0,0.0,0.0,0.0,0.0,0.0,0.0,0.0,0.0,0.0,0.0,0.0,0.0,0.0,0.0,0.0,0.0,0.0,0.0,0.0,0.0,0.0,0.0,0.0,0.0,0.0,0.0,0.0,0.0,0.0,0.0,0.0,0.0,0.0,0.0,0.0,0.0,0.0,0.0,0.0,0.0,0.0,0.0,0.0,0.0,0.0,0.0,0.0,0.0,0.0,0.0,0.0,0.0,0.0,0.0,0.0,0.0,0.0,0.0,0.0,0.0,0.0,0.0,0.0,0.0,0.0,0.0,0.0,0.0,0.0,0.0,0.0,0.0,0.0,0.0,0.0,0.0,0.0,0.0,0.0,0.0,0.0,0.0,0.0,0.0,0.0,0.0,0.0,0.0,0.0,1.5086,1.6761,1.8091,1.8694,1.8762,1.8586,1.8124,1.7528,1.6551,1.5106,0.0,0.0,0.0,0.0,0.0,0.0,0.0,0.0,0.0,0.0,0.0,0.0,0.0,0.0,0.0,0.0,0.0,0.0,0.0,0.0,0.0,0.0,0.0,0.0,0.0,0.0,0.0,0.0,0.0,0.0,0.0,0.0,0.0,0.0,0.0,0.0,0.0,0.0,0.0,0.0,0.0,0.0,0.0,0.0,0.0,0.0,0.0,0.0,0.0,0.0,0.0,0.0,0.0,0.0,0.0,0.0,0.0,0.0,0.0,0.0,1.2935,0.0,0.0,0.0,0.0,0.0,0.0,0.0,0.0,0.0,0.0,0.0,0.0,0.0,0.0,0.0,0.0,0.0,0.0,0.0,0.0,0.0,0.0,0.0,0.0,0.0,0.0,0.0,0.0,0.0,0.0,0.0,0.0,0.0,0.0,0.0,0.0,0.0,0.0,0.0,0.0,0.0,1.5248,1.6829,1.8091,1.8694,1.8762,1.8586,1.8124,1.7439,1.6537,1.5391,1.4285,0.0,0.0,0.0,0.0,0.0,0.0,0.0,0.0,0.0,0.0,0.0,0.0,0.0,0.0,0.0,0.0,0.0,0.0,0.0,0.0,0.0,0.0,0.0,0.0,0.0,0.0,0.0,0.0,0.0,0.0,0.0,0.0,0.0,0.0,0.0,0.0,0.0,0.0,0.0,0.0,0.0,0.0,0.0,0.0,0.0,0.0,0.0,0.0,0.0,0.0,0.0,0.0,0.0,0.0,0.0,0.0,0.0,0.0,0.0,0.0,1.3451,0.0,0.0,0.0,0.0,0.0,0.0,0.0,0.0,0.0,0.0,0.0,0.0,0.0,0.0,0.0,0.0,0.0,0.0,0.0,0.0,0.0,0.0,0.0,0.0,0.0,0.0,0.0,0.0,0.0,0.0,0.0,0.0,0.0,0.0,0.0,0.0,0.0,0.0,0.0,0.0,1.5398,1.689,1.8091,1.8694,1.8762,1.8606,1.8233,1.765,1.6856,1.5798,1.4746,0.0,0.0,0.0,0.0,0.0,0.0,0.0,0.0,0.0,0.0,0.0,0.0,0.0,0.0,0.0,0.0,0.0,0.0,0.0,0.0,0.0,0.0,0.0,0.0,0.0,0.0,0.0,0.0,0.0,0.0,0.0,0.0,0.0,0.0,0.0,0.0,0.0,0.0,0.0,0.0,0.0,0.0,0.0,0.0,0.0,0.0,0.0,0.0,0.0,0.0,0.0,0.0,0.0,1.4757,1.497,1.4977,1.5375,1.5547,1.5466,1.5053,1.4586,1.4055,1.381,0.0,0.0,0.0,0.0,0.0,0.0,0.0,0.0,0.0,0.0,0.0,0.0,0.0,0.0,0.0,0.0,0.0,0.0,0.0,0.0,0.0,0.0,0.0,0.0,1.341,1.3261,0.0,0.0,0.0,0.0,0.0,0.0,0.0,0.0,0.0,0.0,0.0,0.0,1.5513,1.6937,1.8091,1.8694,1.8742,1.862,1.8335,1.788,1.7195,1.6218,1.5316,1.4373,0.0,0.0,0.0,0.0,0.0,0.0,0.0,0.0,0.0,0.0,0.0,0.0,0.0,0.0,0.0,0.0,0.0,0.0,0.0,0.0,0.0,0.0,0.0,0.0,0.0,0.0,0.0,0.0,0.0,0.0,0.0,0.0,1.3267,1.2873,0.0,0.0,0.0,0.0,0.0,0.0,0.0,0.0,0.0,0.0,0.0,0.0,0.0,1.57,1.6003,1.6778,1.6715,1.6195,1.6757,1.6708,1.592,1.6933,1.7214,1.6748,1.739,0.0,1.4957,1.4285,0.0,0.0,0.0,0.0,0.0,0.0,0.0,0.0,0.0,0.0,0.0,0.0,0.0,0.0,0.0,0.0,0.0,0.0,0.0,0.0,0.0,0.0,1.4075,1.4136,1.4346,1.4434,0.0,1.3214,1.2481,1.2427,1.2237,0.0,0.0,0.0,0.0,0.0,0.0,0.0,1.554,1.6937,1.8091,1.8694,1.864,1.8498,1.8335,1.7792,1.7168,1.6503,1.5622,1.4774,1.3987,1.3254,0.0,0.0,0.0,0.0,0.0,0.0,0.0,0.0,0.0,0.0,0.0,0.0,0.0,0.0,0.0,0.0,0.0,0.0,0.0,0.0,0.0,0.0,0.0,0.0,0.0,0.0,0.0,0.0,0.0,1.3914,1.4215,1.379,1.4158,1.4322,0.0,0.0,0.0,0.0,0.0,0.0,0.0,0.0,0.0,1.6479,1.7086,1.7554,1.7874,1.8367,1.8549,1.8218,1.8587,1.8572,1.8416,1.8625,1.8587,1.8302,1.8357,1.7731,1.6727,1.5554,1.4746,1.4183,0.0,0.0,0.0,0.0,1.3397,1.362,1.3871,1.4,0.0,1.3838,0.0,0.0,0.0,0.0,0.0,0.0,0.0,0.0,0.0,0.0,1.4523,1.495,1.5086,1.5106,1.5059,1.4373,1.3607,0.0,1.2901,1.2684,1.2277,0.0,0.0,0.0,0.0,1.5099,1.6015,1.7222,1.8199,1.8708,1.8708,1.8565,1.8335,1.7914,1.7412,1.6815,1.6008,1.5262,1.4604,1.3777,1.3085,0.0,0.0,0.0,0.0,0.0,0.0,0.0,0.0,0.0,0.0,0.0,0.0,0.0,0.0,0.0,0.0,0.0,0.0,0.0,0.0,0.0,0.0,0.0,0.0,0.0,0.0,0.0,0.0,1.457,1.5057,1.4562,1.5027,1.5105,0.0,0.0,0.0,0.0,0.0,0.0,1.6813,1.7365,1.7882,1.8582,1.9147,1.9589,1.9911,2.0095,2.0295,2.0271,2.0484,2.0493,2.0742,2.0311,2.0161,2.0037,1.9754,1.9136,1.8534,1.6815,1.5778,1.5079,1.4475,1.4082,1.3885,1.4102,1.4306,1.4523,1.4855,1.497,1.4923,1.4624,1.417,1.3634,1.3024,0.0,0.0,0.0,0.0,1.3559,1.4421,1.4808,1.5133,1.5771,1.592,1.5913,1.5872,1.5513,1.4909,0.0,1.3682,1.3437,1.2834,0.0,0.0,0.0,0.0,1.5479,1.6402,1.7405,1.8199,1.8606,1.862,1.8498,1.8287,1.7948,1.7528,1.7012,1.6347,1.5683,1.5052,1.4238,1.3519,1.2915,0.0,0.0,0.0,0.0,0.0,0.0,0.0,0.0,0.0,0.0,0.0,0.0,0.0,0.0,0.0,0.0,0.0,0.0,0.0,0.0,0.0,0.0,0.0,0.0,0.0,0.0,0.0,0.0,0.0,1.4797,1.6073,0.0,0.0,0.0,0.0,1.6231,1.7226,1.8111,1.8834,1.9216,1.9735,2.0466,2.0832,2.1278,2.1823,2.2334,2.2241,2.1969,2.2296,2.2227,2.1767,2.2412,2.2489,2.1749,2.2327,2.1669,2.0202,1.7964,1.6775,1.6171,1.5567,1.5235,1.5092,1.5113,1.5303,1.556,1.5588,1.5594,1.5615,1.573,1.5269,1.4557,1.3953,1.377,0.0,0.0,1.4204,1.4611,1.5371,1.5893,1.63,1.6619,1.7012,1.7161,1.6598,1.6449,1.6083,0.0,1.4448,1.4061,1.3458,0.0,1.3953,1.3824,1.4835,1.5825,1.6442,1.7317,1.7989,1.8301,1.8213,1.8124,1.8111,1.7704,1.7311,1.6998,1.6544,1.5954,1.5201,1.459,1.398,1.3376,1.2651,0.0,0.0,0.0,0.0,0.0,0.0,0.0,0.0,0.0,0.0,0.0,0.0,0.0,0.0,0.0,0.0,0.0,0.0,0.0,0.0,0.0,0.0,0.0,0.0,0.0,0.0,0.0,0.0,1.6609,1.7819,0.0,1.721,1.7459,1.8014,1.8182,1.8956,1.9613,2.032,2.0702,2.1173,2.179,2.2147,2.2529,2.2951,2.3276,2.3504,2.3447,2.3568,2.3379,2.3149,2.3205,2.299,2.2728,2.2321,2.1652,2.0501,1.9592,1.8496,1.7121,1.6619,1.6266,1.6069,1.6266,1.6408,1.6517,1.6605,1.6578,1.6415,1.5886,1.5276,1.4699,1.4482,1.4421,1.4468,1.4719,1.5072,1.5506,1.6062,1.6402,1.6666,1.6965,1.7087,1.7107,1.6978,1.6802,1.6544,1.6117,1.5486,1.4916,1.4604,1.4679,1.4801,1.4841,1.5628,1.6388,1.689,1.765,1.8233,1.8443,1.8409,1.8301,1.8111,1.7684,1.7249,1.6856,1.6408,1.5954,1.5493,1.4903,1.4299,1.3695,1.3139,1.2596,0.0,0.0,0.0,0.0,0.0,0.0,0.0,0.0,0.0,0.0,0.0,0.0,0.0,0.0,0.0,0.0,0.0,0.0,0.0,0.0,0.0,0.0,0.0,0.0,0.0,0.0,1.7924,1.816,1.9345,1.9865,1.9151,1.941,1.9776,2.0133,2.0661,2.1246,2.1896,2.2212,2.2594,2.3081,2.3317,2.3593,2.3894,2.408,2.4235,2.434,2.434,2.4356,2.4421,2.3801,2.3519,2.3559,2.3029,2.2099,2.1261,2.0977,1.9662,1.8213,1.7806,1.7473,1.7222,1.7426,1.7473,1.7433,1.7419,1.7324,1.708,1.6334,1.575,1.533,1.5282,1.5269,1.533,1.5628,1.5961,1.6327,1.672,1.6937,1.7093,1.7236,1.7277,1.7277,1.727,1.7114,1.6965,1.691,1.6293,1.5703,1.5452,1.5493,1.5601,1.5696,1.6259,1.6822,1.7216,1.7758,1.8145,1.8287,1.8267,1.8158,1.7968,1.7623,1.7188,1.6632,1.6225,1.5778,1.5282,1.478,1.4278,1.3777,1.3227,1.2603,1.1911,0.0,0.0,0.0,0.0,0.0,0.0,0.0,0.0,0.0,0.0,0.0,0.0,0.0,0.0,0.0,0.0,0.0,0.0,0.0,0.0,0.0,0.0,0.0,1.6357,1.8062,1.9313,1.9345,2.0596,2.1181,2.0491,2.1059,2.162,2.1977,2.2489,2.3016,2.3528,2.3739,2.3999,2.4332,2.4356,2.4446,2.4592,2.4787,2.4868,2.4868,2.4868,2.4974,2.512,2.4787,2.4698,2.4852,2.4316,2.333,2.2047,2.1563,2.0635,1.9413,1.9115,1.8816,1.8552,1.8552,1.8464,1.8287,1.7989,1.7792,1.7589,1.7154,1.6802,1.6524,1.6388,1.6341,1.6395,1.6686,1.6883,1.7066,1.7351,1.7541,1.7616,1.7467,1.765,1.7792,1.7494,1.7433,1.7385,1.7236,1.6849,1.6402,1.5961,1.6137,1.6341,1.6341,1.6714,0.0,1.7399,1.7568,1.7717,1.786,1.7758,1.765,1.765,1.7487,1.708,1.6334,1.5988,1.5425,1.4557,1.4224,1.3926,1.362,1.2874,1.221,1.1489,0.0,0.0,0.0,0.0,0.0,0.0,0.0,0.0,0.0,0.0,0.0,0.0,0.0,0.0,0.0,0.0,0.0,0.0,0.0,0.0,0.0,0.0,1.8005,1.8054,1.9313,2.0515,2.1295,2.2294,2.287,2.2659,2.3065,2.3366,2.3471,2.3853,2.4145,2.4292,2.4356,2.4421,2.4527,2.4657,2.4746,2.4787,2.4974,2.5063,2.5063,2.5063,2.5104,2.5144,2.5039,2.4957,2.4852,2.4576,2.388,2.2974,2.2589,2.1712,2.0429,1.9537,1.9094,1.9006,1.8905,1.8687,1.8443,1.8267,1.8091,1.7935,1.7704,1.7419,1.7168,1.7127,1.7039,1.6992,1.7182,1.7344,1.7487,1.7561,1.7704,1.7792,1.7758,1.7812,1.7846,1.7758,1.767,1.7575,1.7534,1.7243,1.6937,1.6707,1.6829,1.6951,1.6951,1.7243,0.0,1.7724,1.788,1.8023,1.8179,1.8057,1.7846,1.7507,1.7046,1.6497,1.5866,1.5228,1.4821,1.4679,1.4177,1.3715,1.3308,1.2562,1.1495,0.0,0.0,0.0,0.0,0.0,0.0,0.0,0.0,0.0,0.0,0.0,0.0,0.0,0.0,0.0,0.0,0.0,0.0,0.0,0.0,0.0,0.0,1.8728,1.98,2.0328,2.1027,2.1896,2.296,2.3617,2.404,2.4186,2.4397,2.4551,2.4616,2.4803,2.4974,2.5039,2.5039,2.5079,2.5144,2.525,2.5355,2.542,2.5526,2.5591,2.5591,2.5445,2.5396,2.5461,2.525,2.5079,2.4974,2.4698,2.4243,2.3317,2.3052,2.2144,0.0,0.0,0.0,0.0,0.0,1.883,1.8599,1.8464,1.8355,1.8233,1.8023,1.7792,1.7609,1.7609,1.7541,1.7507,1.765,1.7806,1.7928,1.7928,1.7948,1.7948,1.7948,1.7914,1.786,1.786,1.7758,1.765,1.765,1.7453,0.0,1.7182,1.7182,1.7216,1.7277,1.7541,1.7772,1.7846,1.7935,1.8057,1.8213,1.8036,1.7758,1.7358,1.7005,0.0,0.0,0.0,1.4611,1.4197,1.3661,0.0,0.0,0.0,1.1782,1.086,0.0,0.0,0.0,0.6216,0.5023,0.0,0.0,0.0,0.0,0.0,0.0,0.0,0.0,0.0,0.0,0.0,0.0,0.0,0.0,0.0,0.0,2.0214,2.1473,2.2724,2.2911,2.3293,2.4251,2.4568,2.4844,2.5169,2.525,2.5331,2.5485,2.5485,2.5567,2.5721,0.0,0.0,0.0,0.0,2.6038,2.6208,2.6208,2.6208,2.6208,2.5891,2.5826,2.5948,2.5461,2.5225,2.5185,2.4828,2.4323,2.3653,2.3472,2.2512,2.1088,2.0687,2.0053,1.9393,1.9128,1.8938,1.8762,1.864,0.0,0.0,1.8233,1.8057,1.7935,1.7914,1.7914,1.7948,1.8077,1.8213,1.8321,1.8321,1.8213,1.8091,1.8091,1.7968,1.786,1.786,1.7758,1.767,1.767,1.7548,1.7453,1.7467,1.7344,1.7297,1.7446,1.7704,1.7901,1.7935,1.7914,1.7968,1.8111,0.0,0.0,1.7243,1.7154,1.6646,1.5533,1.5255,1.4645,1.3546,1.3085,1.284,1.2807,1.2637,1.2542,1.2528,1.2549,1.0993,0.8181,0.7667,0.6405,0.0,0.0,0.0,0.0,0.0,0.0,0.0,0.0,0.0,0.0,0.0,0.0,0.0,0.0,0.0,2.0068,2.1343,2.2594,2.3845,2.4145,2.4316,2.4527,2.5079,2.5485,2.5575,2.5826,2.6013,2.6062,2.6062,2.6062,2.6103,2.6103,2.6127,2.6143,2.6143,2.6168,2.6208,2.6208,2.6208,2.6208,0.0,0.0,2.6143,2.5891,2.5697,2.5567,2.5339,2.5144,2.4709,2.4372,2.348,2.2313,2.045,1.9798,1.9427,1.9359,1.9183,1.8938,1.8918,1.8816,1.8694,1.8511,1.8423,1.8375,1.8267,1.8233,0.0,1.8267,1.8301,1.8321,1.8321,1.8213,1.8091,1.8091,1.7968,1.786,1.786,1.7846,1.7826,1.7826,1.7704,1.765,1.7758,1.765,1.7609,1.7758,1.7935,1.8124,1.8375,1.8301,1.8247,1.8267,1.8111,1.7826,1.7412,1.6931,1.6402,1.5805,1.5174,1.4618,1.4143,1.3804,1.3512,1.3275,1.301,1.2813,1.2684,1.2813,1.2609,1.2056,0.8992,0.5919,0.0,0.0,0.0,0.0,0.0,0.0,0.0,0.0,0.0,0.0,0.0,1.7461,0.0,0.0,2.0466,2.1725,2.2765,2.3682,2.4486,2.4909,2.5144,2.5144,2.5461,2.5745,2.5932,2.6184,2.6338,2.6338,2.6419,2.6484,2.6484,2.6484,2.6484,2.6484,2.6484,2.6484,2.6484,2.6484,2.6525,2.6614,2.6525,2.6484,2.646,2.6184,2.5932,2.568,2.5485,2.529,2.512,2.4492,2.3582,2.2927,2.1283,2.0359,1.9907,1.9907,1.9482,1.8993,1.8993,1.8884,1.8742,1.8586,1.8531,1.8511,1.8443,1.8423,1.8443,1.8511,1.8552,1.8552,1.8552,1.8375,1.8213,1.8213,1.8036,1.788,1.7968,1.7989,1.8002,1.8077,1.7968,1.7914,1.807,1.7968,1.7894,1.7968,1.8111,1.8287,1.8498,1.8464,1.8423,1.8423,1.8233,1.7935,1.7568,1.6775,1.6171,1.5872,1.5228,1.4753,1.4529,1.4156,1.3926,1.3851,1.3485,1.3329,1.3403,1.3403,1.2932,1.2154,1.0293,0.7889,0.0,0.0,0.0,0.0,0.0,0.0,0.0,0.0,1.673,1.7307,1.8127,1.9021,1.993,2.1002,2.2107,2.3195,2.3999,2.4616,2.4974,2.542,2.5761,2.5867,2.5851,2.5932,2.6233,2.6419,2.6525,2.6525,2.6655,2.6736,2.6736,2.6736,2.6736,2.6736,2.6736,2.6736,2.6736,2.6736,2.6825,2.6955,2.6842,2.6801,2.6777,2.6509,2.6168,2.5826,2.5567,2.5339,2.512,2.431,2.37,2.3307,2.2666,2.1675,2.0918,2.0671,2.0252,1.9546,1.9511,1.9166,1.9015,1.8857,1.8572,1.8586,1.8586,1.8586,1.8599,1.8728,1.8762,1.8762,1.8762,1.8565,1.8355,1.8355,1.8145,1.7989,1.8111,1.8145,1.8179,1.8301,1.8213,1.8179,1.8301,1.8213,1.8145,1.8179,1.8287,1.8409,1.8552,1.8586,1.8565,1.8531,1.8301,1.7982,1.7595,1.6781,1.6198,1.5954,1.5466,1.512,1.4964,1.4557,1.436,1.4428,1.4075,1.398,1.4156,1.4034,1.3275,1.1877,1.1507,0.986,1.6816,1.569,1.5864,1.6145,1.6237,1.6511,0.0,0.0,1.8623,1.9321,2.0174,2.088,2.1157,2.2212,2.3195,2.3682,2.4486,2.5185,2.5526,2.5761,2.6078,2.6566,2.6484,2.6403,2.6419,2.659,2.672,2.672,2.672,2.6736,2.6736,2.6736,2.6736,2.6736,2.6736,2.6736,2.6736,2.6736,2.6736,2.6777,2.6907,2.6996,2.6972,2.6947,2.672,2.6354,2.5867,2.5461,2.5144,2.5096,2.4673,2.4056,2.3785,2.3331,2.2288,2.1805,2.121,2.1041,2.0886,2.0503,1.9868,1.9718,1.9205,1.8742,1.8742,1.8742,1.8742,1.8762,1.8762,1.8762,1.8762,1.864,1.8511,1.8511,1.8389,1.8267,1.8287,1.8301,1.8301,1.8321,1.8301,1.8301,1.8321,1.8301,1.8335,1.8464,1.8498,1.8565,1.8708,1.8742,1.8694,1.8552,1.8389,1.8002,1.7304,1.7134,1.6836,1.6293,1.6069,1.5886,1.5737,1.5425,1.5147,1.4903,1.4848,1.4706,1.4462,1.4441,1.4256,1.4071,1.216,0.9342,2.0079,1.7611,0.0,0.0,1.789,1.7932,1.8761,1.9402,1.9987,2.0596,2.1595,2.2448,2.274,2.3658,2.4462,0.0,2.529,2.5721,2.6078,2.6192,2.6289,2.6419,2.6549,2.6695,2.6915,2.7102,2.7167,2.7061,2.7142,2.7167,2.7061,2.7061,2.6996,2.6907,2.6907,2.6842,2.6736,2.6736,2.6842,2.7061,2.7126,2.7231,2.7313,2.7207,2.685,2.6298,2.5745,2.538,2.512,2.4909,2.4527,2.4064,2.3959,2.3512,2.3045,2.2312,2.1737,2.1339,2.0794,2.0375,1.9925,1.9386,1.907,1.8762,1.8762,1.8762,1.8762,1.8762,1.8762,1.8762,1.8762,1.8654,1.8531,1.8531,1.8423,1.8335,1.8423,1.8375,1.8335,1.8423,1.8301,1.8247,1.8409,1.8375,1.8389,1.864,1.8586,1.8586,1.8742,1.8762,1.8674,1.8423,1.8355,1.8057,1.7385,1.7243,1.6978,1.6463,1.6293,1.6144,1.5995,1.5784,1.5574,1.5364,1.5187,1.4991,1.478,1.4685,1.4597,1.4509,1.3547,1.1627,2.1595,0.0,0.0,2.0831,2.0627,2.0303,2.0969,2.1118,2.1408,2.1936,2.2935,2.3788,2.404,2.4763,2.5396,2.5697,2.5973,2.6249,2.6509,2.6509,2.6379,2.6168,2.6273,2.6509,2.6866,2.7207,2.7353,2.7272,2.7402,2.7418,2.7272,2.7272,2.7191,2.7012,2.7012,2.6931,2.6736,2.6736,2.6866,2.7126,2.7183,2.7272,2.7394,2.7167,2.676,2.6249,2.5721,2.5355,2.512,2.4844,2.4511,2.4129,2.3959,2.3764,2.3593,2.3069,2.2483,2.1879,2.1302,2.0923,2.0503,1.9662,1.9344,1.9056,1.8782,1.8762,1.8762,1.8762,1.8762,1.8762,1.8762,1.8674,1.8599,1.8599,1.8511,1.8464,1.8511,1.8477,1.8443,1.8464,1.8375,1.8335,1.8498,1.8477,1.8511,1.8728,1.8674,1.864,1.8742,1.8762,1.8654,1.8355,1.8321,1.8091,1.7534,1.7344,1.706,1.6612,1.6449,1.6279,1.609,1.5974,1.5845,1.5703,1.5438,1.5235,1.5092,1.4896,1.4746,1.4638,1.4597,1.379,0.0,0.0,2.3534,2.5384,2.4752,2.4022,2.5062,2.4077,2.3081,2.3617,2.4316,2.4828,2.4828,2.5299,2.5721,2.5891,2.6379,2.672,2.6736,2.6574,2.6338,2.5973,2.5632,2.5567,0.0,2.6614,2.7102,2.7248,2.7272,2.7272,2.7272,2.7272,2.7191,2.7012,2.7012,2.6931,2.6736,2.6736,2.6736,2.676,2.6931,2.7037,2.7012,2.6655,2.6484,2.6419,2.5891,2.5461,2.5144,2.512,2.4803,2.4316,2.4129,2.3959,2.3788,2.3593,2.3528,2.3463,2.3122,2.2631,2.1973,2.0998,2.0255,1.9882,1.9035,1.8762,1.8762,1.8762,1.8762,1.8762,1.8762,1.8762,1.8762,1.8762,1.8742,1.8708,1.8565,1.864,1.8674,1.8375,1.8552,1.8694,1.8552,1.8654,1.8742,1.8762,1.8762,1.8762,1.8762,1.8762,1.8654,1.8355,1.8321,1.8145,1.7684,1.75,1.7222,1.6768,1.6598,1.6381,1.6096,1.6076,1.6001,1.5852,1.5703,1.5547,1.5398,1.5106,1.4964,1.495,1.4801,1.4733,0.0,0.0,2.6149,2.7869,2.694,2.5939,2.6997,2.5579,2.4145,2.4446,2.4421,2.434,2.434,2.4681,2.5063,2.5355,2.6168,2.6825,2.7061,2.7037,2.6695,2.5867,2.5973,0.0,0.0,0.0,0.0,2.7231,2.7378,2.7508,2.7613,2.7524,2.7378,2.7183,2.7077,2.6931,2.6736,2.6736,2.6801,2.6931,2.7102,2.7183,2.7167,2.6679,2.6468,2.6419,2.5786,2.5355,2.512,2.4892,2.4616,2.4316,2.4015,2.3853,2.3788,2.3593,2.3528,2.3504,2.2918,2.2583,2.225,2.1255,2.0672,2.0591,2.0197,1.9683,1.9458,1.9458,1.9219,1.8762,1.8762,1.8762,1.8762,1.8762,1.8762,1.8742,1.8694,1.864,1.8586,1.8477,1.8464,1.8477,1.8531,1.8565,1.864,1.8742,1.8762,1.8762,1.8762,1.8762,1.8654,1.8355,1.8321,1.8145,1.7684,1.7507,1.727,1.6924,1.6659,1.6435,1.6239,1.6137,1.6008,1.5859,1.5805,1.5655,1.5411,1.5309,1.516,1.497,1.4916,1.4835,0.0,2.8085,3.0466,3.2213,3.0573,2.8593,2.9538,2.7012,2.4698,2.4681,2.43,2.391,2.3723,2.3804,2.4105,2.4673,2.5396,2.6143,2.689,2.672,2.6273,2.5656,2.5656,2.551,0.0,0.0,0.0,2.7012,2.7313,2.7524,2.7694,2.767,2.7548,2.7378,2.7207,2.7012,2.6842,2.6777,2.6801,2.6907,2.7037,2.7077,2.7061,2.659,2.6379,2.6338,2.5761,2.5396,2.5209,2.4909,2.4681,2.4486,2.4064,2.3894,2.3869,2.3617,2.3528,2.3528,2.2965,2.2957,2.2669,2.1666,2.1597,2.1322,2.084,2.0314,1.9832,1.9775,1.9351,1.8905,1.8796,1.8796,1.883,1.8782,1.8762,1.8742,1.8694,1.864,1.8586,1.8477,1.8464,1.8498,1.8531,1.8586,1.8654,1.8742,1.8762,1.8762,1.8762,1.8708,1.8599,1.8409,1.8301,1.8091,1.7758,1.7541,1.7297,1.6998,1.6741,1.6517,1.632,1.6218,1.609,1.594,1.5879,1.5757,1.5567,1.552,1.5364,1.5126,1.5126,1.5045,3.0355,3.3188,3.5952,3.829,3.5416,3.2064,3.2753,2.9132,2.4992,2.4615,2.4213,2.3737,0.0,0.0,2.296,2.3869,2.4251,2.4909,2.6314,2.5802,2.5315,0.0,0.0,0.0,0.0,0.0,0.0,2.6655,0.0,2.7337,2.7548,2.7694,2.7719,2.7548,2.7378,2.7183,2.7012,2.6825,2.6736,2.6736,2.6736,2.6736,2.672,2.6379,2.6208,2.6184,2.5826,2.5575,2.538,2.5209,2.5039,2.4803,2.4275,2.4064,2.4023,2.3658,2.3528,2.3504,2.3341,2.3512,2.3715,2.2465,2.2304,2.2499,2.1436,2.0864,2.0368,2.0239,1.9588,1.9135,1.885,1.8884,1.8959,1.8796,1.8762,1.8728,1.8586,1.8654,1.8674,1.8389,1.8565,1.8708,1.8565,1.8674,1.8762,1.8762,1.8762,1.8762,1.8762,1.862,1.8531,1.8531,1.8267,1.8036,1.788,1.7602,1.7311,1.7019,1.6849,1.6632,1.6347,1.632,1.6239,1.6096,1.594,1.5859,1.5852,1.5716,1.5574,1.5425,1.5425,1.5343,3.4137,3.6507,3.8544,4.0254,3.8121,3.5756,3.632,3.31,2.948,2.7204,2.5469,2.3603,0.0,0.0,0.0,2.3301,2.4738,0.0,2.7118,2.7183,0.0,0.0,0.0,2.6143,2.5632,2.5761,0.0,0.0,2.6825,2.7118,2.7694,2.7654,2.7589,2.7548,2.7378,2.7183,2.7012,2.6825,2.6736,2.6736,2.6736,2.6736,2.672,2.6379,2.6208,2.6184,2.5826,2.551,2.5209,2.5169,2.4949,2.4616,2.421,2.4064,2.4023,2.3658,2.3528,2.3528,2.3463,2.3617,2.3739,2.3094,2.311,2.3254,2.2782,2.2242,2.178,2.1377,2.0541,1.9901,1.9338,1.904,1.8959,1.8796,1.885,1.8884,1.8742,1.8728,1.8742,1.8654,1.8708,1.8742,1.8708,1.8742,1.8762,1.8762,1.8762,1.8762,1.8762,1.862,1.8531,1.8531,1.8267,1.8077,1.8036,1.7758,1.7507,1.7317,1.7066,1.6836,1.6646,1.6429,1.6293,1.6252,1.6103,1.5967,1.5852,1.5818,1.5723,1.5581,1.5581,1.5499,3.7195,3.8945,4.0428,4.1777,3.9628,3.6893,3.5613,3.2417,2.8722,2.4968,2.3368,0.0,0.0,0.0,0.0,0.0,0.0,0.0,2.6996,2.7077,2.6907,0.0,2.6744,0.0,2.6208,2.6249,2.6509,0.0,2.6907,2.7102,2.7654,2.767,2.7654,2.7654,2.7483,2.7272,2.7012,2.6907,2.6825,2.6736,2.6736,2.6736,2.672,2.6379,2.6208,2.6184,0.0,2.551,2.525,2.5169,2.4974,2.4681,2.4316,2.4186,2.4145,2.3869,2.3723,2.3658,2.3658,2.3723,2.3764,2.3463,2.3512,2.3617,2.3422,2.2941,2.2538,2.2085,2.1555,2.075,2.0063,1.9761,1.9727,1.9101,1.9061,1.9081,1.9061,1.8959,1.8871,1.8871,1.8871,1.8871,1.8871,1.8816,1.8762,1.8762,1.8762,1.8762,1.8762,1.862,1.8552,1.862,1.8301,1.8091,1.8091,1.7826,1.7582,1.7433,1.7202,1.7005,1.6856,1.6564,1.6374,1.6313,1.6157,1.6042,1.5954,1.5954,1.5879,1.5737,1.5737,1.5655,3.9666,4.0869,4.1777,4.2873,4.0608,3.7299,3.3988,3.0374,2.649,2.1587,0.0,1.9651,1.846,1.9216,2.0418,2.1806,0.0,2.4633,2.6614,2.6484,2.6419,2.7037,2.685,2.6639,2.6639,2.6614,2.6801,2.7313,2.7183,2.7223,2.7564,2.7719,2.78,2.78,2.7629,2.7378,2.7061,2.7061,2.6947,2.6736,2.676,2.676,2.672,2.6379,2.6208,2.6184,2.5826,2.555,2.5355,2.5209,2.5014,2.4803,2.4462,2.4332,2.4316,2.4105,2.3934,2.3804,2.3788,2.3764,2.3739,2.3569,2.3658,2.3788,2.3617,2.3212,2.2834,2.2709,2.2382,2.1988,2.0829,2.0822,2.0608,1.9963,1.9592,1.9516,1.9619,1.9203,1.9006,1.8993,1.8993,1.8993,1.8959,1.885,1.8762,1.8762,1.8762,1.8762,1.8762,1.862,1.8586,1.8742,1.8355,1.8091,1.8124,1.7846,1.7609,1.746,1.7304,1.7161,1.7012,1.6714,1.6483,1.6341,1.6191,1.6103,1.6083,1.6083,1.6015,1.5886,1.5886,1.5805,4.1096,4.1937,4.2592,4.3273,4.1909,3.9771,3.6412,3.3524,0.0,0.0,0.0,2.0272,1.7985,1.8574,2.0101,2.2237,0.0,0.0,0.0,0.0,2.7524,0.0,0.0,0.0,0.0,0.0,0.0,0.0,0.0,2.7548,2.7735,2.7784,2.78,2.78,2.7629,2.7443,2.7231,2.7231,2.7061,2.6736,2.689,2.689,2.672,2.6379,2.6208,2.6184,2.5826,0.0,2.5185,2.5161,2.4949,2.4616,2.4421,2.4332,2.4292,2.3975,2.3829,2.3788,2.3634,2.3569,2.3569,2.3528,2.3658,2.3804,2.3764,2.3885,2.3801,2.3409,2.313,2.2812,2.1988,2.1638,2.1461,2.1173,2.1188,2.0962,2.0238,1.9671,1.9128,1.9006,1.8993,1.8952,1.8816,1.8782,1.8762,1.8762,1.8762,1.8762,1.8762,1.862,1.8586,1.8742,1.8355,1.8145,1.8267,1.8002,1.7758,1.7616,1.7467,1.7311,1.7161,1.687,1.6639,1.649,1.6341,1.6205,1.6083,1.6083,1.6069,1.6042,1.6042,1.5961,4.2151,4.2766,4.3247,4.3861,4.2432,3.9608,3.473,0.0,0.0,0.0,0.0,1.8681,1.7189,0.0,0.0,0.0,0.0,0.0,0.0,0.0,0.0,0.0,0.0,0.0,0.0,0.0,0.0,0.0,0.0,2.7719,2.78,2.78,2.78,2.78,2.7629,2.7459,2.7272,2.7183,2.6996,2.6736,2.6825,2.6825,2.672,2.6379,2.6208,2.6184,2.5721,2.538,2.5144,2.5039,2.4844,2.4592,2.4511,2.4462,2.4446,2.4186,2.4015,2.391,2.3739,2.3617,2.3528,2.3528,2.3593,2.3674,2.3788,2.3934,2.4105,2.3777,2.3777,2.3441,2.2851,2.2458,2.2298,2.1637,2.1417,2.0901,2.0098,1.955,1.9271,1.9128,1.904,1.8972,1.8884,1.8816,1.8762,1.8762,1.8762,1.8762,1.8762,1.8694,1.8674,1.8762,1.843,1.8233,1.8321,1.8036,1.7826,1.7758,1.7548,1.7385,1.7311,1.6951,1.668,1.6524,1.6381,1.6232,1.6083,1.6083,1.6083,1.6083,1.6083,1.6042,4.2833,4.3354,4.3714,4.4142,4.2258,3.8609,3.2773,2.8892,0.0,0.0,0.0,1.6828,1.6665,0.0,0.0,0.0,0.0,0.0,0.0,0.0,0.0,0.0,0.0,0.0,0.0,0.0,0.0,0.0,0.0,0.0,2.78,2.78,2.78,2.78,2.767,2.7508,2.7272,2.7207,2.7061,2.6801,2.6842,2.6825,2.6777,2.6379,2.6208,2.6184,2.5632,2.529,2.512,2.4957,2.4763,2.4592,2.4592,2.4592,2.4576,2.4397,2.4251,2.408,2.3869,2.3723,2.3569,2.3552,2.3528,2.3569,2.3739,2.3894,2.4064,2.4275,2.4316,2.4002,2.3393,2.3244,2.2873,2.2084,2.1319,2.0492,1.9736,1.9434,1.9379,1.9183,1.9094,1.9027,1.8993,1.8884,1.8816,1.8816,1.8782,1.8762,1.8762,1.8762,1.8762,1.8762,1.8531,1.8355,1.8321,1.8077,1.7901,1.786,1.7582,1.7419,1.7419,1.7019,1.6714,1.6524,1.6415,1.6266,1.6083,1.6083,1.6083,1.6083,1.6083,1.6083,4.2993,4.3527,4.3888,4.3674,4.163,3.8438,3.3329,0.0,0.0,0.0,0.0,0.0,0.0,0.0,0.0,0.0,0.0,0.0,0.0,0.0,0.0,0.0,0.0,0.0,0.0,0.0,0.0,0.0,0.0,0.0,2.78,2.78,2.78,2.78,2.7784,2.7613,2.7272,2.7573,2.7483,2.6996,2.7142,2.7142,2.6972,2.6444,2.6208,2.6184,2.5632,2.529,0.0,2.4957,2.4763,2.4592,2.4592,2.4592,2.4576,2.4397,2.4316,2.4275,2.3934,2.3788,2.3764,2.3593,2.3528,2.3569,2.3739,2.3829,2.3894,2.4227,2.421,2.4129,2.4267,2.4186,2.3761,2.2873,2.1727,2.0608,2.0423,1.9907,1.9345,1.9061,1.9094,1.9149,1.9006,1.8972,1.8972,1.8972,1.885,1.8762,1.8762,1.8762,1.8762,1.8762,1.862,1.8464,1.8335,1.8165,1.8002,1.788,1.7582,1.7419,1.7419,1.7121,1.6822,1.6524,1.651,1.6361,1.6083,1.6083,1.6083,1.6083,1.6083,1.6083,4.2726,4.3527,4.3928,4.3594,4.1136,3.747,3.2013,0.0,0.0,0.0,0.0,1.6267,1.6487,0.0,0.0,0.0,0.0,0.0,0.0,0.0,0.0,0.0,0.0,0.0,0.0,0.0,0.0,0.0,0.0,0.0,2.78,2.78,2.78,2.78,2.7694,2.7524,2.7272,2.7313,2.7167,2.6842,2.6907,2.6866,2.6679,2.6354,2.6078,2.5867,2.5445,2.5144,0.0,2.4787,2.4657,2.4592,2.4592,2.4592,2.4576,2.4397,2.4332,2.4292,2.404,2.3959,2.3934,2.3764,2.3699,2.3699,2.3788,2.3804,2.3845,2.4105,2.404,2.3934,2.3999,2.3869,2.3471,2.2937,2.2047,2.1421,2.0635,1.9993,1.9622,1.9115,1.9094,1.9081,1.9115,1.9115,1.9094,1.9006,1.8938,1.8871,1.8782,1.8762,1.8762,1.8762,1.862,1.8477,1.8335,1.8179,1.8023,1.788,1.7582,1.7419,1.7419,1.7134,1.6836,1.6524,1.6524,1.6374,1.6083,1.6083,1.6083,1.6083,1.6083,1.6083,4.1699,4.3127,4.3781,4.3487,4.0869,3.7076,0.0,0.0,0.0,1.7962,1.6551,1.6243,1.6292,1.6414,1.6795,0.0,0.0,1.829,2.0775,0.0,0.0,0.0,0.0,0.0,0.0,0.0,0.0,0.0,0.0,0.0,2.78,2.78,2.78,2.78,2.7694,2.7508,2.7272,2.7207,2.7061,2.6825,2.6825,2.672,2.6525,2.6314,2.6013,2.5656,2.529,2.5039,0.0,2.4681,2.4592,2.4592,2.4592,2.4592,2.4576,2.4462,2.4421,2.4381,2.421,2.4105,2.404,2.3869,2.3764,2.3723,2.3723,2.3723,2.3764,2.3999,2.3934,2.3788,2.3739,2.3383,2.3053,2.2811,2.2196,2.1795,2.0809,2.0354,1.9946,1.9581,1.9324,1.9338,1.9237,1.9271,1.9217,1.9081,1.9061,1.8993,1.8782,1.883,1.885,1.8782,1.8708,1.8565,1.8335,1.8213,1.8077,1.788,1.7582,1.7419,1.7419,1.7134,1.6856,1.6592,1.6544,1.6395,1.6151,1.6103,1.6083,1.6083,1.6083,1.6083,4.0035,4.2218,4.3461,4.3167,4.0909,3.7474,0.0,0.0,0.0,1.9464,1.7173,1.6105,1.6267,1.6308,1.66,0.0,0.0,0.0,2.0848,2.1725,0.0,0.0,0.0,0.0,0.0,0.0,0.0,0.0,0.0,0.0,2.78,2.78,2.78,2.78,2.78,2.7629,2.7272,2.7443,2.7353,2.7012,2.7012,2.6907,2.672,2.6379,2.6013,2.5656,2.529,2.5039,0.0,2.4681,2.4592,2.4592,2.4592,2.4592,2.4592,2.4592,2.4592,2.4568,2.4397,2.421,2.404,2.3869,2.3682,2.3528,2.3528,2.3528,2.3617,2.3959,2.3934,2.3764,2.3569,2.3045,2.2561,2.2561,2.194,2.1302,2.1145,2.0974,2.0613,1.9925,2.0053,1.9958,1.94,1.9434,1.9379,1.9217,1.9203,1.9094,1.8796,1.9006,1.9081,1.8796,1.8905,1.8796,1.8355,1.8321,1.8179,1.788,1.7582,1.7419,1.7419,1.7134,1.691,1.6748,1.6598,1.6449,1.6307,1.6157,1.6083,1.6083,1.6083,1.6083,3.3588,3.5513,3.7254,3.5022,3.2984,3.0352,2.6682,0.0,2.1184,1.9046,1.7173,1.6386,1.7572,1.6939,1.6462,0.0,0.0,0.0,0.0,0.0,0.0,0.0,0.0,0.0,0.0,0.0,0.0,0.0,0.0,0.0,2.78,2.78,2.78,2.78,2.78,2.7629,2.7272,2.7337,2.7183,2.6825,2.6695,2.6549,2.6379,2.6119,2.5761,2.5315,2.5185,2.4974,2.4681,2.4616,2.4592,2.4592,2.4592,2.4592,2.4592,2.4592,2.4592,2.4568,2.4397,2.4292,2.421,2.391,2.3764,2.3699,2.3569,2.3528,2.3552,2.3658,2.3658,2.3593,2.3552,2.3278,2.3295,2.3295,2.2814,2.2362,2.1834,2.1688,2.1361,2.0768,2.0447,2.0366,2.0281,1.9825,1.9535,1.9379,1.9359,1.9291,1.9094,1.9149,1.9128,1.8938,1.8959,1.885,1.8498,1.8375,1.8233,1.8036,1.765,1.7419,1.7419,1.7134,1.691,1.6754,1.67,1.6605,1.6456,1.6307,1.6185,1.6083,1.6083,1.6083,0.0,3.1887,3.313,3.1962,2.9877,0.0,0.0,0.0,0.0,1.9008,1.7819,1.7337,1.8463,1.7234,1.6381,0.0,0.0,0.0,0.0,0.0,0.0,0.0,0.0,0.0,0.0,0.0,0.0,0.0,0.0,0.0,2.78,2.78,2.78,2.78,2.7735,2.7564,2.7272,2.7207,2.6996,2.6631,2.6525,2.6338,2.6103,2.5973,2.5632,2.5144,2.5144,2.4933,0.0,2.4592,2.4592,2.4592,2.4592,2.4592,2.4592,2.4592,2.4592,2.4576,2.4462,2.434,2.4186,2.3975,2.3804,2.3674,2.3569,2.3528,2.3528,2.3528,2.3528,2.3528,2.3528,2.3528,2.3528,2.3528,2.3317,2.3098,2.2631,2.248,2.2173,2.1643,2.1265,2.0926,2.0594,2.0394,1.9839,1.9447,1.9481,1.9447,1.9237,1.9305,1.9291,1.9094,1.9081,1.8972,1.8728,1.8511,1.8321,1.8111,1.7772,1.7534,1.7426,1.7188,1.6992,1.6842,1.6781,1.67,1.6605,1.6408,1.6232,1.6083,1.6083,1.5678,0.0,0.0,0.0,0.0,0.0,0.0,0.0,0.0,0.0,0.0,0.0,1.8463,1.8808,1.7486,1.6365,0.0,0.0,0.0,0.0,0.0,0.0,0.0,0.0,0.0,0.0,0.0,0.0,0.0,0.0,0.0,2.78,2.78,2.78,2.7784,2.7613,2.7443,2.7272,2.7077,2.6825,2.6468,2.6444,2.6249,2.5908,2.5908,2.5615,0.0,2.512,2.4933,2.4592,2.4592,2.4592,2.4592,2.4592,2.4592,2.4592,2.4592,2.4592,2.4592,2.4568,2.434,2.4064,2.404,2.3804,2.3528,2.3528,2.3528,2.3528,2.3528,2.3528,2.3528,2.3528,2.3528,2.3528,2.3528,2.3382,2.3252,2.3252,2.313,2.282,2.2504,2.2296,2.1887,2.0844,2.063,2.0337,1.9468,1.9569,1.9556,1.9271,1.9488,1.9556,1.9257,1.9217,1.9149,1.9006,1.8708,1.8409,1.8124,1.7948,1.7738,1.7446,1.729,1.7141,1.6998,1.6842,1.6754,1.6734,1.6456,1.6239,1.5877,1.5877,1.4669,2.4773,0.0,2.4922,2.3137,2.2191,0.0,0.0,0.0,0.0,0.0,0.0,1.7545,2.0324,1.8293,0.0,0.0,0.0,0.0,0.0,0.0,0.0,0.0,0.0,0.0,0.0,0.0,0.0,0.0,0.0,2.7954,2.78,2.78,2.7735,2.7613,2.7443,2.7313,2.7272,2.6955,2.6695,2.6468,2.6184,2.5956,2.5737,2.5591,2.5315,2.4933,2.4933,2.4803,2.4592,2.4592,2.4592,2.4592,2.4592,2.4592,2.4592,2.4592,2.4592,2.4551,2.4275,2.4129,2.4023,2.3739,2.3593,2.3528,2.3528,2.3528,2.3528,2.3528,2.3528,2.3528,2.3528,2.3528,2.3528,2.3528,2.3382,2.3252,2.3252,2.3236,2.3211,2.3005,2.2894,2.2273,2.1593,2.0865,2.038,1.961,1.9644,1.9644,1.9556,1.961,1.959,1.9393,1.9379,1.9271,1.9006,1.8708,1.8464,1.8287,1.8023,1.7772,1.7602,1.7446,1.7297,1.7148,1.6998,1.6809,1.6571,1.6503,1.5518,1.3667,1.3667,1.2463,2.2875,2.2888,2.1772,2.1088,2.0385,1.9451,0.0,0.0,0.0,0.0,0.0,0.0,2.2178,0.0,0.0,0.0,0.0,0.0,0.0,0.0,0.0,0.0,0.0,0.0,0.0,0.0,0.0,0.0,0.0,2.7906,2.78,2.78,2.7719,2.7548,2.7288,2.7126,2.7037,2.676,2.6484,2.6208,2.6013,2.5843,2.568,2.5485,2.525,2.4998,2.4909,2.4763,2.4592,2.4592,2.4592,2.4592,2.4592,2.4592,2.4592,2.4511,2.4462,2.4446,2.417,2.4023,2.3894,2.3617,2.3528,2.3528,2.3528,2.3528,2.3528,2.3528,2.3528,2.3528,2.3528,2.3528,2.3528,2.3528,2.3447,2.3382,2.3382,2.3382,2.3382,2.3382,2.3214,2.2811,2.2085,2.1593,2.088,2.0144,1.9908,1.9664,1.9664,1.9664,1.9624,1.9535,1.9468,1.9345,1.9115,1.8864,1.862,1.8335,1.8158,1.7948,1.7663,1.75,1.7317,1.71,1.7019,1.6829,1.6524,1.6524,1.5341,1.2863,1.2863,1.1259,2.2865,2.2166,2.0828,2.2298,2.1394,1.9675,0.0,0.0,0.0,0.0,0.0,0.0,0.0,0.0,0.0,0.0,0.0,0.0,0.0,0.0,0.0,0.0,0.0,0.0,0.0,0.0,0.0,0.0,0.0,2.7824,2.78,2.7784,2.7678,2.7508,2.7167,2.6866,2.6655,2.6484,2.6208,2.5891,2.5891,2.5786,2.555,2.542,2.525,2.5055,0.0,0.0,2.4592,2.4592,2.4592,2.4592,2.4592,2.4576,2.4527,2.4397,2.4316,2.4275,2.408,2.391,2.3739,2.3569,2.3528,2.3528,2.3528,2.3528,2.3528,2.3528,2.3528,2.3528,2.3528,2.3528,2.3528,2.3528,2.3528,2.3528,2.3528,2.3528,2.3528,2.3528,2.3528,2.3278,2.2561,2.2077,2.1365,2.063,2.0144,1.9664,1.9664,1.9664,1.9664,1.9664,1.9535,1.9393,1.9217,1.9094,1.883,1.8375,1.8335,1.8124,1.7704,1.7514,1.7304,1.7053,1.7005,1.6842,1.6558,1.6121,1.4739,1.2484,1.2063,0.9653,2.6047,2.5675,2.4007,2.1949,2.1291,2.1189,0.0,0.0,0.0,0.0,0.0,0.0,0.0,0.0,0.0,0.0,0.0,0.0,0.0,0.0,0.0,0.0,0.0,0.0,0.0,0.0,0.0,0.0,0.0,2.7971,2.78,2.767,2.7508,2.7313,2.6972,2.6631,2.6289,2.6103,2.5908,2.5721,2.5721,2.5461,2.4998,2.512,2.4998,2.4681,0.0,2.4616,2.4592,2.4592,2.4592,2.4592,2.4592,2.4511,2.4381,2.434,2.4235,2.408,2.391,2.3723,2.3569,2.3528,2.3528,2.3528,2.3528,2.3528,2.3528,2.3528,2.3528,2.3528,2.3528,2.3528,2.3528,2.3528,2.3528,2.3528,2.3528,2.3528,2.3528,2.3528,2.3528,2.3053,2.2077,2.16,2.1115,2.0144,1.9664,1.9664,1.9664,1.9664,1.9664,1.9664,1.9644,1.9501,1.9217,1.9183,1.8972,1.8531,1.8389,1.8179,1.7846,1.7568,1.7399,1.7351,1.7107,1.6897,1.6714,1.4723,1.2538,1.0371,0.828,0.6045,2.5388,2.4009,2.1871,2.3104,2.3683,2.3767,0.0,0.0,0.0,0.0,0.0,0.0,0.0,0.0,0.0,0.0,0.0,0.0,0.0,0.0,0.0,0.0,0.0,0.0,0.0,0.0,0.0,0.0,0.0,0.0,2.78,2.7629,2.7459,2.7272,2.6825,2.646,2.6208,2.5932,2.5697,2.5526,2.5526,2.5355,2.5014,2.4998,2.4909,2.4746,0.0,2.4592,2.4592,2.4592,2.4527,2.4462,2.4462,2.434,2.417,2.408,2.3934,2.3764,2.3682,2.3593,2.3528,2.3528,2.3528,2.3528,2.3528,2.3528,2.3528,2.3528,2.3528,2.3528,2.3528,2.3528,2.3528,2.3528,2.3528,2.3528,2.3528,2.3528,2.3528,2.3528,2.3528,2.3278,2.2811,2.2077,2.1343,2.088,2.0144,1.9664,1.9664,1.9664,1.9664,1.9664,1.9664,1.9576,1.9345,1.9257,1.8972,1.8443,1.8287,1.8057,1.7758,1.7616,1.7467,1.7304,1.7161,1.6341,1.4861,1.3761,1.1601,0.8017,0.693,0.5282,2.4341,2.2611,2.1042,2.4902,0.0,0.0,0.0,0.0,0.0,0.0,0.0,0.0,0.0,0.0,0.0,0.0,0.0,0.0,0.0,0.0,0.0,0.0,0.0,0.0,0.0,0.0,0.0,0.0,0.0,2.7784,2.7735,2.7564,2.7378,2.7142,2.6655,2.6314,2.6143,2.5786,2.5526,2.5339,2.538,2.5274,2.5014,2.4909,2.4852,2.4803,2.4657,2.4568,2.4527,2.4576,2.4462,2.4275,2.4316,2.421,2.3975,2.3804,2.3658,2.3528,2.3487,2.3463,2.3463,2.3463,2.3463,2.3463,2.3512,2.3528,2.3528,2.3528,2.3528,2.3528,2.3528,2.3528,2.3528,2.3528,2.3528,2.3528,2.3528,2.3528,2.3528,2.3528,2.3528,2.3528,2.3278,2.2312,2.1593,2.1343,2.038,1.9664,1.9664,1.9664,1.9664,1.9664,1.9664,1.959,1.9393,1.9237,1.8918,1.8409,1.8158,1.7935,1.7704,1.767,1.7521,1.7249,1.7209,1.6208,1.4279,1.3198,1.0852,0.7268,0.6178,0.5121,2.4644,2.4685,2.5004,2.7446,0.0,0.0,0.0,0.0,0.0,0.0,0.0,0.0,0.0,0.0,0.0,0.0,0.0,0.0,0.0,0.0,0.0,0.0,0.0,0.0,0.0,0.0,0.0,0.0,2.78,2.7735,2.7564,2.7402,2.7142,2.6785,2.6419,2.6143,2.5948,2.5591,2.5339,2.5169,2.5315,2.5128,2.4633,2.4803,2.4787,2.4616,2.4592,2.4511,2.4356,2.4527,2.4381,2.4105,2.4275,2.4121,2.3804,2.3617,2.3552,2.3504,2.3341,2.3276,2.3276,2.3276,2.3276,2.3301,2.3487,2.3528,2.3528,2.3528,2.3528,2.3528,2.3528,2.3528,2.3528,2.3528,2.3528,2.3528,2.3528,2.3528,2.3528,2.3528,2.3528,2.3278,2.2811,2.2077,2.1343,2.0872,2.0144,1.9664,1.9664,1.9664,1.9664,1.9664,1.9664,1.9535,1.9237,1.9094,1.8864,1.8531,1.8111,1.786,1.7846,1.7717,1.7568,1.7405,1.7263,1.7114,1.6748,1.2405,1.0265,0.984,0.5406,0.4537,2.4901,2.515,2.5384,0.0,0.0,0.0,0.0,0.0,0.0,0.0,0.0,0.0,0.0,0.0,0.0,0.0,0.0,0.0,0.0,0.0,0.0,0.0,0.0,0.0,0.0,0.0,0.0,2.7654,2.7654,2.7524,2.7223,2.7037,2.6825,2.6574,2.6233,2.5956,2.5786,2.5526,2.525,2.4974,2.5039,2.4909,2.4592,2.4657,2.4657,2.4592,2.4592,2.4486,2.434,2.4397,2.4235,2.3894,2.3845,2.3739,2.3634,2.3552,2.3463,2.3341,2.3276,2.3252,2.3252,2.3252,2.3341,2.3447,2.3504,2.3528,2.3528,2.3528,2.3528,2.3528,2.3528,2.3528,2.3528,2.3528,2.3528,2.3528,2.3528,2.3528,2.3528,2.3528,2.3528,2.3528,2.3295,2.2327,2.16,2.1843,2.063,1.9908,2.0144,1.9894,1.9664,1.9664,1.9576,1.9434,1.9217,1.8993,1.8762,1.8552,1.8375,1.8199,1.8023,1.7948,1.7806,1.7568,1.7412,1.6615,1.4975,1.1671,0.9511,0.8032,0.483,0.376,2.4598,2.4635,0.0,0.0,0.0,0.0,0.0,0.0,0.0,0.0,0.0,0.0,0.0,0.0,0.0,0.0,0.0,0.0,0.0,0.0,0.0,0.0,0.0,0.0,0.0,0.0,0.0,2.7548,2.7443,2.7248,2.6947,2.676,2.6525,2.6233,2.5973,2.5737,2.551,2.5315,2.5104,2.4868,2.4803,2.4722,2.4592,2.4527,2.4511,2.4511,2.4446,2.434,2.417,2.4227,2.408,2.3788,2.3593,2.3528,2.3528,2.3528,2.3447,2.3317,2.3211,2.3211,2.3252,2.3195,2.3301,2.3447,2.3447,2.3487,2.3512,2.3463,2.3487,2.3528,2.3528,2.3528,2.3528,2.3528,2.3528,2.3528,2.3528,2.3528,2.3528,2.3528,2.3528,2.3528,2.3528,2.2561,2.185,2.2561,2.0865,1.9914,2.0622,2.0144,1.9664,1.9664,1.9569,1.9413,1.9217,1.9006,1.8816,1.862,1.8565,1.8389,1.8111,1.8036,1.7894,1.765,1.75,1.6479,1.4833,1.1727,0.9349,0.7862,0.4867,0.4217,2.3392,0.0,0.0,0.0,0.0,0.0,0.0,0.0,0.0,0.0,0.0,0.0,0.0,0.0,0.0,0.0,0.0,0.0,0.0,0.0,0.0,0.0,0.0,0.0,0.0,0.0,2.7548,2.7548,2.7207,2.6931,2.6736,2.6549,2.6208,2.5697,2.568,2.551,2.5144,2.4957,2.4868,2.4868,2.4681,2.4592,2.4592,2.4421,2.4332,2.4332,2.4145,2.3959,2.3829,2.3999,2.3959,2.3788,2.3593,2.3528,2.3528,2.3528,2.3528,2.3463,2.3122,2.3106,2.3236,2.3065,2.3106,2.3252,2.3252,2.3382,2.3487,2.3301,2.3382,2.3528,2.3528,2.3528,2.3528,2.3528,2.3528,2.3528,2.3528,2.3528,2.3528,2.3528,2.3528,2.3528,2.3528,2.2561,2.185,2.2561,2.0865,1.9914,2.0622,2.0144,1.9664,1.9664,1.9664,1.9535,1.9217,1.9203,1.9081,1.8782,1.862,1.8389,1.8111,1.7948,1.7792,1.765,1.75,1.7351,1.7195,1.2581,1.0196,0.9984,0.5536,0.5719,2.5063,0.0,0.0,0.0,0.0,0.0,0.0,0.0,0.0,0.0,0.0,0.0,0.0,0.0,0.0,0.0,0.0,0.0,0.0,0.0,0.0,0.0,0.0,0.0,2.7613,2.7353,2.7118,2.6996,2.676,2.6444,2.6013,2.5932,2.5721,2.5315,2.529,2.5185,2.4957,2.4892,2.4746,2.4486,2.4446,2.4486,2.4592,2.4421,2.4332,2.4332,2.4145,2.3959,2.3804,2.3723,2.3658,2.3617,2.3552,2.3528,2.3512,2.3382,2.3341,2.3301,2.3081,2.3106,2.3236,2.3065,2.3211,2.3406,2.3146,2.3195,2.3301,2.313,2.3106,2.3187,2.3301,2.3341,2.3358,2.3504,2.3528,2.3528,2.3528,2.3528,2.3528,2.3528,2.3528,2.3528,2.3528,2.2795,2.2561,2.3053,2.1593,2.0151,1.9894,1.9908,1.9664,1.9664,1.9468,1.9305,1.9203,1.9006,1.885,1.8762,1.8531,1.8335,1.8247,1.8111,1.7948,1.7806,1.765,1.7561,1.7514,1.4321,1.2063,1.0285,0.9004,0.8109,0.0,0.0,0.0,0.0,0.0,0.0,0.0,0.0,0.0,0.0,0.0,0.0,0.0,0.0,0.0,0.0,0.0,0.0,0.0,0.0,2.7483,2.7573,2.7337,2.7207,2.7329,2.7077,2.6825,2.6631,2.6403,2.6078,2.5697,2.555,2.5339,2.5039,2.5039,2.4909,2.4657,2.4657,2.4511,2.4235,2.4235,2.4251,2.4275,2.417,2.4121,2.4105,2.3853,2.3682,2.3577,2.3398,2.3358,2.3422,2.3422,2.3422,2.3406,2.3301,2.3211,2.313,2.296,2.3,2.313,2.3041,2.3146,2.3276,2.3065,2.3065,2.313,2.2935,2.3,2.313,2.3236,2.3317,2.3382,2.3504,2.3528,2.3528,2.3528,2.3528,2.3528,2.3528,2.3528,2.3528,2.3528,2.3045,2.2811,2.3528,2.2077,2.063,1.9908,1.9664,1.9664,1.9664,1.9501,1.9359,1.9291,1.9081,1.8918,1.885,1.8565,1.8375,1.8321,1.8111,1.7948,1.786,1.7717,1.765,1.765,1.5085,1.2786,1.0322,1.0359,0.9668,0.0,0.0,0.0,0.0,0.0,0.0,0.0,0.0,0.0,0.0,0.0,0.0,0.0,0.0,0.0,0.0,0.0,0.0,0.0,0.0,2.7231,2.7231,2.7077,2.6955,2.6947,2.676,2.6566,2.6379,2.6062,2.5786,2.5615,2.529,2.5014,2.4828,2.4828,2.4657,2.4316,2.4316,2.421,2.4023,2.3999,2.3894,2.3699,2.3764,2.3764,2.3699,2.3366,2.3211,2.3195,2.3065,2.3081,2.3236,2.3236,2.3236,2.3236,2.3211,2.313,2.2976,2.2789,2.2846,2.3,2.2976,2.2976,2.3,2.296,2.2976,2.296,2.2765,2.2976,2.3236,2.3252,2.3382,2.3504,2.3528,2.3528,2.3528,2.3528,2.3528,2.3528,2.3528,2.3528,2.3528,2.3528,2.3045,2.2795,2.3295,2.2327,2.1108,1.9908,1.9664,1.9664,1.9664,1.9644,1.959,1.9447,1.9291,1.9149,1.9006,1.8708,1.8498,1.8335,1.8057,1.7901,1.786,1.7758,1.7684,1.7663,1.5331,1.3027,1.0763,1.1069,1.1008,0.0,0.0,0.0,0.0,0.0,0.0,0.0,0.0,0.0,0.0,0.0,0.0,0.0,0.0,0.0,0.0,0.0,0.0,0.0,0.0,0.0,2.6842,2.6695,2.6525,2.6403,2.6103,2.5826,2.5632,2.5445,2.5225,2.5063,2.4974,2.4787,2.4462,2.4446,2.434,2.4129,2.4129,2.3959,2.3634,2.3487,2.3252,2.2976,2.3398,2.3358,2.2951,2.3016,2.2976,2.2846,2.296,2.3016,2.3065,2.3065,2.3065,2.3041,2.2895,2.2911,2.2976,2.2789,2.2846,2.2976,2.283,2.287,2.296,2.2659,2.2789,2.296,2.2765,2.2895,2.3081,2.3211,2.3276,2.3358,2.3487,2.3528,2.3528,2.3528,2.3528,2.3528,2.3528,2.3528,2.3528,2.3528,2.3278,2.3045,2.2085,2.1365,2.0622,1.9908,1.9664,1.9664,1.9664,1.9556,1.9468,1.9434,1.9291,1.9149,1.9006,1.8816,1.864,1.8498,1.8321,1.8111,1.786,1.7948,1.7935,1.7812,1.7338,1.5651,1.3243,1.5008,1.4885,0.0,0.0,0.0,0.0,0.0,0.0,0.0,0.0,0.0,0.0,0.0,0.0,0.0,0.0,0.0,0.0,0.0,0.0,0.0,0.0,0.0,2.6492,2.6314,2.6143,2.5973,2.5786,2.5575,2.529,2.5185,2.5063,2.4868,2.4787,2.4616,2.434,2.4332,2.421,2.3934,2.3853,2.3634,2.3276,2.3081,2.2805,2.2489,2.2846,2.287,2.2594,2.2618,2.2553,2.2464,2.257,2.2618,2.2635,2.2805,2.2805,2.274,2.2724,2.2724,2.2724,2.2635,2.2659,2.274,2.2724,2.2724,2.2724,2.2618,2.2659,2.2724,2.2635,2.2789,2.3016,2.3106,2.3252,2.3406,2.3504,2.3528,2.3528,2.3528,2.3528,2.3528,2.3528,2.3528,2.3528,2.3528,2.3295,2.2811,2.1843,2.1108,2.038,1.9664,1.9664,1.9664,1.9664,1.959,1.9535,1.9535,1.9325,1.9169,1.9094,1.8884,1.8654,1.8443,1.8498,1.8355,1.7989,1.8057,1.8023,1.786,1.786,1.6639,1.4238,1.6499,1.6124,0.0,0.0,0.0,0.0,0.0,0.0,0.0,0.0,0.0,0.0,0.0,0.0,0.0,0.0,0.0,0.0,0.0,0.0,0.0,0.0,2.8748,2.6338,2.5932,2.5761,2.555,2.5526,2.542,2.512,2.5063,2.4998,2.4868,2.4657,2.4462,2.4292,2.4227,2.404,2.3723,2.3487,2.3228,2.2911,2.2659,2.2359,2.2017,2.2172,2.2277,2.2318,2.2188,2.2131,2.2107,2.2131,2.2147,2.2172,2.2513,2.2529,2.2407,2.2594,2.257,2.2424,2.2448,2.2472,2.2489,2.2635,2.2578,2.2489,2.2635,2.2594,2.2513,2.2513,2.2765,2.3041,2.3041,2.3276,2.3528,2.3528,2.3528,2.3528,2.3528,2.3504,2.3487,2.3528,2.3528,2.3528,2.3487,2.2779,2.2327,2.16,2.0865,2.0151,1.9664,1.9664,1.9664,1.9664,1.9664,1.9664,1.9664,1.94,1.9237,1.9203,1.8959,1.8674,1.8409,1.864,1.8565,1.8145,1.8124,1.8057,1.7901,1.788,1.6898,1.5,1.6885,1.6512,0.0,0.0,0.0,0.0,0.0,0.0,0.0,0.0,0.0,0.0,0.0,0.0,0.0,0.0,0.0,0.0,3.826,3.4804,3.4067,2.9638,2.6199,2.5526,2.5485,2.5339,2.5022,2.4974,2.4957,2.4909,2.4763,2.4722,2.4868,2.4551,2.4292,2.4105,2.3804,2.3528,2.3341,2.3,2.2724,2.2529,2.2042,2.162,2.1278,2.1295,2.1465,2.1766,2.1912,2.1871,2.1749,2.1896,2.1977,2.2001,2.2188,2.2147,2.2042,2.2383,2.2383,2.2253,2.2407,2.2472,2.2472,2.2489,2.2489,2.2472,2.2489,2.2594,2.2675,2.2675,2.2935,2.3211,2.3211,2.3382,2.3528,2.3528,2.3528,2.3528,2.3528,2.3406,2.3341,2.3504,2.3528,2.3487,2.3317,2.246,2.16,2.1593,2.063,1.9908,1.9664,1.9664,1.9664,1.9664,1.9664,1.9664,1.9664,1.9501,1.9345,1.9203,1.9047,1.8884,1.8708,1.8742,1.862,1.8301,1.8287,1.8213,1.8057,1.7935,1.7565,1.72,1.7445,1.7358,0.0,0.0,0.0,0.0,0.0,0.0,0.0,0.0,0.0,0.0,0.0,0.0,0.0,4.2191,4.2298,4.1964,3.8702,3.5616,3.3816,3.0238,2.7148,2.5517,2.5339,2.529,2.5039,2.5014,2.4974,2.4868,2.4698,2.4633,2.4722,2.4462,2.421,2.3934,2.3577,2.3236,2.296,2.2513,2.2082,2.1725,2.136,2.1124,2.097,2.097,2.1116,2.136,2.1449,2.149,2.1514,2.1701,2.1725,2.166,2.1936,2.1936,2.1806,2.2066,2.2172,2.2212,2.2277,2.2383,2.2472,2.2472,2.2472,2.2472,2.2472,2.2513,2.2578,2.2578,2.283,2.3106,2.3106,2.3317,2.3504,2.3406,2.3382,2.3341,2.3252,2.3252,2.3276,2.3358,2.3463,2.3504,2.3422,2.2515,2.1593,2.1593,2.0622,1.9664,1.9664,1.9664,1.9664,1.9664,1.9664,1.9664,1.9664,1.9447,1.9271,1.9203,1.8993,1.8796,1.864,1.8708,1.862,1.8321,1.8321,1.8199,1.7968,1.7901,1.7826,1.7772,1.7772,1.7684,0.0,0.0,0.0,0.0,0.0,0.0,0.0,0.0,0.0,0.0,0.0,4.1056,4.1122,4.1603,4.1857,4.1416,3.9212,3.6496,3.3512,3.0916,2.8141,2.5394,2.5209,2.5185,2.5014,2.5039,2.4974,2.4746,2.4616,2.4527,2.4527,2.4275,2.3999,2.3682,2.3276,2.2911,2.2594,2.2066,2.1555,2.1059,2.0921,2.0832,2.0791,2.0791,2.0864,2.0994,2.1035,2.1157,2.1319,2.1465,2.1465,2.1425,2.1741,2.1741,2.162,2.1847,2.1977,2.2066,2.2107,2.2212,2.2342,2.2342,2.2342,2.2342,2.2342,2.2359,2.2407,2.2407,2.2659,2.2935,2.2976,2.3187,2.3382,2.3276,2.3211,2.3146,2.296,2.3106,2.3236,2.313,2.3341,2.3512,2.3463,2.2538,2.1593,2.1593,2.0622,1.9664,1.9664,1.9664,1.9664,1.9664,1.9664,1.9664,1.9664,1.9379,1.9203,1.9203,1.8918,1.8708,1.8599,1.8708,1.864,1.8375,1.8375,1.8233,1.7914,1.7914,1.7901,1.786,1.7197,1.6917,0.0,0.0,0.0,0.0,0.0,0.0,0.0,0.0,0.0,0.0,4.0949,4.1163,4.0615,4.0989,4.1376,4.1336,3.9073,3.6296,3.3491,3.0775,2.7968,2.5369,2.4998,2.4828,2.4633,2.4787,2.4738,2.4397,2.4356,2.4356,2.4356,2.3845,2.3487,2.3301,2.2789,2.2424,2.2212,2.1684,2.123,2.0872,2.0856,2.0767,2.0612,2.0612,2.0612,2.0637,2.0799,2.097,2.114,2.1148,2.1246,2.1408,2.1595,2.1555,2.1449,2.1806,2.1831,2.1701,2.1896,2.1953,2.1953,2.1953,2.1953,2.1953,2.1953,2.2082,2.2212,2.2212,2.2464,2.2781,2.296,2.3016,2.3065,2.3211,2.313,2.296,2.2781,2.3,2.3146,2.2805,2.3171,2.3463,2.3301,2.246,2.1593,2.1593,2.0622,1.9664,1.9664,1.9664,1.9664,1.9664,1.9664,1.9664,1.9664,1.9379,1.9203,1.9203,1.8918,1.8762,1.8742,1.8762,1.8694,1.8531,1.8511,1.8375,1.8077,1.8077,1.8002,1.786,1.5634,1.452,0.0,0.0,0.0,0.0,0.0,0.0,0.0,0.0,3.9493,3.9599,4.0107,4.0548,4.0722,4.1376,4.167,4.0909,3.8833,3.6917,3.5567,3.1588,2.8411,2.7486,2.6023,2.4974,2.4787,2.4722,2.4592,2.4356,2.4121,2.3999,2.3999,2.3487,2.3106,2.2911,2.2399,2.1871,2.1343,2.1035,2.0751,2.0515,2.0515,2.0474,2.0418,2.0418,2.0418,2.0426,2.0483,2.0677,2.0954,2.0954,2.0986,2.1051,2.1116,2.1173,2.1238,2.136,2.1514,2.166,2.1741,2.1831,2.1936,2.1936,2.1936,2.1953,2.2066,2.2147,2.2212,2.2342,2.2529,2.274,2.2805,2.2911,2.2976,2.2935,2.2789,2.2683,2.2724,2.3,2.3195,2.296,2.3236,2.3262,2.2965,2.2047,2.135,2.1108,2.0151,1.9664,1.9664,1.9664,1.9664,1.9664,1.9664,1.9624,1.9522,1.9325,1.9169,1.9081,1.8871,1.8762,1.8762,1.8762,1.8694,1.8531,1.862,1.8477,1.8091,1.8091,1.7327,1.5634,1.4747,1.3404,2.5879,0.0,0.0,0.0,0.0,0.0,3.5912,0.0,3.8063,3.8838,3.9493,4.004,4.0508,4.1243,4.1523,4.0762,3.9357,3.7853,3.6687,3.2807,2.9684,2.8671,2.6294,2.4803,2.4616,2.4486,2.4292,2.3999,2.3764,0.0,2.3528,2.3081,2.2659,2.2277,2.1871,2.1384,2.0775,2.0653,2.0507,2.032,2.032,2.032,2.032,2.032,2.032,2.032,2.032,2.0491,2.0767,2.0767,2.0799,2.0856,2.0856,2.0962,2.1124,2.1124,2.1319,2.1579,2.1579,2.1636,2.1741,2.1741,2.1741,2.179,2.1961,2.2066,2.2147,2.2318,2.2513,2.2659,2.27,2.2805,2.287,2.274,2.2635,2.2594,2.2789,2.3,2.3146,2.3106,2.3094,2.3045,2.2569,2.1827,2.1115,2.063,2.0144,1.9664,1.9664,1.9664,1.9664,1.9664,1.9664,1.959,1.9447,1.9291,1.9149,1.9006,1.885,1.8762,1.8762,1.8762,1.8708,1.8599,1.8708,1.8099,1.7021,1.7021,1.6018,1.4292,1.2738,1.073,0.0,0.0,0.0,0.0,0.0,0.0,3.5097,0.0,3.5765,3.8143,3.9092,3.9599,3.996,4.0508,4.0869,4.0869,4.0655,3.9595,3.6601,3.3893,3.1458,2.874,2.6051,2.4259,2.4319,2.4048,2.3812,2.3276,2.3236,2.3146,2.2976,2.2635,2.2107,2.1384,2.1205,2.0945,2.0596,2.0588,2.0491,2.0312,2.0304,2.0304,2.0312,2.0312,2.0312,2.0304,2.0312,2.0418,2.058,2.0588,2.0686,2.084,2.084,2.0954,2.1116,2.1116,2.1222,2.136,2.136,2.136,2.1384,2.1384,2.1384,2.1425,2.1595,2.179,2.1953,2.2147,2.2318,2.2489,2.2675,2.2724,2.2724,2.2724,2.2724,2.2765,2.296,2.3,2.3041,2.3211,2.2918,2.2561,2.2561,2.135,2.063,2.063,2.0144,1.9664,1.9664,1.9664,1.9664,1.9664,1.9664,1.959,1.9434,1.9291,1.9128,1.8993,1.885,1.8762,1.8762,1.8762,1.8762,1.8762,1.8762,1.7454,1.4646,1.4646,1.4532,1.4065,0.9177,0.5826,2.4636,0.0,0.0,0.0,0.0,0.0,0.0,0.0,3.344,3.6233,3.6941,3.7676,3.9666,4.0,4.004,4.0254,4.0214,3.98,3.8779,3.6466,3.4647,3.3904,2.9597,2.6729,2.6539,2.4837,2.3317,0.0,2.2765,2.2618,2.2424,2.1961,2.1473,2.1019,2.0832,2.0629,2.0401,2.0263,2.0174,2.0133,2.0003,2.0003,2.0133,2.0133,2.006,1.9946,2.0206,2.0279,2.0223,2.0344,2.0426,2.0466,2.0466,2.058,2.0742,2.0742,2.0856,2.1002,2.1002,2.1083,2.1197,2.1197,2.1278,2.1425,2.1595,2.1701,2.1806,2.2107,2.2237,2.2318,2.2489,2.2529,2.257,2.27,2.2724,2.2805,2.313,2.2852,2.2347,2.2512,2.2088,2.1684,2.1343,2.0764,2.0253,1.988,1.9908,1.9664,1.9664,1.9664,1.9664,1.9664,1.9556,1.9434,1.9271,1.9128,1.8993,1.883,1.8782,1.8762,1.8762,1.8762,1.8762,1.8762,1.8762,1.7454,1.4646,1.4727,1.2796,0.9174,0.605,0.4259,2.4703,2.5037,2.5611,0.0,0.0,0.0,2.982,3.0434,3.1476,3.4683,3.5444,3.6153,3.8183,3.8504,3.8544,3.8718,3.8838,3.9052,3.9372,3.6301,3.3874,3.377,2.8991,2.5679,2.5493,2.4096,2.2895,2.2529,2.2407,2.2237,2.1977,2.153,2.1181,2.097,2.0726,2.0507,2.032,2.0141,2.002,1.9946,1.9841,1.9849,1.9955,1.9955,1.989,1.98,2.0011,2.0044,1.9963,2.0141,2.0255,2.032,2.032,2.0434,2.0596,2.0596,2.071,2.0856,2.0856,2.097,2.1124,2.1124,2.1246,2.1425,2.1595,2.166,2.1725,2.2001,2.2131,2.2237,2.2424,2.2472,2.2513,2.2675,2.2483,2.2345,2.2615,2.211,2.162,2.2273,2.1533,2.0787,2.0409,2.0162,1.9942,1.9556,1.9624,1.9664,1.9664,1.9664,1.9644,1.9569,1.9481,1.9345,1.9128,1.904,1.8918,1.8782,1.8762,1.8762,1.8762,1.8762,1.8762,1.8762,1.782,1.5386,1.1741,1.2672,1.0732,0.5603,0.4259,0.3589,2.4917,2.5411,2.6226,0.0,0.0,0.0,2.9686,2.9619,2.9927,3.324,3.4162,3.4763,3.6032,3.654,3.6714,3.6607,3.6981,3.7676,3.8838,3.4994,3.1907,3.1696,2.7025,2.3808,2.3631,2.2883,2.2489,2.2147,2.2107,2.1961,2.162,2.1278,2.1083,2.1067,2.0726,2.045,2.0263,2.0093,1.9922,1.976,1.9743,1.9743,1.976,1.976,1.9752,1.9735,1.9776,1.9776,1.9776,1.9963,2.0133,2.0296,2.0312,2.0418,2.0564,2.0564,2.0661,2.0791,2.0791,2.0913,2.1067,2.1067,2.1197,2.1384,2.1555,2.162,2.166,2.1847,2.2042,2.2237,2.2407,2.2448,2.2513,2.2675,2.2249,2.1829,2.2008,2.1086,2.0634,2.1742,2.0923,2.0124,2.0146,1.9782,1.9393,1.9434,1.9556,1.9644,1.9644,1.9644,1.9576,1.9413,1.9393,1.9271,1.9006,1.8972,1.8905,1.8762,1.8762,1.8762,1.8762,1.8762,1.8755,1.8284,1.5675,1.1889,0.7412,0.9407,0.795,0.3594,0.3589,0.3589,0.0,0.0,0.0,0.0,0.0,0.0,2.7375,2.7989,2.9219,3.1089,3.1717,3.2492,3.4402,3.5177,3.5311,3.4589,3.5712,3.7008,3.7956,3.7084,3.6562,3.6523,3.1704,2.8471,2.8409,2.4496,2.2001,2.179,2.162,2.1449,2.1246,2.1027,2.0848,2.0702,2.0353,2.0085,1.9898,1.9711,1.9605,1.9565,1.9427,1.9435,1.9565,1.9565,1.9492,1.9378,1.9662,1.9703,1.9581,1.9768,1.9955,2.0133,2.0263,2.0344,2.0377,2.0377,2.0393,2.0426,2.0426,2.0547,2.0702,2.0702,2.0921,2.1181,2.1222,2.1319,2.1473,2.166,2.1936,2.2188,2.2237,2.2359,2.2505,2.1977,2.179,2.161,2.13,2.0525,2.0217,2.0481,1.9754,1.9303,1.9413,1.9135,1.9149,1.9393,1.9447,1.9481,1.9481,1.9481,1.9413,1.9257,1.9149,1.9061,1.8993,1.8884,1.8796,1.8762,1.8762,1.8762,1.8762,1.8762,1.782,1.5709,1.1122,0.8495,0.7514,0.5877,0.4515,0.3625,0.36,0.3589,0.0,0.0,0.0,2.6827,0.0,0.0,0.0,2.7495,2.8043,2.9967,3.0127,3.0461,3.2238,3.2679,3.2879,3.3173,3.4082,3.511,3.6153,3.5676,3.5329,3.5329,3.07,2.753,2.7621,2.42,2.1847,2.1684,2.1408,2.1222,2.1132,2.0872,2.0686,2.0596,2.0255,1.9979,1.9792,1.9695,1.9565,1.9386,1.9386,1.9386,1.9386,1.9386,1.9337,1.9272,1.9451,1.9475,1.9402,1.9581,1.9703,1.9817,2.0085,2.0247,2.032,2.032,2.032,2.032,2.032,2.0442,2.0596,2.0596,2.0775,2.0994,2.0994,2.1116,2.1319,2.1579,2.179,2.1961,2.2042,2.1976,2.1899,2.151,2.1147,2.0758,2.0372,1.9854,1.9351,1.9351,1.9111,1.8905,1.8972,1.8993,1.904,1.9183,1.9271,1.9325,1.9325,1.9325,1.9257,1.9115,1.9027,1.8959,1.8884,1.8816,1.8762,1.8762,1.8762,1.8762,1.8762,1.7581,1.5215,1.1437,0.8734,0.6829,0.5446,0.428,0.3596,0.3611,0.3596,0.3589,0.0,0.0,0.0,0.0,0.0,2.7442,0.0,0.0,0.0,2.8885,2.8804,0.0,0.0,0.0,0.0,3.1436,0.0,0.0,0.0,3.2696,0.0,3.2495,2.8551,2.5519,2.4986,2.2854,2.153,2.1465,2.1092,2.0897,2.097,2.0702,2.0531,2.0499,2.0182,1.9922,1.9735,1.9735,1.9589,1.9313,1.9443,1.9443,1.9305,1.9272,1.9256,1.9256,1.9256,1.9256,1.9272,1.941,1.9484,1.9549,1.9922,2.015,2.0271,2.0304,2.032,2.032,2.032,2.0418,2.0539,2.0539,2.0661,2.0807,2.084,2.0978,2.1189,2.1465,2.162,2.1701,2.1623,2.1565,2.1237,2.104,2.023,1.9647,1.9444,1.9219,1.8762,1.8762,1.8762,1.8762,1.8762,1.8871,1.8959,1.8993,1.9115,1.9203,1.9203,1.9203,1.9149,1.9006,1.8959,1.8905,1.8782,1.8762,1.8762,1.8762,1.8762,1.8523,1.8059,1.5215,1.1652,0.7629,0.6849,0.5667,0.3625,0.36,0.3589,0.3589,0.3589,0.3589,0.0,0.0,0.0,0.0,2.9392,0.0,0.0,0.0,2.7722,2.6947,0.0,0.0,0.0,0.0,0.0,0.0,0.0,0.0,2.8235,2.8772,2.9784,3.1218,2.8651,2.6234,2.4721,2.1986,2.0385,2.0694,2.0239,2.0076,2.0393,2.0369,2.0279,2.0133,1.993,1.9735,1.9549,1.954,1.9524,1.9484,1.95,1.95,1.9475,1.9329,1.9256,1.9256,1.9256,1.9256,1.9264,1.9281,1.9378,1.9549,1.9922,2.0076,2.0117,2.0263,2.032,2.032,2.032,2.0328,2.0353,2.0353,2.0474,2.0653,2.0807,2.0978,2.1132,2.1173,2.1425,2.1676,2.1024,2.0918,2.0863,1.9862,1.9691,1.9512,1.8967,1.8762,1.8762,1.8762,1.8762,1.8762,1.8762,1.8782,1.883,1.8972,1.9115,1.9203,1.9203,1.9203,1.9149,1.9006,1.8871,1.8782,1.8762,1.8762,1.8762,1.8762,1.8762,1.782,1.547,1.096,0.8078,0.75,0.5223,0.3848,0.3594,0.3589,0.3589,0.3589,0.3589,0.3589,0.0,0.0,0.0,0.0,0.0,0.0,0.0,0.0,2.6373,0.0,0.0,0.0,0.0,0.0,0.0,0.0,2.6834,0.0,0.0,0.0,2.6469,2.816,0.0,0.0,2.1714,2.0418,1.9841,2.0109,1.9914,1.9857,2.0003,2.0109,2.0036,1.9752,1.967,1.9589,1.9516,1.9516,1.9565,1.967,1.967,1.967,1.967,1.9484,1.941,1.9402,1.9305,1.9256,1.9256,1.9256,1.9305,1.9402,1.9768,1.9971,2.0076,2.0255,2.032,2.032,2.032,2.032,2.032,2.032,2.0377,2.0466,2.0653,2.0759,2.0864,2.1067,2.102,2.0945,2.1032,2.0516,1.9788,1.9957,1.9384,1.8809,1.8728,1.8762,1.8762,1.8762,1.8762,1.8762,1.8762,1.883,1.8884,1.8871,1.8993,1.9047,1.8959,1.8938,1.8918,1.8871,1.8796,1.8762,1.8762,1.8762,1.8762,1.8762,1.7511,1.4907,1.0723,0.8526,0.6621,0.5218,0.4067,0.3604,0.3589,0.3589,0.3589,0.3589,0.3589,0.3589,3.0368,0.0,0.0,0.0,0.0,0.0,0.0,0.0,0.0,0.0,0.0,0.0,0.0,0.0,2.6017,2.5539,0.0,2.5082,0.0,2.3676,0.0,0.0,0.0,0.0,0.0,1.9134,1.924,1.9484,1.9272,1.924,1.9484,1.9613,1.9605,1.9451,1.9492,1.9516,1.9516,1.9565,1.9678,1.9857,1.9865,1.9865,1.9857,1.9622,1.9516,1.95,1.9329,1.9256,1.9256,1.9256,1.9256,1.9297,1.9654,1.9865,2.0003,2.0239,2.032,2.032,2.032,2.032,2.032,2.032,2.032,2.0344,2.0483,2.0556,2.0661,2.097,2.0658,2.052,2.1132,2.0149,1.9194,1.9839,1.9078,1.8531,1.8728,1.8762,1.8762,1.8762,1.8762,1.8762,1.8762,1.885,1.8884,1.8782,1.8884,1.8952,1.883,1.883,1.883,1.883,1.8782,1.8762,1.8762,1.8762,1.8503,1.7775,1.4649,1.1341,0.7615,0.6842,0.544,0.3621,0.36,0.3589,0.3589,0.3589,0.3589,0.3589,0.3589,0.3589,0.0,0.0,0.0,2.9753,0.0,0.0,0.0,0.0,2.7041,0.0,0.0,0.0,0.0,0.0,2.7455,2.6921,2.668,0.0,0.0,0.0,0.0,0.0,0.0,0.0,0.0,1.8428,1.8371,1.8728,1.7957,1.7843,1.8712,1.8761,1.8923,1.9256,1.9427,1.9516,1.9516,1.9695,1.9865,2.0036,2.0052,2.006,2.0044,1.9678,1.9516,1.95,1.9329,1.9256,1.9256,1.9256,1.9256,1.9297,1.9654,1.9792,1.9841,2.019,2.032,2.032,2.032,2.032,2.032,2.032,2.032,2.032,2.0328,2.0458,2.0637,2.0815,2.0986,2.0947,2.0694,2.0073,1.95,1.9374,1.8767,1.8409,1.8694,1.8762,1.8762,1.8762,1.8762,1.8762,1.8762,1.8762,1.8762,1.8762,1.8884,1.8993,1.8993,1.8993,1.8993,1.8993,1.885,1.8762,1.8762,1.8762,1.7768,1.5313,1.0441,0.7609,0.7494,0.4996,0.3621,0.3594,0.3589,0.3589,0.3589,0.3589,0.3589,0.3589,0.3589,0.3589,0.0,0.0,3.34,3.0835,0.0,0.0,0.0,0.0,0.0,0.0,0.0,0.0,0.0,0.0,2.6888,2.516,2.5062,2.4282,0.0,0.0,0.0,0.0,0.0,0.0,0.0,0.0,1.7396,1.764,1.7266,1.7421,1.8314,1.859,1.8834,1.9069,1.9248,1.9402,1.9508,1.9459,1.9589,1.9873,1.9752,1.976,1.9873,1.9622,1.9516,1.95,1.9329,1.9256,1.9256,1.9256,1.9256,1.9281,1.9516,1.9678,1.9833,2.019,2.032,2.032,2.032,2.032,2.032,2.032,2.032,2.032,2.032,2.0361,2.045,2.0637,2.0602,2.0339,2.0295,1.9558,1.9021,1.9014,1.8608,1.8247,1.8552,1.8599,1.8599,1.8599,1.8694,1.8728,1.862,1.8694,1.8762,1.8762,1.8884,1.8959,1.885,1.883,1.883,1.883,1.8796,1.8762,1.8762,1.7261,1.5105,1.2756,0.9418,0.6614,0.4995,0.4067,0.36,0.3589,0.3589,0.3589,0.3589,0.3589,0.3589,0.3589,0.3589,0.3589,3.3788,3.4015,0.0,3.177,3.0902,0.0,2.7816,0.0,0.0,0.0,0.0,0.0,0.0,0.0,2.7522,2.5931,2.5326,2.405,0.0,1.9422,0.0,0.0,0.0,0.0,0.0,1.6665,1.6682,1.673,1.6511,1.6738,1.7567,1.7949,1.8347,1.8777,1.9029,1.9272,1.9508,1.9402,1.95,1.9784,1.967,1.967,1.9784,1.9597,1.9516,1.95,1.9329,1.9256,1.9256,1.9256,1.9256,1.9272,1.9443,1.9581,1.9735,2.0101,2.0263,2.032,2.032,2.032,2.032,2.032,2.032,2.032,2.032,2.032,2.0409,2.0856,2.0444,2.0015,2.0505,1.9647,1.8715,1.8921,1.8538,1.8179,1.8464,1.8498,1.8477,1.8511,1.8565,1.8586,1.8531,1.862,1.8694,1.8762,1.885,1.8871,1.8782,1.8762,1.8762,1.8762,1.8762,1.8517,1.7581,1.5177,1.2548,0.9935,0.7559,0.5227,0.3621,0.36,0.3604,0.3639,0.3607,0.3607,0.3639,0.3607,0.3589,0.3589,0.3589,0.3583]}]]